<?xml version='1.0' encoding='UTF-8'?><gpx version="1.1" creator="JPX - https://github.com/jenetics/jpx" xmlns="http://www.topografix.com/GPX/1/1"><trk><trkseg><trkpt lat="45.70717511512584" lon="9.373045018292451"><ele>453.0</ele><time>2026-04-25T09:50:13Z</time></trkpt><trkpt lat="45.70723065457726" lon="9.373110741443908"><ele>453.0</ele><time>2026-04-25T09:50:15Z</time></trkpt><trkpt lat="45.70728064652017" lon="9.373176376640314"><ele>453.0</ele><time>2026-04-25T09:50:17Z</time></trkpt><trkpt lat="45.70729243272398" lon="9.373284044929047"><ele>453.0</ele><time>2026-04-25T09:50:20Z</time></trkpt><trkpt lat="45.707260082155486" lon="9.373417094903683"><ele>453.0</ele><time>2026-04-25T09:50:22Z</time></trkpt><trkpt lat="45.70720848763063" lon="9.373552921875984"><ele>453.0</ele><time>2026-04-25T09:50:24Z</time></trkpt><trkpt lat="45.70716531367537" lon="9.373630668330442"><ele>453.0</ele><time>2026-04-25T09:50:25Z</time></trkpt><trkpt lat="45.70712008174441" lon="9.373715770023106"><ele>452.99999999999994</ele><time>2026-04-25T09:50:26Z</time></trkpt><trkpt lat="45.707069134143765" lon="9.373807682701655"><ele>452.99999999999994</ele><time>2026-04-25T09:50:27Z</time></trkpt><trkpt lat="45.7070122835678" lon="9.373918416767093"><ele>453.0</ele><time>2026-04-25T09:50:28Z</time></trkpt><trkpt lat="45.70694637762223" lon="9.37404069058779"><ele>453.0</ele><time>2026-04-25T09:50:29Z</time></trkpt><trkpt lat="45.706877478999125" lon="9.374170484657304"><ele>453.25</ele><time>2026-04-25T09:50:30Z</time></trkpt><trkpt lat="45.70680392903389" lon="9.374305948506452"><ele>453.5</ele><time>2026-04-25T09:50:31Z</time></trkpt><trkpt lat="45.706725415536376" lon="9.37444552684411"><ele>453.75</ele><time>2026-04-25T09:50:32Z</time></trkpt><trkpt lat="45.70664630869321" lon="9.374585612523019"><ele>454.0</ele><time>2026-04-25T09:50:33Z</time></trkpt><trkpt lat="45.70656852714316" lon="9.37472624850769"><ele>450.0</ele><time>2026-04-25T09:50:34Z</time></trkpt><trkpt lat="45.70648921486879" lon="9.374871852835026"><ele>446.0</ele><time>2026-04-25T09:50:35Z</time></trkpt><trkpt lat="45.706417534582215" lon="9.375002179552816"><ele>442.0</ele><time>2026-04-25T09:50:36Z</time></trkpt><trkpt lat="45.706348741321335" lon="9.375126993308108"><ele>438.0</ele><time>2026-04-25T09:50:37Z</time></trkpt><trkpt lat="45.70628831234161" lon="9.375241076292815"><ele>438.0</ele><time>2026-04-25T09:50:38Z</time></trkpt><trkpt lat="45.70622836404509" lon="9.37534602642164"><ele>437.99999999999994</ele><time>2026-04-25T09:50:39Z</time></trkpt><trkpt lat="45.70617714522935" lon="9.375442036805373"><ele>437.99999999999994</ele><time>2026-04-25T09:50:40Z</time></trkpt><trkpt lat="45.70613241378402" lon="9.375525897018358"><ele>438.0</ele><time>2026-04-25T09:50:41Z</time></trkpt><trkpt lat="45.706107329551706" lon="9.375652955482236"><ele>438.0</ele><time>2026-04-25T09:50:43Z</time></trkpt><trkpt lat="45.70617176535216" lon="9.375826343519476"><ele>436.3333333333333</ele><time>2026-04-25T09:50:45Z</time></trkpt><trkpt lat="45.706222216527834" lon="9.375909659939426"><ele>434.66666666666663</ele><time>2026-04-25T09:50:46Z</time></trkpt><trkpt lat="45.70626680274323" lon="9.375996348308702"><ele>433.0</ele><time>2026-04-25T09:50:47Z</time></trkpt><trkpt lat="45.706309372402224" lon="9.376097889050222"><ele>431.3333333333333</ele><time>2026-04-25T09:50:48Z</time></trkpt><trkpt lat="45.70634982596958" lon="9.376204698163885"><ele>429.66666666666663</ele><time>2026-04-25T09:50:49Z</time></trkpt><trkpt lat="45.70639459147888" lon="9.376315658779593"><ele>428.0</ele><time>2026-04-25T09:50:50Z</time></trkpt><trkpt lat="45.70644461323944" lon="9.37643517672419"><ele>428.0</ele><time>2026-04-25T09:50:51Z</time></trkpt><trkpt lat="45.706500100270226" lon="9.376567430884707"><ele>428.0</ele><time>2026-04-25T09:50:52Z</time></trkpt><trkpt lat="45.706553201058696" lon="9.37670240461945"><ele>428.0</ele><time>2026-04-25T09:50:53Z</time></trkpt><trkpt lat="45.70661286605612" lon="9.376847940241634"><ele>428.0</ele><time>2026-04-25T09:50:54Z</time></trkpt><trkpt lat="45.706676856125476" lon="9.376990434361682"><ele>428.0</ele><time>2026-04-25T09:50:55Z</time></trkpt><trkpt lat="45.706734527354946" lon="9.37714455309132"><ele>428.0</ele><time>2026-04-25T09:50:56Z</time></trkpt><trkpt lat="45.70678686676063" lon="9.377305199961402"><ele>428.0</ele><time>2026-04-25T09:50:57Z</time></trkpt><trkpt lat="45.706833987246384" lon="9.377457311116286"><ele>428.0</ele><time>2026-04-25T09:50:57.999Z</time></trkpt><trkpt lat="45.70688906071117" lon="9.377612919097402"><ele>423.79999999999995</ele><time>2026-04-25T09:50:58.999Z</time></trkpt><trkpt lat="45.706920306959184" lon="9.377746511633559"><ele>419.59999999999997</ele><time>2026-04-25T09:50:59.999Z</time></trkpt><trkpt lat="45.70696879476539" lon="9.37788301899354"><ele>415.4</ele><time>2026-04-25T09:51:00.999Z</time></trkpt><trkpt lat="45.707023606542506" lon="9.378007146401181"><ele>411.20000000000005</ele><time>2026-04-25T09:51:01.999Z</time></trkpt><trkpt lat="45.707071165877636" lon="9.378137573238678"><ele>407.0</ele><time>2026-04-25T09:51:02.999Z</time></trkpt><trkpt lat="45.70714796749246" lon="9.378223137495343"><ele>406.99999999999994</ele><time>2026-04-25T09:51:03.999Z</time></trkpt><trkpt lat="45.70720466066283" lon="9.378318947931477"><ele>407.0</ele><time>2026-04-25T09:51:04.999Z</time></trkpt><trkpt lat="45.7072507389616" lon="9.378414442930817"><ele>407.0</ele><time>2026-04-25T09:51:05.999Z</time></trkpt><trkpt lat="45.70729077152875" lon="9.378513588745456"><ele>407.0</ele><time>2026-04-25T09:51:06.999Z</time></trkpt><trkpt lat="45.70731570828723" lon="9.378606460575611"><ele>406.99999999999994</ele><time>2026-04-25T09:51:07.999Z</time></trkpt><trkpt lat="45.707293186810446" lon="9.378758644738257"><ele>407.0</ele><time>2026-04-25T09:51:09.999Z</time></trkpt><trkpt lat="45.70724721644172" lon="9.378834875457713"><ele>406.8333333333333</ele><time>2026-04-25T09:51:10.999Z</time></trkpt><trkpt lat="45.707183534584125" lon="9.378881940238593"><ele>406.66666666666663</ele><time>2026-04-25T09:51:11.999Z</time></trkpt><trkpt lat="45.707108989507915" lon="9.378901898822953"><ele>406.5</ele><time>2026-04-25T09:51:12.999Z</time></trkpt><trkpt lat="45.70702793129031" lon="9.378917053723619"><ele>406.33333333333337</ele><time>2026-04-25T09:51:13.999Z</time></trkpt><trkpt lat="45.706952552059334" lon="9.378944430666323"><ele>406.1666666666667</ele><time>2026-04-25T09:51:14.999Z</time></trkpt><trkpt lat="45.70686421537715" lon="9.378992197073398"><ele>406.0</ele><time>2026-04-25T09:51:15.999Z</time></trkpt><trkpt lat="45.70677168500299" lon="9.379051060815694"><ele>408.25</ele><time>2026-04-25T09:51:16.999Z</time></trkpt><trkpt lat="45.70667770036861" lon="9.379136903868666"><ele>410.5</ele><time>2026-04-25T09:51:17.999Z</time></trkpt><trkpt lat="45.70658496307482" lon="9.379254625385204"><ele>412.75</ele><time>2026-04-25T09:51:18.999Z</time></trkpt><trkpt lat="45.706506718556575" lon="9.37938064684109"><ele>415.0</ele><time>2026-04-25T09:51:19.999Z</time></trkpt><trkpt lat="45.70640276459875" lon="9.379501149616843"><ele>415.0</ele><time>2026-04-25T09:51:20.999Z</time></trkpt><trkpt lat="45.706287380147664" lon="9.37958404069134"><ele>415.0</ele><time>2026-04-25T09:51:21.999Z</time></trkpt><trkpt lat="45.70618232561284" lon="9.379678259334241"><ele>415.0</ele><time>2026-04-25T09:51:23Z</time></trkpt><trkpt lat="45.70607891906722" lon="9.379764581161567"><ele>415.0</ele><time>2026-04-25T09:51:24Z</time></trkpt><trkpt lat="45.70597669908404" lon="9.37984238122276"><ele>413.4</ele><time>2026-04-25T09:51:25Z</time></trkpt><trkpt lat="45.70588618151661" lon="9.37991030743221"><ele>411.8</ele><time>2026-04-25T09:51:26Z</time></trkpt><trkpt lat="45.705815354860356" lon="9.379987361459094"><ele>410.20000000000005</ele><time>2026-04-25T09:51:27Z</time></trkpt><trkpt lat="45.705746500221885" lon="9.38006634526129"><ele>408.6</ele><time>2026-04-25T09:51:28Z</time></trkpt><trkpt lat="45.705689482174385" lon="9.380168013186095"><ele>407.0</ele><time>2026-04-25T09:51:29Z</time></trkpt><trkpt lat="45.70564219579778" lon="9.380295548157068"><ele>407.0</ele><time>2026-04-25T09:51:30Z</time></trkpt><trkpt lat="45.7055994038962" lon="9.38044643380258"><ele>407.0</ele><time>2026-04-25T09:51:31Z</time></trkpt><trkpt lat="45.70556967831666" lon="9.380604227637258"><ele>407.0</ele><time>2026-04-25T09:51:32Z</time></trkpt><trkpt lat="45.70553927572926" lon="9.380742407642066"><ele>407.0</ele><time>2026-04-25T09:51:33Z</time></trkpt><trkpt lat="45.705510637815365" lon="9.380895469326406"><ele>407.0</ele><time>2026-04-25T09:51:34Z</time></trkpt><trkpt lat="45.70548156032671" lon="9.381011396515879"><ele>404.49999999999994</ele><time>2026-04-25T09:51:35Z</time></trkpt><trkpt lat="45.70544623524247" lon="9.381103115281801"><ele>402.0</ele><time>2026-04-25T09:51:36Z</time></trkpt><trkpt lat="45.70539757118483" lon="9.381174154656328"><ele>399.5</ele><time>2026-04-25T09:51:37Z</time></trkpt><trkpt lat="45.70532682510219" lon="9.381231336394508"><ele>397.0</ele><time>2026-04-25T09:51:38Z</time></trkpt><trkpt lat="45.7052338536632" lon="9.381240345705615"><ele>394.49999999999994</ele><time>2026-04-25T09:51:39Z</time></trkpt><trkpt lat="45.70516371275143" lon="9.381279508867037"><ele>392.0</ele><time>2026-04-25T09:51:40Z</time></trkpt><trkpt lat="45.705077446913" lon="9.38124972353813"><ele>390.8</ele><time>2026-04-25T09:51:42Z</time></trkpt><trkpt lat="45.70504447520153" lon="9.381078231126732"><ele>389.6</ele><time>2026-04-25T09:51:44Z</time></trkpt><trkpt lat="45.70503006681434" lon="9.380953144661348"><ele>388.40000000000003</ele><time>2026-04-25T09:51:45Z</time></trkpt><trkpt lat="45.70501990248337" lon="9.38082370620906"><ele>387.20000000000005</ele><time>2026-04-25T09:51:46Z</time></trkpt><trkpt lat="45.70497993138701" lon="9.380686097196593"><ele>386.0</ele><time>2026-04-25T09:51:47Z</time></trkpt><trkpt lat="45.70492588197605" lon="9.380583214322748"><ele>389.0</ele><time>2026-04-25T09:51:48Z</time></trkpt><trkpt lat="45.70484236655371" lon="9.380491337622743"><ele>392.0</ele><time>2026-04-25T09:51:49Z</time></trkpt><trkpt lat="45.704747273975194" lon="9.380413816078212"><ele>395.0</ele><time>2026-04-25T09:51:50Z</time></trkpt><trkpt lat="45.704649412430186" lon="9.38034548043327"><ele>398.0</ele><time>2026-04-25T09:51:51Z</time></trkpt><trkpt lat="45.70455017119967" lon="9.380269752396577"><ele>401.0</ele><time>2026-04-25T09:51:52Z</time></trkpt><trkpt lat="45.7044531509601" lon="9.380199713740023"><ele>395.3333333333333</ele><time>2026-04-25T09:51:53Z</time></trkpt><trkpt lat="45.70436121433865" lon="9.380130499925412"><ele>389.66666666666663</ele><time>2026-04-25T09:51:54Z</time></trkpt><trkpt lat="45.704287307749205" lon="9.380066890942349"><ele>384.0</ele><time>2026-04-25T09:51:55Z</time></trkpt><trkpt lat="45.70423182270958" lon="9.380000577463257"><ele>378.3333333333333</ele><time>2026-04-25T09:51:56Z</time></trkpt><trkpt lat="45.70419587168318" lon="9.379922148658032"><ele>372.66666666666663</ele><time>2026-04-25T09:51:57Z</time></trkpt><trkpt lat="45.70418931589472" lon="9.37982762196947"><ele>367.0</ele><time>2026-04-25T09:51:58Z</time></trkpt><trkpt lat="45.70419998340662" lon="9.379720415765103"><ele>368.5</ele><time>2026-04-25T09:51:59Z</time></trkpt><trkpt lat="45.70422492323715" lon="9.379600050570607"><ele>370.0</ele><time>2026-04-25T09:52:00Z</time></trkpt><trkpt lat="45.70424892775664" lon="9.37948799193968"><ele>371.5</ele><time>2026-04-25T09:52:01Z</time></trkpt><trkpt lat="45.70426223336862" lon="9.379373811547804"><ele>373.0</ele><time>2026-04-25T09:52:02Z</time></trkpt><trkpt lat="45.70425897062871" lon="9.379266784834382"><ele>374.5</ele><time>2026-04-25T09:52:03Z</time></trkpt><trkpt lat="45.704230562845225" lon="9.379154858593985"><ele>376.0</ele><time>2026-04-25T09:52:04Z</time></trkpt><trkpt lat="45.70416948352814" lon="9.379050410050153"><ele>376.0</ele><time>2026-04-25T09:52:05Z</time></trkpt><trkpt lat="45.704083827291875" lon="9.378967215668265"><ele>376.0</ele><time>2026-04-25T09:52:06Z</time></trkpt><trkpt lat="45.703983295814155" lon="9.378901204928638"><ele>376.0</ele><time>2026-04-25T09:52:07Z</time></trkpt><trkpt lat="45.70387070063926" lon="9.378842328557614"><ele>376.0</ele><time>2026-04-25T09:52:08Z</time></trkpt><trkpt lat="45.70375874825923" lon="9.378790493443065"><ele>376.8</ele><time>2026-04-25T09:52:09Z</time></trkpt><trkpt lat="45.703649472436396" lon="9.378759975264396"><ele>377.6</ele><time>2026-04-25T09:52:10Z</time></trkpt><trkpt lat="45.7035436413291" lon="9.378736460224143"><ele>378.4</ele><time>2026-04-25T09:52:11Z</time></trkpt><trkpt lat="45.70345315536088" lon="9.378675247793451"><ele>379.2</ele><time>2026-04-25T09:52:12Z</time></trkpt><trkpt lat="45.70335893465002" lon="9.378638548827816"><ele>380.0</ele><time>2026-04-25T09:52:13Z</time></trkpt><trkpt lat="45.7032683007337" lon="9.378563682801321"><ele>380.0</ele><time>2026-04-25T09:52:14Z</time></trkpt><trkpt lat="45.70316838521834" lon="9.378486934815276"><ele>380.0</ele><time>2026-04-25T09:52:15Z</time></trkpt><trkpt lat="45.703067077887816" lon="9.378422146117346"><ele>380.0</ele><time>2026-04-25T09:52:16Z</time></trkpt><trkpt lat="45.702971215399046" lon="9.378370301200295"><ele>380.0</ele><time>2026-04-25T09:52:17Z</time></trkpt><trkpt lat="45.70287760182609" lon="9.37835185376171"><ele>380.0</ele><time>2026-04-25T09:52:18Z</time></trkpt><trkpt lat="45.70277349264524" lon="9.378377206351272"><ele>376.25</ele><time>2026-04-25T09:52:19Z</time></trkpt><trkpt lat="45.702665883932895" lon="9.3784317393475"><ele>372.5</ele><time>2026-04-25T09:52:20Z</time></trkpt><trkpt lat="45.70256053160486" lon="9.378506411611877"><ele>368.75</ele><time>2026-04-25T09:52:21Z</time></trkpt><trkpt lat="45.70244949594095" lon="9.378579734000688"><ele>365.0</ele><time>2026-04-25T09:52:22Z</time></trkpt><trkpt lat="45.70233959485124" lon="9.378644910188981"><ele>365.0</ele><time>2026-04-25T09:52:23Z</time></trkpt><trkpt lat="45.702230891207385" lon="9.378702375323407"><ele>365.0</ele><time>2026-04-25T09:52:24Z</time></trkpt><trkpt lat="45.70213420819258" lon="9.37875583486215"><ele>365.0</ele><time>2026-04-25T09:52:25Z</time></trkpt><trkpt lat="45.70204120964147" lon="9.378798863760293"><ele>365.0</ele><time>2026-04-25T09:52:26Z</time></trkpt><trkpt lat="45.701949081742775" lon="9.378820694636337"><ele>365.0</ele><time>2026-04-25T09:52:27Z</time></trkpt><trkpt lat="45.70184852451066" lon="9.378810509008918"><ele>361.75</ele><time>2026-04-25T09:52:28Z</time></trkpt><trkpt lat="45.70174306341383" lon="9.378763427976693"><ele>358.5</ele><time>2026-04-25T09:52:29Z</time></trkpt><trkpt lat="45.70164954693846" lon="9.378701387836493"><ele>355.25</ele><time>2026-04-25T09:52:30Z</time></trkpt><trkpt lat="45.70153629737483" lon="9.378647822701797"><ele>352.0</ele><time>2026-04-25T09:52:31.001Z</time></trkpt><trkpt lat="45.701423537301" lon="9.378602371325327"><ele>352.0</ele><time>2026-04-25T09:52:32.001Z</time></trkpt><trkpt lat="45.70130569896184" lon="9.378554507747843"><ele>352.0</ele><time>2026-04-25T09:52:33.001Z</time></trkpt><trkpt lat="45.701193573236836" lon="9.37851310741786"><ele>352.0</ele><time>2026-04-25T09:52:34.001Z</time></trkpt><trkpt lat="45.70108689305078" lon="9.37848527205009"><ele>352.0</ele><time>2026-04-25T09:52:35.001Z</time></trkpt><trkpt lat="45.700982404667876" lon="9.378485494891803"><ele>346.75</ele><time>2026-04-25T09:52:36.001Z</time></trkpt><trkpt lat="45.70086370453357" lon="9.378490551322047"><ele>341.5</ele><time>2026-04-25T09:52:37.001Z</time></trkpt><trkpt lat="45.70073810510935" lon="9.378496858884214"><ele>336.25</ele><time>2026-04-25T09:52:38.001Z</time></trkpt><trkpt lat="45.700612159026505" lon="9.378494926979778"><ele>331.0</ele><time>2026-04-25T09:52:39.001Z</time></trkpt><trkpt lat="45.70048238875223" lon="9.378479363475197"><ele>331.0</ele><time>2026-04-25T09:52:40.001Z</time></trkpt><trkpt lat="45.70035750765385" lon="9.3784601084838"><ele>331.0</ele><time>2026-04-25T09:52:41.001Z</time></trkpt><trkpt lat="45.70023355983496" lon="9.378438469692"><ele>331.0</ele><time>2026-04-25T09:52:42.001Z</time></trkpt><trkpt lat="45.70010500382933" lon="9.378412522720021"><ele>331.0</ele><time>2026-04-25T09:52:43.001Z</time></trkpt><trkpt lat="45.69996986411824" lon="9.378374187654074"><ele>329.25</ele><time>2026-04-25T09:52:44.001Z</time></trkpt><trkpt lat="45.69985308965699" lon="9.378337956511977"><ele>327.5</ele><time>2026-04-25T09:52:45.001Z</time></trkpt><trkpt lat="45.69973661156819" lon="9.378297379409283"><ele>325.75</ele><time>2026-04-25T09:52:46.001Z</time></trkpt><trkpt lat="45.69961208592674" lon="9.37824809466659"><ele>324.0</ele><time>2026-04-25T09:52:47.001Z</time></trkpt><trkpt lat="45.6994856495077" lon="9.378209721023959"><ele>321.6666666666667</ele><time>2026-04-25T09:52:48.001Z</time></trkpt><trkpt lat="45.699226189289405" lon="9.378130959117108"><ele>319.33333333333337</ele><time>2026-04-25T09:52:50.001Z</time></trkpt><trkpt lat="45.69908842895356" lon="9.378088993329264"><ele>317.0</ele><time>2026-04-25T09:52:51.001Z</time></trkpt><trkpt lat="45.6989490042512" lon="9.37804991530572"><ele>314.75</ele><time>2026-04-25T09:52:52.001Z</time></trkpt><trkpt lat="45.69880416025102" lon="9.378003384818896"><ele>312.5</ele><time>2026-04-25T09:52:53.001Z</time></trkpt><trkpt lat="45.6986661184934" lon="9.377957397029904"><ele>310.25</ele><time>2026-04-25T09:52:54.001Z</time></trkpt><trkpt lat="45.69852327057461" lon="9.377907171381894"><ele>308.0</ele><time>2026-04-25T09:52:55.001Z</time></trkpt><trkpt lat="45.69837966759052" lon="9.37785884377329"><ele>306.5</ele><time>2026-04-25T09:52:56.001Z</time></trkpt><trkpt lat="45.69823373290945" lon="9.377809357807715"><ele>305.0</ele><time>2026-04-25T09:52:57.001Z</time></trkpt><trkpt lat="45.698089219429946" lon="9.37775901030056"><ele>303.5</ele><time>2026-04-25T09:52:58.001Z</time></trkpt><trkpt lat="45.69794416268581" lon="9.377704346404254"><ele>302.0</ele><time>2026-04-25T09:52:59.001Z</time></trkpt><trkpt lat="45.69780335052379" lon="9.37764977512544"><ele>300.25</ele><time>2026-04-25T09:53:00.001Z</time></trkpt><trkpt lat="45.69766885218119" lon="9.377598851549465"><ele>298.5</ele><time>2026-04-25T09:53:01.001Z</time></trkpt><trkpt lat="45.69754062858114" lon="9.377548848396819"><ele>296.75</ele><time>2026-04-25T09:53:02.001Z</time></trkpt><trkpt lat="45.69742008810492" lon="9.377502303576282"><ele>295.0</ele><time>2026-04-25T09:53:03.001Z</time></trkpt><trkpt lat="45.697305439625936" lon="9.377458804909946"><ele>295.0</ele><time>2026-04-25T09:53:03.999Z</time></trkpt><trkpt lat="45.69719442928085" lon="9.377416539527944"><ele>295.0</ele><time>2026-04-25T09:53:04.999Z</time></trkpt><trkpt lat="45.697085100075434" lon="9.37737678737914"><ele>295.0</ele><time>2026-04-25T09:53:05.999Z</time></trkpt><trkpt lat="45.69697383861895" lon="9.377339710071537"><ele>295.0</ele><time>2026-04-25T09:53:06.999Z</time></trkpt><trkpt lat="45.69685970296769" lon="9.37729570351583"><ele>294.0</ele><time>2026-04-25T09:53:07.999Z</time></trkpt><trkpt lat="45.696748535392075" lon="9.377250196899139"><ele>293.0</ele><time>2026-04-25T09:53:08.999Z</time></trkpt><trkpt lat="45.696634857864936" lon="9.37720702441916"><ele>292.0</ele><time>2026-04-25T09:53:09.999Z</time></trkpt><trkpt lat="45.696532916638134" lon="9.377162044620961"><ele>291.0</ele><time>2026-04-25T09:53:10.999Z</time></trkpt><trkpt lat="45.69644439343672" lon="9.377105033625734"><ele>290.0</ele><time>2026-04-25T09:53:12Z</time></trkpt><trkpt lat="45.69636668733464" lon="9.37702953578646"><ele>289.5</ele><time>2026-04-25T09:53:12.999Z</time></trkpt><trkpt lat="45.696302530036995" lon="9.376945495956244"><ele>289.0</ele><time>2026-04-25T09:53:13.999Z</time></trkpt><trkpt lat="45.69624090999725" lon="9.376881161518787"><ele>288.5</ele><time>2026-04-25T09:53:15Z</time></trkpt><trkpt lat="45.696180683515664" lon="9.37685371623513"><ele>288.0</ele><time>2026-04-25T09:53:16Z</time></trkpt><trkpt lat="45.69607850933719" lon="9.376937978677077"><ele>287.5</ele><time>2026-04-25T09:53:18Z</time></trkpt><trkpt lat="45.6960237473681" lon="9.376988258901724"><ele>287.0</ele><time>2026-04-25T09:53:19Z</time></trkpt><trkpt lat="45.69595094861307" lon="9.376988155458262"><ele>286.6666666666667</ele><time>2026-04-25T09:53:20Z</time></trkpt><trkpt lat="45.69587138485855" lon="9.376941803915308"><ele>286.33333333333337</ele><time>2026-04-25T09:53:21Z</time></trkpt><trkpt lat="45.695792697880805" lon="9.376889896003831"><ele>286.0</ele><time>2026-04-25T09:53:22Z</time></trkpt><trkpt lat="45.695705417516734" lon="9.376848789144855"><ele>285.6666666666667</ele><time>2026-04-25T09:53:23Z</time></trkpt><trkpt lat="45.695616479916765" lon="9.37681274522758"><ele>285.3333333333333</ele><time>2026-04-25T09:53:24Z</time></trkpt><trkpt lat="45.695532352529305" lon="9.3767798534862"><ele>285.0</ele><time>2026-04-25T09:53:25Z</time></trkpt><trkpt lat="45.69544802147777" lon="9.37672587199946"><ele>285.0</ele><time>2026-04-25T09:53:26Z</time></trkpt><trkpt lat="45.69538014888774" lon="9.376638805771412"><ele>285.0</ele><time>2026-04-25T09:53:27Z</time></trkpt><trkpt lat="45.69533726617782" lon="9.376516826633312"><ele>285.0</ele><time>2026-04-25T09:53:28Z</time></trkpt><trkpt lat="45.69527347839071" lon="9.376420658415325"><ele>285.0</ele><time>2026-04-25T09:53:29Z</time></trkpt><trkpt lat="45.69522183618729" lon="9.37632055129919"><ele>285.0</ele><time>2026-04-25T09:53:30Z</time></trkpt><trkpt lat="45.695166719979625" lon="9.376224872032342"><ele>284.3333333333333</ele><time>2026-04-25T09:53:31Z</time></trkpt><trkpt lat="45.69511455313459" lon="9.376130911288936"><ele>283.6666666666667</ele><time>2026-04-25T09:53:32Z</time></trkpt><trkpt lat="45.695064763245696" lon="9.376036659935783"><ele>283.0</ele><time>2026-04-25T09:53:33Z</time></trkpt><trkpt lat="45.69501175636772" lon="9.375941494691395"><ele>282.33333333333337</ele><time>2026-04-25T09:53:34Z</time></trkpt><trkpt lat="45.694960202628856" lon="9.37585133301015"><ele>281.6666666666667</ele><time>2026-04-25T09:53:35Z</time></trkpt><trkpt lat="45.69491253417495" lon="9.37576534035726"><ele>281.0</ele><time>2026-04-25T09:53:36Z</time></trkpt><trkpt lat="45.694864138140524" lon="9.375677654936803"><ele>281.0</ele><time>2026-04-25T09:53:37Z</time></trkpt><trkpt lat="45.69481557328197" lon="9.375591919328597"><ele>281.0</ele><time>2026-04-25T09:53:38Z</time></trkpt><trkpt lat="45.69477633977748" lon="9.375514072540435"><ele>281.0</ele><time>2026-04-25T09:53:39Z</time></trkpt><trkpt lat="45.694700747977905" lon="9.375367602448703"><ele>281.0</ele><time>2026-04-25T09:53:41Z</time></trkpt><trkpt lat="45.69464936105976" lon="9.375290301086993"><ele>281.0</ele><time>2026-04-25T09:53:42Z</time></trkpt><trkpt lat="45.69458899413334" lon="9.375213603790074"><ele>281.0</ele><time>2026-04-25T09:53:43Z</time></trkpt><trkpt lat="45.69452310883724" lon="9.375144299497542"><ele>280.83333333333337</ele><time>2026-04-25T09:53:44Z</time></trkpt><trkpt lat="45.69445406192594" lon="9.37508130441948"><ele>280.6666666666667</ele><time>2026-04-25T09:53:45Z</time></trkpt><trkpt lat="45.6943864003998" lon="9.375024413756405"><ele>280.5</ele><time>2026-04-25T09:53:46Z</time></trkpt><trkpt lat="45.69431918742493" lon="9.37498304651005"><ele>280.3333333333333</ele><time>2026-04-25T09:53:47Z</time></trkpt><trkpt lat="45.694246487569906" lon="9.37495065984478"><ele>280.16666666666663</ele><time>2026-04-25T09:53:48Z</time></trkpt><trkpt lat="45.694180208710875" lon="9.374934847157398"><ele>280.0</ele><time>2026-04-25T09:53:49Z</time></trkpt><trkpt lat="45.69409954661746" lon="9.374934657710519"><ele>280.0</ele><time>2026-04-25T09:53:50Z</time></trkpt><trkpt lat="45.694022186704586" lon="9.374957658678882"><ele>280.0</ele><time>2026-04-25T09:53:51Z</time></trkpt><trkpt lat="45.69393373781528" lon="9.374989849133682"><ele>280.0</ele><time>2026-04-25T09:53:52Z</time></trkpt><trkpt lat="45.693863327781585" lon="9.375089376387201"><ele>280.0</ele><time>2026-04-25T09:53:53Z</time></trkpt><trkpt lat="45.6937889701162" lon="9.375172028937707"><ele>280.0</ele><time>2026-04-25T09:53:54Z</time></trkpt><trkpt lat="45.69371558928237" lon="9.375253577489945"><ele>280.0</ele><time>2026-04-25T09:53:55Z</time></trkpt><trkpt lat="45.69364098305334" lon="9.375329523429379"><ele>280.0</ele><time>2026-04-25T09:53:56Z</time></trkpt><trkpt lat="45.69356918787084" lon="9.375404230776333"><ele>280.0</ele><time>2026-04-25T09:53:57Z</time></trkpt><trkpt lat="45.69350877236438" lon="9.375467429650884"><ele>280.0</ele><time>2026-04-25T09:53:58Z</time></trkpt><trkpt lat="45.69344417784563" lon="9.37553699859018"><ele>280.0</ele><time>2026-04-25T09:53:59Z</time></trkpt><trkpt lat="45.69336986270044" lon="9.375608266456014"><ele>280.0</ele><time>2026-04-25T09:54:00Z</time></trkpt><trkpt lat="45.693297617440656" lon="9.375682878654864"><ele>278.8</ele><time>2026-04-25T09:54:01Z</time></trkpt><trkpt lat="45.69322529663748" lon="9.375757667355943"><ele>277.6</ele><time>2026-04-25T09:54:02Z</time></trkpt><trkpt lat="45.69314939112764" lon="9.375828767306299"><ele>276.4</ele><time>2026-04-25T09:54:03Z</time></trkpt><trkpt lat="45.69306784265776" lon="9.375887947098452"><ele>275.2</ele><time>2026-04-25T09:54:04Z</time></trkpt><trkpt lat="45.69297686864602" lon="9.375920490875862"><ele>274.0</ele><time>2026-04-25T09:54:05Z</time></trkpt><trkpt lat="45.692876745017415" lon="9.37592481642353"><ele>274.0</ele><time>2026-04-25T09:54:06Z</time></trkpt><trkpt lat="45.69277577162304" lon="9.375884462615067"><ele>274.0</ele><time>2026-04-25T09:54:07Z</time></trkpt><trkpt lat="45.69267433217935" lon="9.375828345188255"><ele>274.0</ele><time>2026-04-25T09:54:08Z</time></trkpt><trkpt lat="45.69257487885849" lon="9.37577218645478"><ele>274.0</ele><time>2026-04-25T09:54:09Z</time></trkpt><trkpt lat="45.69247793864343" lon="9.37572155685598"><ele>274.0</ele><time>2026-04-25T09:54:10Z</time></trkpt><trkpt lat="45.69237848874984" lon="9.375672057977363"><ele>273.16666666666663</ele><time>2026-04-25T09:54:11Z</time></trkpt><trkpt lat="45.69229428522349" lon="9.375626740076646"><ele>272.3333333333333</ele><time>2026-04-25T09:54:12Z</time></trkpt><trkpt lat="45.69222490667258" lon="9.375589806918995"><ele>271.5</ele><time>2026-04-25T09:54:13Z</time></trkpt><trkpt lat="45.692159465299476" lon="9.375550041688353"><ele>270.6666666666667</ele><time>2026-04-25T09:54:14Z</time></trkpt><trkpt lat="45.69208170743293" lon="9.37551150841127"><ele>269.83333333333337</ele><time>2026-04-25T09:54:15Z</time></trkpt><trkpt lat="45.691997544008586" lon="9.375469600516164"><ele>269.0</ele><time>2026-04-25T09:54:16Z</time></trkpt><trkpt lat="45.69189371296211" lon="9.37541989755412"><ele>267.5</ele><time>2026-04-25T09:54:17Z</time></trkpt><trkpt lat="45.69177979988977" lon="9.375361924724135"><ele>266.0</ele><time>2026-04-25T09:54:18Z</time></trkpt><trkpt lat="45.69166585122227" lon="9.37529748426223"><ele>264.5</ele><time>2026-04-25T09:54:19Z</time></trkpt><trkpt lat="45.691554026690085" lon="9.375237114856882"><ele>263.0</ele><time>2026-04-25T09:54:20Z</time></trkpt><trkpt lat="45.69144669713398" lon="9.375180018338558"><ele>263.0</ele><time>2026-04-25T09:54:21Z</time></trkpt><trkpt lat="45.6913429649379" lon="9.375123992742811"><ele>263.0</ele><time>2026-04-25T09:54:22Z</time></trkpt><trkpt lat="45.69124542559112" lon="9.375073549966977"><ele>263.0</ele><time>2026-04-25T09:54:23.001Z</time></trkpt><trkpt lat="45.69115183628815" lon="9.375021335586677"><ele>263.0</ele><time>2026-04-25T09:54:24.001Z</time></trkpt><trkpt lat="45.69106075171847" lon="9.374972907302103"><ele>263.0</ele><time>2026-04-25T09:54:25.001Z</time></trkpt><trkpt lat="45.69097031320822" lon="9.374927745694515"><ele>262.0</ele><time>2026-04-25T09:54:26.001Z</time></trkpt><trkpt lat="45.6908829918896" lon="9.374884910708166"><ele>261.0</ele><time>2026-04-25T09:54:27.001Z</time></trkpt><trkpt lat="45.69080411715038" lon="9.374848124015504"><ele>260.0</ele><time>2026-04-25T09:54:28.001Z</time></trkpt><trkpt lat="45.69073581753248" lon="9.374805605072314"><ele>259.0</ele><time>2026-04-25T09:54:29.001Z</time></trkpt><trkpt lat="45.690676156797196" lon="9.374766633100188"><ele>258.0</ele><time>2026-04-25T09:54:30.001Z</time></trkpt><trkpt lat="45.69059800804443" lon="9.374658915078012"><ele>257.0</ele><time>2026-04-25T09:54:32.001Z</time></trkpt><trkpt lat="45.69055869208617" lon="9.374529214458049"><ele>257.0</ele><time>2026-04-25T09:54:34.001Z</time></trkpt><trkpt lat="45.69047249414508" lon="9.374471591251963"><ele>257.0</ele><time>2026-04-25T09:54:36.001Z</time></trkpt><trkpt lat="45.690388292957785" lon="9.374529649305126"><ele>257.0</ele><time>2026-04-25T09:54:37.001Z</time></trkpt><trkpt lat="45.690318112646565" lon="9.374594317514585"><ele>257.0</ele><time>2026-04-25T09:54:38.001Z</time></trkpt><trkpt lat="45.69024352195853" lon="9.374542115567253"><ele>257.0</ele><time>2026-04-25T09:54:39.001Z</time></trkpt><trkpt lat="45.69015542742633" lon="9.374495487808941"><ele>257.0</ele><time>2026-04-25T09:54:40.001Z</time></trkpt><trkpt lat="45.69006241079877" lon="9.37445779074761"><ele>256.0</ele><time>2026-04-25T09:54:41.001Z</time></trkpt><trkpt lat="45.68996691537413" lon="9.374403561936331"><ele>255.0</ele><time>2026-04-25T09:54:42.001Z</time></trkpt><trkpt lat="45.68986665333349" lon="9.374353114540172"><ele>254.0</ele><time>2026-04-25T09:54:43.001Z</time></trkpt><trkpt lat="45.68977155494034" lon="9.37430206899943"><ele>253.0</ele><time>2026-04-25T09:54:44.001Z</time></trkpt><trkpt lat="45.68967743244892" lon="9.374245695550918"><ele>252.0</ele><time>2026-04-25T09:54:45.001Z</time></trkpt><trkpt lat="45.68958831720971" lon="9.374174308334354"><ele>252.0</ele><time>2026-04-25T09:54:46.001Z</time></trkpt><trkpt lat="45.68949986281456" lon="9.37408297999815"><ele>252.0</ele><time>2026-04-25T09:54:47.001Z</time></trkpt><trkpt lat="45.689402290592" lon="9.373969931705009"><ele>252.0</ele><time>2026-04-25T09:54:48.001Z</time></trkpt><trkpt lat="45.68929748644699" lon="9.373847588335227"><ele>252.0</ele><time>2026-04-25T09:54:49.001Z</time></trkpt><trkpt lat="45.68918389327244" lon="9.373715727365116"><ele>252.33333333333331</ele><time>2026-04-25T09:54:50.001Z</time></trkpt><trkpt lat="45.68906732573726" lon="9.373578069157332"><ele>252.66666666666666</ele><time>2026-04-25T09:54:51.001Z</time></trkpt><trkpt lat="45.68895170681481" lon="9.373440841549586"><ele>253.0</ele><time>2026-04-25T09:54:52.001Z</time></trkpt><trkpt lat="45.68883665471447" lon="9.373304169251554"><ele>253.0</ele><time>2026-04-25T09:54:53.001Z</time></trkpt><trkpt lat="45.68872607636824" lon="9.37316356020461"><ele>253.0</ele><time>2026-04-25T09:54:54.001Z</time></trkpt><trkpt lat="45.688612404046744" lon="9.373022547830562"><ele>253.0</ele><time>2026-04-25T09:54:55.001Z</time></trkpt><trkpt lat="45.6885019500093" lon="9.372889588149754"><ele>253.0</ele><time>2026-04-25T09:54:56.001Z</time></trkpt><trkpt lat="45.688393322442636" lon="9.372755480647195"><ele>251.75</ele><time>2026-04-25T09:54:57.001Z</time></trkpt><trkpt lat="45.68828686917467" lon="9.372624178750604"><ele>250.5</ele><time>2026-04-25T09:54:58.001Z</time></trkpt><trkpt lat="45.688185349336194" lon="9.372497329833047"><ele>249.25</ele><time>2026-04-25T09:54:59.001Z</time></trkpt><trkpt lat="45.68808276381599" lon="9.37237587229548"><ele>248.0</ele><time>2026-04-25T09:55:00.001Z</time></trkpt><trkpt lat="45.68798284434257" lon="9.372253762658133"><ele>247.25</ele><time>2026-04-25T09:55:01.001Z</time></trkpt><trkpt lat="45.687894002248605" lon="9.372116378283582"><ele>246.5</ele><time>2026-04-25T09:55:02.001Z</time></trkpt><trkpt lat="45.687813970436025" lon="9.371957224785577"><ele>245.75</ele><time>2026-04-25T09:55:03.001Z</time></trkpt><trkpt lat="45.68773770396123" lon="9.3717866637813"><ele>245.0</ele><time>2026-04-25T09:55:04.001Z</time></trkpt><trkpt lat="45.687656171070515" lon="9.371605564691727"><ele>245.0</ele><time>2026-04-25T09:55:05.001Z</time></trkpt><trkpt lat="45.68757563670941" lon="9.371424884490306"><ele>245.0</ele><time>2026-04-25T09:55:06.001Z</time></trkpt><trkpt lat="45.68748982870454" lon="9.371238918631688"><ele>245.0</ele><time>2026-04-25T09:55:07.001Z</time></trkpt><trkpt lat="45.68740655654054" lon="9.371058120530511"><ele>247.0</ele><time>2026-04-25T09:55:08.001Z</time></trkpt><trkpt lat="45.68732526100992" lon="9.370877249641284"><ele>249.0</ele><time>2026-04-25T09:55:09.001Z</time></trkpt><trkpt lat="45.68724332854992" lon="9.37069386787642"><ele>251.0</ele><time>2026-04-25T09:55:10Z</time></trkpt><trkpt lat="45.68716263604896" lon="9.370517546879968"><ele>251.0</ele><time>2026-04-25T09:55:11Z</time></trkpt><trkpt lat="45.68707843114998" lon="9.370336072927996"><ele>251.0</ele><time>2026-04-25T09:55:12Z</time></trkpt><trkpt lat="45.6870015356304" lon="9.370126799913308"><ele>251.0</ele><time>2026-04-25T09:55:13Z</time></trkpt><trkpt lat="45.686904146638405" lon="9.369899342383444"><ele>250.0</ele><time>2026-04-25T09:55:14Z</time></trkpt><trkpt lat="45.68679919441693" lon="9.369651133019813"><ele>249.0</ele><time>2026-04-25T09:55:15Z</time></trkpt><trkpt lat="45.686679838989605" lon="9.369412705229404"><ele>248.0</ele><time>2026-04-25T09:55:16Z</time></trkpt><trkpt lat="45.686582976369245" lon="9.369163971086989"><ele>248.0</ele><time>2026-04-25T09:55:17Z</time></trkpt><trkpt lat="45.68648777201779" lon="9.368936863565416"><ele>248.0</ele><time>2026-04-25T09:55:18Z</time></trkpt><trkpt lat="45.68639294932254" lon="9.36872083744763"><ele>248.0</ele><time>2026-04-25T09:55:19Z</time></trkpt><trkpt lat="45.68631108342885" lon="9.36851869995793"><ele>248.2</ele><time>2026-04-25T09:55:20Z</time></trkpt><trkpt lat="45.68623624188462" lon="9.36834551943169"><ele>248.4</ele><time>2026-04-25T09:55:21Z</time></trkpt><trkpt lat="45.68617407062065" lon="9.36820500765747"><ele>248.59999999999997</ele><time>2026-04-25T09:55:22Z</time></trkpt><trkpt lat="45.68612573010946" lon="9.36809185575193"><ele>248.79999999999998</ele><time>2026-04-25T09:55:23Z</time></trkpt><trkpt lat="45.6860938092595" lon="9.368006404813388"><ele>249.0</ele><time>2026-04-25T09:55:24Z</time></trkpt><trkpt lat="45.686070560402214" lon="9.367909697945317"><ele>247.2</ele><time>2026-04-25T09:55:25Z</time></trkpt><trkpt lat="45.68605790006561" lon="9.36778395325925"><ele>245.39999999999998</ele><time>2026-04-25T09:55:26Z</time></trkpt><trkpt lat="45.68605558753298" lon="9.367643095216742"><ele>243.6</ele><time>2026-04-25T09:55:27Z</time></trkpt><trkpt lat="45.686052652511286" lon="9.36748613234467"><ele>241.8</ele><time>2026-04-25T09:55:28Z</time></trkpt><trkpt lat="45.68604906020952" lon="9.367330456537578"><ele>240.0</ele><time>2026-04-25T09:55:29Z</time></trkpt><trkpt lat="45.686044139733816" lon="9.367177334993467"><ele>240.0</ele><time>2026-04-25T09:55:30Z</time></trkpt><trkpt lat="45.68604007393328" lon="9.36704583198491"><ele>240.0</ele><time>2026-04-25T09:55:31Z</time></trkpt><trkpt lat="45.68602999706785" lon="9.366943690071638"><ele>240.0</ele><time>2026-04-25T09:55:32Z</time></trkpt><trkpt lat="45.68601992971327" lon="9.366849773476586"><ele>240.0</ele><time>2026-04-25T09:55:33Z</time></trkpt><trkpt lat="45.68586231876222" lon="9.366722762178997"><ele>240.0</ele><time>2026-04-25T09:55:35Z</time></trkpt><trkpt lat="45.685782707961316" lon="9.366638682578758"><ele>240.0</ele><time>2026-04-25T09:55:36Z</time></trkpt><trkpt lat="45.685690797894814" lon="9.366562509636216"><ele>240.0</ele><time>2026-04-25T09:55:37Z</time></trkpt><trkpt lat="45.68558209339581" lon="9.366493399575178"><ele>240.0</ele><time>2026-04-25T09:55:38Z</time></trkpt><trkpt lat="45.68546432892294" lon="9.3663899894456"><ele>240.0</ele><time>2026-04-25T09:55:39Z</time></trkpt><trkpt lat="45.685311086216174" lon="9.366338448056537"><ele>244.0</ele><time>2026-04-25T09:55:40Z</time></trkpt><trkpt lat="45.68514415986768" lon="9.36626769604454"><ele>248.0</ele><time>2026-04-25T09:55:41Z</time></trkpt><trkpt lat="45.68497199752352" lon="9.366188020687051"><ele>252.0</ele><time>2026-04-25T09:55:42Z</time></trkpt><trkpt lat="45.684813747463096" lon="9.366073337535308"><ele>252.0</ele><time>2026-04-25T09:55:43Z</time></trkpt><trkpt lat="45.68464740626249" lon="9.365995202551284"><ele>252.0</ele><time>2026-04-25T09:55:44Z</time></trkpt><trkpt lat="45.684489988184886" lon="9.365903611100917"><ele>252.0</ele><time>2026-04-25T09:55:45Z</time></trkpt><trkpt lat="45.68433532439259" lon="9.365856654627445"><ele>250.75</ele><time>2026-04-25T09:55:46Z</time></trkpt><trkpt lat="45.684184671367895" lon="9.365810790514663"><ele>249.5</ele><time>2026-04-25T09:55:47Z</time></trkpt><trkpt lat="45.68406664570745" lon="9.36577765990984"><ele>248.25</ele><time>2026-04-25T09:55:48Z</time></trkpt><trkpt lat="45.68396742712988" lon="9.365761670340133"><ele>247.0</ele><time>2026-04-25T09:55:49Z</time></trkpt><trkpt lat="45.683875802745135" lon="9.365701192626611"><ele>247.0</ele><time>2026-04-25T09:55:50Z</time></trkpt><trkpt lat="45.68377216178032" lon="9.365662564478134"><ele>247.0</ele><time>2026-04-25T09:55:51Z</time></trkpt><trkpt lat="45.68365919111523" lon="9.365626201652093"><ele>247.0</ele><time>2026-04-25T09:55:52Z</time></trkpt><trkpt lat="45.683540017383876" lon="9.365577669224537"><ele>247.0</ele><time>2026-04-25T09:55:53Z</time></trkpt><trkpt lat="45.683409942330485" lon="9.36553439881242"><ele>248.0</ele><time>2026-04-25T09:55:54Z</time></trkpt><trkpt lat="45.68327354309739" lon="9.365481125327936"><ele>249.0</ele><time>2026-04-25T09:55:55Z</time></trkpt><trkpt lat="45.68313118110312" lon="9.365417565535468"><ele>250.0</ele><time>2026-04-25T09:55:56Z</time></trkpt><trkpt lat="45.68298588189652" lon="9.365350901376779"><ele>251.0</ele><time>2026-04-25T09:55:57Z</time></trkpt><trkpt lat="45.68284159478997" lon="9.365283878124064"><ele>251.0</ele><time>2026-04-25T09:55:58Z</time></trkpt><trkpt lat="45.682714247522895" lon="9.36522590648384"><ele>251.0</ele><time>2026-04-25T09:55:59Z</time></trkpt><trkpt lat="45.6826060442423" lon="9.36518472418349"><ele>251.0</ele><time>2026-04-25T09:56:00Z</time></trkpt><trkpt lat="45.68249225254848" lon="9.365177062722081"><ele>251.0</ele><time>2026-04-25T09:56:01Z</time></trkpt><trkpt lat="45.68237025640781" lon="9.365199631605076"><ele>251.0</ele><time>2026-04-25T09:56:02Z</time></trkpt><trkpt lat="45.68223558466473" lon="9.365228163177946"><ele>251.0</ele><time>2026-04-25T09:56:03Z</time></trkpt><trkpt lat="45.6820884266408" lon="9.365223618673921"><ele>251.0</ele><time>2026-04-25T09:56:04Z</time></trkpt><trkpt lat="45.68193808968682" lon="9.36525207492507"><ele>251.0</ele><time>2026-04-25T09:56:05Z</time></trkpt><trkpt lat="45.681773244423084" lon="9.365266741734176"><ele>253.0</ele><time>2026-04-25T09:56:06Z</time></trkpt><trkpt lat="45.6816106694369" lon="9.365278401244952"><ele>255.0</ele><time>2026-04-25T09:56:07Z</time></trkpt><trkpt lat="45.68144459574638" lon="9.365251953495632"><ele>257.0</ele><time>2026-04-25T09:56:08Z</time></trkpt><trkpt lat="45.681269642670784" lon="9.365241582242797"><ele>256.0</ele><time>2026-04-25T09:56:09Z</time></trkpt><trkpt lat="45.68109473202144" lon="9.365234998113799"><ele>255.0</ele><time>2026-04-25T09:56:10Z</time></trkpt><trkpt lat="45.68092033370689" lon="9.365264150412974"><ele>254.0</ele><time>2026-04-25T09:56:11Z</time></trkpt><trkpt lat="45.6807560400746" lon="9.36527887573144"><ele>254.0</ele><time>2026-04-25T09:56:12Z</time></trkpt><trkpt lat="45.68059585679144" lon="9.365300281539033"><ele>254.0</ele><time>2026-04-25T09:56:13Z</time></trkpt><trkpt lat="45.68044708378535" lon="9.36530282316819"><ele>254.0</ele><time>2026-04-25T09:56:14Z</time></trkpt><trkpt lat="45.68030893334631" lon="9.365360445425464"><ele>253.25</ele><time>2026-04-25T09:56:15.001Z</time></trkpt><trkpt lat="45.680173541027955" lon="9.36541501177671"><ele>252.5</ele><time>2026-04-25T09:56:16.001Z</time></trkpt><trkpt lat="45.68004443159854" lon="9.365470773959395"><ele>251.75</ele><time>2026-04-25T09:56:17.001Z</time></trkpt><trkpt lat="45.67991651848344" lon="9.365544521702873"><ele>251.0</ele><time>2026-04-25T09:56:18.001Z</time></trkpt><trkpt lat="45.67978250563699" lon="9.365612321970374"><ele>251.0</ele><time>2026-04-25T09:56:19.001Z</time></trkpt><trkpt lat="45.67964099875927" lon="9.365686342512891"><ele>251.0</ele><time>2026-04-25T09:56:20.001Z</time></trkpt><trkpt lat="45.679501138556354" lon="9.36578235883003"><ele>251.0</ele><time>2026-04-25T09:56:21.001Z</time></trkpt><trkpt lat="45.679345106251816" lon="9.365861912428779"><ele>253.33333333333334</ele><time>2026-04-25T09:56:22.001Z</time></trkpt><trkpt lat="45.67918998818681" lon="9.365962549556539"><ele>255.66666666666669</ele><time>2026-04-25T09:56:23.001Z</time></trkpt><trkpt lat="45.6790296230791" lon="9.366066722161396"><ele>258.0</ele><time>2026-04-25T09:56:24.001Z</time></trkpt><trkpt lat="45.678867637891074" lon="9.366170175058304"><ele>258.0</ele><time>2026-04-25T09:56:25.001Z</time></trkpt><trkpt lat="45.678714015895466" lon="9.366263290158134"><ele>258.0</ele><time>2026-04-25T09:56:26.001Z</time></trkpt><trkpt lat="45.67857312439525" lon="9.366331118171926"><ele>258.0</ele><time>2026-04-25T09:56:27.001Z</time></trkpt><trkpt lat="45.6784417973614" lon="9.366350920310294"><ele>258.0</ele><time>2026-04-25T09:56:28.001Z</time></trkpt><trkpt lat="45.67830554792518" lon="9.366343426435154"><ele>259.3333333333333</ele><time>2026-04-25T09:56:29.001Z</time></trkpt><trkpt lat="45.678153345086756" lon="9.366328371083979"><ele>260.66666666666663</ele><time>2026-04-25T09:56:30.001Z</time></trkpt><trkpt lat="45.67799776652457" lon="9.366331118993157"><ele>262.0</ele><time>2026-04-25T09:56:31.001Z</time></trkpt><trkpt lat="45.67784358964648" lon="9.366301896931535"><ele>259.0</ele><time>2026-04-25T09:56:32.001Z</time></trkpt><trkpt lat="45.677699203097255" lon="9.36627773434107"><ele>256.0</ele><time>2026-04-25T09:56:33.001Z</time></trkpt><trkpt lat="45.67756662275571" lon="9.36626054997991"><ele>253.0</ele><time>2026-04-25T09:56:34.001Z</time></trkpt><trkpt lat="45.677440002052414" lon="9.366266288927756"><ele>250.0</ele><time>2026-04-25T09:56:35.001Z</time></trkpt><trkpt lat="45.67731646057648" lon="9.366299850498441"><ele>247.25</ele><time>2026-04-25T09:56:36.001Z</time></trkpt><trkpt lat="45.677189485063565" lon="9.366366823339309"><ele>244.5</ele><time>2026-04-25T09:56:37.001Z</time></trkpt><trkpt lat="45.67706375287718" lon="9.366436299103256"><ele>241.75</ele><time>2026-04-25T09:56:38.001Z</time></trkpt><trkpt lat="45.67692808166343" lon="9.366495650344621"><ele>239.0</ele><time>2026-04-25T09:56:39.001Z</time></trkpt><trkpt lat="45.67679852623887" lon="9.366566437602208"><ele>239.0</ele><time>2026-04-25T09:56:40.001Z</time></trkpt><trkpt lat="45.67666638529993" lon="9.36662568875291"><ele>239.0</ele><time>2026-04-25T09:56:41.001Z</time></trkpt><trkpt lat="45.67653499390021" lon="9.366634425811862"><ele>239.0</ele><time>2026-04-25T09:56:42.001Z</time></trkpt><trkpt lat="45.676401963759055" lon="9.366628035957152"><ele>239.0</ele><time>2026-04-25T09:56:43.001Z</time></trkpt><trkpt lat="45.67626417940913" lon="9.36658727588989"><ele>239.0</ele><time>2026-04-25T09:56:44.001Z</time></trkpt><trkpt lat="45.676123956425506" lon="9.366516469474982"><ele>239.0</ele><time>2026-04-25T09:56:45.001Z</time></trkpt><trkpt lat="45.675968567855435" lon="9.366457808520183"><ele>239.0</ele><time>2026-04-25T09:56:46.001Z</time></trkpt><trkpt lat="45.67581499898106" lon="9.366368724300639"><ele>242.66666666666669</ele><time>2026-04-25T09:56:47.001Z</time></trkpt><trkpt lat="45.675654616446366" lon="9.366278120179855"><ele>246.33333333333331</ele><time>2026-04-25T09:56:48.001Z</time></trkpt><trkpt lat="45.67549314361674" lon="9.366199408101487"><ele>250.0</ele><time>2026-04-25T09:56:49.001Z</time></trkpt><trkpt lat="45.67532088723359" lon="9.366117358060741"><ele>247.66666666666666</ele><time>2026-04-25T09:56:50.001Z</time></trkpt><trkpt lat="45.67514561638126" lon="9.366057292472032"><ele>245.33333333333331</ele><time>2026-04-25T09:56:51.001Z</time></trkpt><trkpt lat="45.67495587744453" lon="9.366016936250217"><ele>243.0</ele><time>2026-04-25T09:56:52.001Z</time></trkpt><trkpt lat="45.6747578152369" lon="9.365998886395305"><ele>243.0</ele><time>2026-04-25T09:56:53.001Z</time></trkpt><trkpt lat="45.67456218898692" lon="9.365987462402034"><ele>243.0</ele><time>2026-04-25T09:56:54.001Z</time></trkpt><trkpt lat="45.6743754114908" lon="9.365953032700533"><ele>243.0</ele><time>2026-04-25T09:56:55.001Z</time></trkpt><trkpt lat="45.674199472515184" lon="9.365938764535601"><ele>242.33333333333331</ele><time>2026-04-25T09:56:56.001Z</time></trkpt><trkpt lat="45.67403209936332" lon="9.36594197956847"><ele>241.66666666666666</ele><time>2026-04-25T09:56:57.001Z</time></trkpt><trkpt lat="45.67387712594366" lon="9.365927672323913"><ele>241.0</ele><time>2026-04-25T09:56:58.001Z</time></trkpt><trkpt lat="45.67373998122046" lon="9.36592082506538"><ele>239.75</ele><time>2026-04-25T09:56:59.001Z</time></trkpt><trkpt lat="45.67360333667913" lon="9.365933304302757"><ele>238.5</ele><time>2026-04-25T09:57:00.001Z</time></trkpt><trkpt lat="45.67346226767901" lon="9.365964450427155"><ele>237.25</ele><time>2026-04-25T09:57:01.001Z</time></trkpt><trkpt lat="45.67333435239068" lon="9.366008556301576"><ele>236.0</ele><time>2026-04-25T09:57:02.001Z</time></trkpt><trkpt lat="45.6732258872986" lon="9.366049941022233"><ele>236.00000000000003</ele><time>2026-04-25T09:57:03.001Z</time></trkpt><trkpt lat="45.6731404141314" lon="9.366079688642373"><ele>236.0</ele><time>2026-04-25T09:57:04.001Z</time></trkpt><trkpt lat="45.67306312813835" lon="9.366099821925385"><ele>236.0</ele><time>2026-04-25T09:57:05.001Z</time></trkpt><trkpt lat="45.67299646259599" lon="9.366105994069203"><ele>236.0</ele><time>2026-04-25T09:57:06.001Z</time></trkpt><trkpt lat="45.67289864130991" lon="9.36604133955145"><ele>236.00000000000003</ele><time>2026-04-25T09:57:08.001Z</time></trkpt><trkpt lat="45.67280879842552" lon="9.365961205797772"><ele>236.0</ele><time>2026-04-25T09:57:10.001Z</time></trkpt><trkpt lat="45.67274560709538" lon="9.36598976988532"><ele>235.33333333333334</ele><time>2026-04-25T09:57:11.001Z</time></trkpt><trkpt lat="45.6726908482811" lon="9.366042336172342"><ele>234.66666666666669</ele><time>2026-04-25T09:57:12.001Z</time></trkpt><trkpt lat="45.67263139921751" lon="9.366090204795283"><ele>234.0</ele><time>2026-04-25T09:57:13.001Z</time></trkpt><trkpt lat="45.67251245845547" lon="9.366160544092576"><ele>233.33333333333331</ele><time>2026-04-25T09:57:15.001Z</time></trkpt><trkpt lat="45.6724454824869" lon="9.366199539639524"><ele>232.66666666666666</ele><time>2026-04-25T09:57:16Z</time></trkpt><trkpt lat="45.67236963335351" lon="9.366252177980488"><ele>232.0</ele><time>2026-04-25T09:57:17Z</time></trkpt><trkpt lat="45.672288718623925" lon="9.366307314975067"><ele>232.0</ele><time>2026-04-25T09:57:18Z</time></trkpt><trkpt lat="45.6721989458769" lon="9.366369498823774"><ele>232.0</ele><time>2026-04-25T09:57:19Z</time></trkpt><trkpt lat="45.67210705249147" lon="9.366429726388736"><ele>232.0</ele><time>2026-04-25T09:57:20Z</time></trkpt><trkpt lat="45.672011276601154" lon="9.366485545654271"><ele>232.0</ele><time>2026-04-25T09:57:21Z</time></trkpt><trkpt lat="45.671912138224165" lon="9.366543578294493"><ele>232.0</ele><time>2026-04-25T09:57:22Z</time></trkpt><trkpt lat="45.67180949633749" lon="9.366605071829682"><ele>231.25</ele><time>2026-04-25T09:57:23Z</time></trkpt><trkpt lat="45.67170080459522" lon="9.366671344457504"><ele>230.5</ele><time>2026-04-25T09:57:24Z</time></trkpt><trkpt lat="45.671585115251716" lon="9.366741766269465"><ele>229.75</ele><time>2026-04-25T09:57:25Z</time></trkpt><trkpt lat="45.67146602249984" lon="9.366817171606822"><ele>229.0</ele><time>2026-04-25T09:57:26Z</time></trkpt><trkpt lat="45.671346436422766" lon="9.366905994813848"><ele>229.0</ele><time>2026-04-25T09:57:27Z</time></trkpt><trkpt lat="45.67123194346144" lon="9.367005656300076"><ele>229.0</ele><time>2026-04-25T09:57:28Z</time></trkpt><trkpt lat="45.67112957459604" lon="9.367105922471112"><ele>229.0</ele><time>2026-04-25T09:57:29Z</time></trkpt><trkpt lat="45.67103105555817" lon="9.367211388918696"><ele>229.0</ele><time>2026-04-25T09:57:30Z</time></trkpt><trkpt lat="45.67093764731206" lon="9.367310333264186"><ele>229.25</ele><time>2026-04-25T09:57:31Z</time></trkpt><trkpt lat="45.67083827087204" lon="9.367403754777005"><ele>229.5</ele><time>2026-04-25T09:57:32Z</time></trkpt><trkpt lat="45.67073764046362" lon="9.367497828777205"><ele>229.75</ele><time>2026-04-25T09:57:33Z</time></trkpt><trkpt lat="45.67064293770252" lon="9.367590527329542"><ele>230.0</ele><time>2026-04-25T09:57:34Z</time></trkpt><trkpt lat="45.67055108371118" lon="9.367677887000134"><ele>230.00000000000003</ele><time>2026-04-25T09:57:35Z</time></trkpt><trkpt lat="45.67047184645544" lon="9.367753325052533"><ele>230.0</ele><time>2026-04-25T09:57:36Z</time></trkpt><trkpt lat="45.670408820054135" lon="9.367820990430785"><ele>230.0</ele><time>2026-04-25T09:57:37Z</time></trkpt><trkpt lat="45.67035095732892" lon="9.36788348230815"><ele>230.0</ele><time>2026-04-25T09:57:38Z</time></trkpt><trkpt lat="45.670291854424754" lon="9.36794460652288"><ele>230.00000000000003</ele><time>2026-04-25T09:57:39Z</time></trkpt><trkpt lat="45.670202352927" lon="9.368038760470261"><ele>230.0</ele><time>2026-04-25T09:57:41Z</time></trkpt><trkpt lat="45.67013136476963" lon="9.368111511709387"><ele>230.16666666666669</ele><time>2026-04-25T09:57:43Z</time></trkpt><trkpt lat="45.670069665991306" lon="9.368169212372065"><ele>230.33333333333334</ele><time>2026-04-25T09:57:54Z</time></trkpt><trkpt lat="45.669986468698056" lon="9.368296996575138"><ele>230.5</ele><time>2026-04-25T09:57:56Z</time></trkpt><trkpt lat="45.66993831673426" lon="9.368383093126324"><ele>230.66666666666669</ele><time>2026-04-25T09:57:57Z</time></trkpt><trkpt lat="45.6698897516277" lon="9.368463232156254"><ele>230.83333333333334</ele><time>2026-04-25T09:57:58Z</time></trkpt><trkpt lat="45.66983937132357" lon="9.368540807578357"><ele>231.0</ele><time>2026-04-25T09:57:59Z</time></trkpt><trkpt lat="45.669788675585394" lon="9.368619820000267"><ele>231.0</ele><time>2026-04-25T09:58:00.001Z</time></trkpt><trkpt lat="45.66974356331869" lon="9.368708901656223"><ele>231.00000000000003</ele><time>2026-04-25T09:58:01.001Z</time></trkpt><trkpt lat="45.669704837731075" lon="9.368802538284143"><ele>231.00000000000003</ele><time>2026-04-25T09:58:02.001Z</time></trkpt><trkpt lat="45.669670410154644" lon="9.36889549355792"><ele>231.0</ele><time>2026-04-25T09:58:03.001Z</time></trkpt><trkpt lat="45.669616196258566" lon="9.36905040875973"><ele>231.0</ele><time>2026-04-25T09:58:05.001Z</time></trkpt><trkpt lat="45.669532637097234" lon="9.369156474573277"><ele>231.5</ele><time>2026-04-25T09:58:07.001Z</time></trkpt><trkpt lat="45.66947685882618" lon="9.369198445916014"><ele>232.0</ele><time>2026-04-25T09:58:08.001Z</time></trkpt><trkpt lat="45.669402101509434" lon="9.36922045369775"><ele>232.5</ele><time>2026-04-25T09:58:09.001Z</time></trkpt><trkpt lat="45.66931879979428" lon="9.369232254487716"><ele>233.0</ele><time>2026-04-25T09:58:10.001Z</time></trkpt><trkpt lat="45.66922317279822" lon="9.369237032378598"><ele>233.5</ele><time>2026-04-25T09:58:11.001Z</time></trkpt><trkpt lat="45.66911750970327" lon="9.369237420792425"><ele>234.0</ele><time>2026-04-25T09:58:12.001Z</time></trkpt><trkpt lat="45.669006390899746" lon="9.369233748913981"><ele>234.0</ele><time>2026-04-25T09:58:13.001Z</time></trkpt><trkpt lat="45.66888793896937" lon="9.36922420187698"><ele>234.0</ele><time>2026-04-25T09:58:14.001Z</time></trkpt><trkpt lat="45.66876631916079" lon="9.36921572877632"><ele>234.0</ele><time>2026-04-25T09:58:15.001Z</time></trkpt><trkpt lat="45.66864582258922" lon="9.369215312811022"><ele>234.0</ele><time>2026-04-25T09:58:16.001Z</time></trkpt><trkpt lat="45.66852271409751" lon="9.36922468868791"><ele>234.0</ele><time>2026-04-25T09:58:17.001Z</time></trkpt><trkpt lat="45.66840033192026" lon="9.369253481592454"><ele>234.0</ele><time>2026-04-25T09:58:18.001Z</time></trkpt><trkpt lat="45.66827978658774" lon="9.369318101903795"><ele>234.0</ele><time>2026-04-25T09:58:19.001Z</time></trkpt><trkpt lat="45.66816340055221" lon="9.369413026794664"><ele>234.0</ele><time>2026-04-25T09:58:20.001Z</time></trkpt><trkpt lat="45.6680480715997" lon="9.369512569871285"><ele>234.0</ele><time>2026-04-25T09:58:21.001Z</time></trkpt><trkpt lat="45.66792584434841" lon="9.369597798124545"><ele>234.0</ele><time>2026-04-25T09:58:22.001Z</time></trkpt><trkpt lat="45.66779411563605" lon="9.369653879940582"><ele>234.0</ele><time>2026-04-25T09:58:23.001Z</time></trkpt><trkpt lat="45.66765314394316" lon="9.36966632810404"><ele>234.0</ele><time>2026-04-25T09:58:24.001Z</time></trkpt><trkpt lat="45.66751202484599" lon="9.369637549332483"><ele>233.66666666666669</ele><time>2026-04-25T09:58:25.001Z</time></trkpt><trkpt lat="45.66737252482384" lon="9.369571398840963"><ele>233.33333333333334</ele><time>2026-04-25T09:58:26.001Z</time></trkpt><trkpt lat="45.66722960647639" lon="9.36949059158941"><ele>233.0</ele><time>2026-04-25T09:58:27.001Z</time></trkpt><trkpt lat="45.66708664093868" lon="9.36941752792989"><ele>233.66666666666669</ele><time>2026-04-25T09:58:28.001Z</time></trkpt><trkpt lat="45.66693440916437" lon="9.369348330047728"><ele>234.33333333333331</ele><time>2026-04-25T09:58:29.001Z</time></trkpt><trkpt lat="45.66678434358949" lon="9.369279061677124"><ele>235.0</ele><time>2026-04-25T09:58:30.001Z</time></trkpt><trkpt lat="45.66663413550416" lon="9.36920746046112"><ele>235.0</ele><time>2026-04-25T09:58:31.001Z</time></trkpt><trkpt lat="45.66648094948255" lon="9.369133077747028"><ele>235.0</ele><time>2026-04-25T09:58:32.001Z</time></trkpt><trkpt lat="45.66633187243322" lon="9.369057795398938"><ele>235.0</ele><time>2026-04-25T09:58:33.001Z</time></trkpt><trkpt lat="45.6661833563539" lon="9.368987901319286"><ele>235.33333333333331</ele><time>2026-04-25T09:58:34.001Z</time></trkpt><trkpt lat="45.666033646929236" lon="9.368929746296974"><ele>235.66666666666669</ele><time>2026-04-25T09:58:35.001Z</time></trkpt><trkpt lat="45.66588661982438" lon="9.368898843784287"><ele>236.0</ele><time>2026-04-25T09:58:36.001Z</time></trkpt><trkpt lat="45.66573459841805" lon="9.36891440667985"><ele>236.0</ele><time>2026-04-25T09:58:37.001Z</time></trkpt><trkpt lat="45.665578260026926" lon="9.368978648386314"><ele>236.0</ele><time>2026-04-25T09:58:38.001Z</time></trkpt><trkpt lat="45.665427270498974" lon="9.369062107906903"><ele>236.0</ele><time>2026-04-25T09:58:39.001Z</time></trkpt><trkpt lat="45.665267907610406" lon="9.369105977403862"><ele>234.66666666666669</ele><time>2026-04-25T09:58:40.001Z</time></trkpt><trkpt lat="45.66510386134705" lon="9.36912604465177"><ele>233.33333333333331</ele><time>2026-04-25T09:58:41.001Z</time></trkpt><trkpt lat="45.66492998822003" lon="9.369156987037872"><ele>232.0</ele><time>2026-04-25T09:58:42.001Z</time></trkpt><trkpt lat="45.664751853561434" lon="9.369159388080536"><ele>232.0</ele><time>2026-04-25T09:58:43.001Z</time></trkpt><trkpt lat="45.66457393326538" lon="9.369169435046633"><ele>232.0</ele><time>2026-04-25T09:58:44.001Z</time></trkpt><trkpt lat="45.66438765141551" lon="9.36918076302103"><ele>232.0</ele><time>2026-04-25T09:58:45.001Z</time></trkpt><trkpt lat="45.66419688007166" lon="9.369188760499071"><ele>231.66666666666666</ele><time>2026-04-25T09:58:46.001Z</time></trkpt><trkpt lat="45.66400040037643" lon="9.369198019288632"><ele>231.33333333333331</ele><time>2026-04-25T09:58:47.001Z</time></trkpt><trkpt lat="45.663804374006155" lon="9.369206173810499"><ele>231.0</ele><time>2026-04-25T09:58:48.001Z</time></trkpt><trkpt lat="45.66361849520374" lon="9.36921477809501"><ele>229.33333333333331</ele><time>2026-04-25T09:58:49.001Z</time></trkpt><trkpt lat="45.663441468043935" lon="9.369232107585251"><ele>227.66666666666666</ele><time>2026-04-25T09:58:50.001Z</time></trkpt><trkpt lat="45.66327108763881" lon="9.369261759205763"><ele>226.0</ele><time>2026-04-25T09:58:51.001Z</time></trkpt><trkpt lat="45.663094016993476" lon="9.369303723033243"><ele>226.0</ele><time>2026-04-25T09:58:52.001Z</time></trkpt><trkpt lat="45.662918808922925" lon="9.369346073524571"><ele>226.0</ele><time>2026-04-25T09:58:53.001Z</time></trkpt><trkpt lat="45.66274558512407" lon="9.369385622974201"><ele>226.0</ele><time>2026-04-25T09:58:54.001Z</time></trkpt><trkpt lat="45.66257273121429" lon="9.36941630275628"><ele>225.33333333333331</ele><time>2026-04-25T09:58:55.001Z</time></trkpt><trkpt lat="45.662408104112714" lon="9.369435029826855"><ele>224.66666666666669</ele><time>2026-04-25T09:58:56.001Z</time></trkpt><trkpt lat="45.662244539459074" lon="9.369443193428184"><ele>224.0</ele><time>2026-04-25T09:58:57.001Z</time></trkpt><trkpt lat="45.66207700607078" lon="9.369428004334658"><ele>225.0</ele><time>2026-04-25T09:58:58.001Z</time></trkpt><trkpt lat="45.661910622025424" lon="9.369378449275361"><ele>226.0</ele><time>2026-04-25T09:58:59.001Z</time></trkpt><trkpt lat="45.66174572086306" lon="9.369315377232722"><ele>227.0</ele><time>2026-04-25T09:59:00.001Z</time></trkpt><trkpt lat="45.66157360883599" lon="9.369246025972572"><ele>227.0</ele><time>2026-04-25T09:59:01.001Z</time></trkpt><trkpt lat="45.6614087068018" lon="9.36917761296676"><ele>227.0</ele><time>2026-04-25T09:59:02.001Z</time></trkpt><trkpt lat="45.661251960349176" lon="9.369113997634747"><ele>227.0</ele><time>2026-04-25T09:59:03.001Z</time></trkpt><trkpt lat="45.661092699715745" lon="9.369057730301524"><ele>227.66666666666669</ele><time>2026-04-25T09:59:04.001Z</time></trkpt><trkpt lat="45.660937661832996" lon="9.369026036082463"><ele>228.33333333333331</ele><time>2026-04-25T09:59:05.001Z</time></trkpt><trkpt lat="45.66077787971028" lon="9.36901776918947"><ele>229.0</ele><time>2026-04-25T09:59:06.001Z</time></trkpt><trkpt lat="45.6606152097348" lon="9.369031263240787"><ele>229.0</ele><time>2026-04-25T09:59:07.001Z</time></trkpt><trkpt lat="45.66045108187479" lon="9.369057622108409"><ele>229.0</ele><time>2026-04-25T09:59:08.001Z</time></trkpt><trkpt lat="45.66028562117024" lon="9.369093101797322"><ele>229.0</ele><time>2026-04-25T09:59:09.001Z</time></trkpt><trkpt lat="45.66011811872695" lon="9.369128931218512"><ele>228.33333333333331</ele><time>2026-04-25T09:59:10.001Z</time></trkpt><trkpt lat="45.65994611955527" lon="9.369164230658146"><ele>227.66666666666669</ele><time>2026-04-25T09:59:11.001Z</time></trkpt><trkpt lat="45.6597766652047" lon="9.369193338075283"><ele>227.0</ele><time>2026-04-25T09:59:12.001Z</time></trkpt><trkpt lat="45.659605132858786" lon="9.36922755974957"><ele>226.66666666666669</ele><time>2026-04-25T09:59:13.001Z</time></trkpt><trkpt lat="45.65943294925666" lon="9.369265335316012"><ele>226.33333333333331</ele><time>2026-04-25T09:59:14.001Z</time></trkpt><trkpt lat="45.65927160872803" lon="9.369294314462667"><ele>226.0</ele><time>2026-04-25T09:59:15.001Z</time></trkpt><trkpt lat="45.659114696666" lon="9.369302907990173"><ele>226.0</ele><time>2026-04-25T09:59:16.001Z</time></trkpt><trkpt lat="45.65895808194337" lon="9.369277440392707"><ele>226.0</ele><time>2026-04-25T09:59:17.002Z</time></trkpt><trkpt lat="45.65880238698968" lon="9.36921352898584"><ele>226.0</ele><time>2026-04-25T09:59:18.002Z</time></trkpt><trkpt lat="45.658646134798836" lon="9.369122002779417"><ele>224.66666666666666</ele><time>2026-04-25T09:59:19.002Z</time></trkpt><trkpt lat="45.65849094018742" lon="9.36901868733525"><ele>223.33333333333331</ele><time>2026-04-25T09:59:20.002Z</time></trkpt><trkpt lat="45.65833490259798" lon="9.368914219374629"><ele>222.0</ele><time>2026-04-25T09:59:21.002Z</time></trkpt><trkpt lat="45.65816856641368" lon="9.36881100952556"><ele>221.66666666666669</ele><time>2026-04-25T09:59:22.001Z</time></trkpt><trkpt lat="45.6579953741703" lon="9.368704648567649"><ele>221.33333333333334</ele><time>2026-04-25T09:59:23.001Z</time></trkpt><trkpt lat="45.657821258456615" lon="9.368593126836245"><ele>221.0</ele><time>2026-04-25T09:59:24.001Z</time></trkpt><trkpt lat="45.65764642841998" lon="9.36847775331393"><ele>221.0</ele><time>2026-04-25T09:59:25.001Z</time></trkpt><trkpt lat="45.65747686424392" lon="9.368372688139951"><ele>221.0</ele><time>2026-04-25T09:59:26.001Z</time></trkpt><trkpt lat="45.657317506774795" lon="9.368269231838138"><ele>221.0</ele><time>2026-04-25T09:59:27.001Z</time></trkpt><trkpt lat="45.657163352368286" lon="9.368176330389646"><ele>221.0</ele><time>2026-04-25T09:59:28.001Z</time></trkpt><trkpt lat="45.65701286779038" lon="9.36808525966217"><ele>221.0</ele><time>2026-04-25T09:59:29.001Z</time></trkpt><trkpt lat="45.65686753651798" lon="9.367998979894288"><ele>221.0</ele><time>2026-04-25T09:59:30.001Z</time></trkpt><trkpt lat="45.65672772302643" lon="9.367926013650912"><ele>220.5</ele><time>2026-04-25T09:59:31.001Z</time></trkpt><trkpt lat="45.6565869256976" lon="9.36785850933646"><ele>220.0</ele><time>2026-04-25T09:59:32.001Z</time></trkpt><trkpt lat="45.65644600543629" lon="9.367807788195437"><ele>219.5</ele><time>2026-04-25T09:59:33.001Z</time></trkpt><trkpt lat="45.656309485538216" lon="9.36776102892416"><ele>219.0</ele><time>2026-04-25T09:59:34.001Z</time></trkpt><trkpt lat="45.656181466034276" lon="9.367716205211801"><ele>219.0</ele><time>2026-04-25T09:59:35.001Z</time></trkpt><trkpt lat="45.65605069888796" lon="9.367664700376888"><ele>219.0</ele><time>2026-04-25T09:59:36.001Z</time></trkpt><trkpt lat="45.6559186843454" lon="9.367616551084234"><ele>219.0</ele><time>2026-04-25T09:59:37.001Z</time></trkpt><trkpt lat="45.65578383099799" lon="9.367568767946437"><ele>219.0</ele><time>2026-04-25T09:59:38.001Z</time></trkpt><trkpt lat="45.65564545972256" lon="9.367524142784875"><ele>219.0</ele><time>2026-04-25T09:59:39.001Z</time></trkpt><trkpt lat="45.65550621465931" lon="9.367475350313397"><ele>219.0</ele><time>2026-04-25T09:59:40.001Z</time></trkpt><trkpt lat="45.65536620652848" lon="9.367423519303406"><ele>219.0</ele><time>2026-04-25T09:59:41.001Z</time></trkpt><trkpt lat="45.65521984258443" lon="9.367367362284329"><ele>219.0</ele><time>2026-04-25T09:59:42.001Z</time></trkpt><trkpt lat="45.65506891466804" lon="9.367313313478695"><ele>219.0</ele><time>2026-04-25T09:59:43.001Z</time></trkpt><trkpt lat="45.654917178385496" lon="9.367256786328655"><ele>219.0</ele><time>2026-04-25T09:59:44.001Z</time></trkpt><trkpt lat="45.65476826628956" lon="9.367201780997803"><ele>219.0</ele><time>2026-04-25T09:59:45.001Z</time></trkpt><trkpt lat="45.654631508602876" lon="9.367155997158106"><ele>219.0</ele><time>2026-04-25T09:59:46.001Z</time></trkpt><trkpt lat="45.654511063944355" lon="9.367109077131436"><ele>218.99999999999997</ele><time>2026-04-25T09:59:47.001Z</time></trkpt><trkpt lat="45.65440388113293" lon="9.367070679044973"><ele>218.99999999999997</ele><time>2026-04-25T09:59:48.001Z</time></trkpt><trkpt lat="45.65429594199745" lon="9.367037014418166"><ele>219.0</ele><time>2026-04-25T09:59:49.001Z</time></trkpt><trkpt lat="45.65421044995422" lon="9.367002518925746"><ele>219.0</ele><time>2026-04-25T09:59:50.001Z</time></trkpt><trkpt lat="45.654139136995035" lon="9.366997956577235"><ele>219.16666666666666</ele><time>2026-04-25T09:59:51.001Z</time></trkpt><trkpt lat="45.65402128507455" lon="9.366931955990788"><ele>219.33333333333331</ele><time>2026-04-25T09:59:52.001Z</time></trkpt><trkpt lat="45.65395154558676" lon="9.366885058357132"><ele>219.5</ele><time>2026-04-25T09:59:53.001Z</time></trkpt><trkpt lat="45.65389906675169" lon="9.366817486984372"><ele>219.66666666666666</ele><time>2026-04-25T09:59:54.001Z</time></trkpt><trkpt lat="45.65386034480876" lon="9.366739137742218"><ele>219.83333333333331</ele><time>2026-04-25T09:59:55.001Z</time></trkpt><trkpt lat="45.65382879528786" lon="9.366647655619417"><ele>220.0</ele><time>2026-04-25T09:59:56.001Z</time></trkpt><trkpt lat="45.653784132455314" lon="9.3665592025106"><ele>220.0</ele><time>2026-04-25T09:59:57.001Z</time></trkpt><trkpt lat="45.653715874958955" lon="9.366504841870547"><ele>220.0</ele><time>2026-04-25T09:59:58.001Z</time></trkpt><trkpt lat="45.65362297426123" lon="9.366488591897578"><ele>220.0</ele><time>2026-04-25T09:59:59.001Z</time></trkpt><trkpt lat="45.65353807898218" lon="9.366559699659856"><ele>220.0</ele><time>2026-04-25T10:00:00.001Z</time></trkpt><trkpt lat="45.653431590671524" lon="9.366437668334283"><ele>220.0</ele><time>2026-04-25T10:00:01.001Z</time></trkpt><trkpt lat="45.65336589409322" lon="9.36631988390092"><ele>219.0</ele><time>2026-04-25T10:00:02.001Z</time></trkpt><trkpt lat="45.6532792659947" lon="9.366214614807523"><ele>218.0</ele><time>2026-04-25T10:00:03.001Z</time></trkpt><trkpt lat="45.65320596431303" lon="9.366078385282782"><ele>217.0</ele><time>2026-04-25T10:00:04.001Z</time></trkpt><trkpt lat="45.65312026844648" lon="9.365952695455897"><ele>216.0</ele><time>2026-04-25T10:00:05.001Z</time></trkpt><trkpt lat="45.65302792406717" lon="9.365815665695523"><ele>216.0</ele><time>2026-04-25T10:00:06.001Z</time></trkpt><trkpt lat="45.65293566218489" lon="9.365683755481918"><ele>216.00000000000003</ele><time>2026-04-25T10:00:07.001Z</time></trkpt><trkpt lat="45.65285325660196" lon="9.36556894655703"><ele>216.00000000000003</ele><time>2026-04-25T10:00:08.001Z</time></trkpt><trkpt lat="45.652786423887896" lon="9.365471051786788"><ele>216.0</ele><time>2026-04-25T10:00:09.001Z</time></trkpt><trkpt lat="45.65273596092916" lon="9.36538622015679"><ele>216.0</ele><time>2026-04-25T10:00:10.001Z</time></trkpt><trkpt lat="45.652688331405805" lon="9.36531093698949"><ele>216.16666666666666</ele><time>2026-04-25T10:00:12.001Z</time></trkpt><trkpt lat="45.65263958393968" lon="9.36525277877938"><ele>216.33333333333331</ele><time>2026-04-25T10:00:48.001Z</time></trkpt><trkpt lat="45.65258769553823" lon="9.365179288037123"><ele>216.5</ele><time>2026-04-25T10:00:49.001Z</time></trkpt><trkpt lat="45.652529684840225" lon="9.365093615242502"><ele>216.66666666666666</ele><time>2026-04-25T10:00:50.001Z</time></trkpt><trkpt lat="45.652463980055785" lon="9.365000390265847"><ele>216.83333333333331</ele><time>2026-04-25T10:00:51.001Z</time></trkpt><trkpt lat="45.65238867561121" lon="9.364898026501903"><ele>217.0</ele><time>2026-04-25T10:00:52.001Z</time></trkpt><trkpt lat="45.65230974740607" lon="9.36478975519281"><ele>217.0</ele><time>2026-04-25T10:00:53.001Z</time></trkpt><trkpt lat="45.65222805122889" lon="9.364673821910477"><ele>217.0</ele><time>2026-04-25T10:00:54.001Z</time></trkpt><trkpt lat="45.652144661355905" lon="9.364548514867549"><ele>217.0</ele><time>2026-04-25T10:00:55.001Z</time></trkpt><trkpt lat="45.65205967977308" lon="9.364421562461782"><ele>217.0</ele><time>2026-04-25T10:00:56.001Z</time></trkpt><trkpt lat="45.651981438589075" lon="9.364309418373212"><ele>217.6</ele><time>2026-04-25T10:00:57.001Z</time></trkpt><trkpt lat="45.65190305679682" lon="9.364199147948545"><ele>218.2</ele><time>2026-04-25T10:00:58.001Z</time></trkpt><trkpt lat="45.65182270438413" lon="9.36408750769214"><ele>218.8</ele><time>2026-04-25T10:00:59.001Z</time></trkpt><trkpt lat="45.65174447635313" lon="9.36396589685487"><ele>219.4</ele><time>2026-04-25T10:01:00.001Z</time></trkpt><trkpt lat="45.65166966512981" lon="9.363846917890667"><ele>220.0</ele><time>2026-04-25T10:01:01.001Z</time></trkpt><trkpt lat="45.651596567745926" lon="9.363722441784304"><ele>220.0</ele><time>2026-04-25T10:01:02.001Z</time></trkpt><trkpt lat="45.65152278130547" lon="9.363594764018952"><ele>220.0</ele><time>2026-04-25T10:01:03.001Z</time></trkpt><trkpt lat="45.65144849595013" lon="9.36346564823404"><ele>220.0</ele><time>2026-04-25T10:01:04.001Z</time></trkpt><trkpt lat="45.65137989115913" lon="9.363353870971359"><ele>220.0</ele><time>2026-04-25T10:01:05.001Z</time></trkpt><trkpt lat="45.65131521681963" lon="9.363243609582296"><ele>220.0</ele><time>2026-04-25T10:01:06.001Z</time></trkpt><trkpt lat="45.65125764147192" lon="9.363138382900164"><ele>219.99999999999997</ele><time>2026-04-25T10:01:07.001Z</time></trkpt><trkpt lat="45.651204926527626" lon="9.363046310007768"><ele>220.0</ele><time>2026-04-25T10:01:08.001Z</time></trkpt><trkpt lat="45.65115749246806" lon="9.362967124633194"><ele>220.0</ele><time>2026-04-25T10:01:09.001Z</time></trkpt><trkpt lat="45.651099857811865" lon="9.362861039156792"><ele>220.0</ele><time>2026-04-25T10:01:11.001Z</time></trkpt><trkpt lat="45.651023834002814" lon="9.362744695460682"><ele>219.99999999999997</ele><time>2026-04-25T10:01:51.001Z</time></trkpt><trkpt lat="45.65097599819514" lon="9.362663197456108"><ele>220.0</ele><time>2026-04-25T10:01:52.001Z</time></trkpt><trkpt lat="45.65092277822271" lon="9.362568516108512"><ele>220.75</ele><time>2026-04-25T10:01:53.001Z</time></trkpt><trkpt lat="45.65086251024756" lon="9.3624531532657"><ele>221.5</ele><time>2026-04-25T10:01:54.001Z</time></trkpt><trkpt lat="45.650802414804964" lon="9.362319358737304"><ele>222.25</ele><time>2026-04-25T10:01:55.001Z</time></trkpt><trkpt lat="45.65074036954336" lon="9.362176161994622"><ele>223.0</ele><time>2026-04-25T10:01:56.001Z</time></trkpt><trkpt lat="45.65067662418016" lon="9.362025990366828"><ele>223.0</ele><time>2026-04-25T10:01:57.001Z</time></trkpt><trkpt lat="45.65061246395317" lon="9.361863552351387"><ele>223.0</ele><time>2026-04-25T10:01:58.001Z</time></trkpt><trkpt lat="45.65055250968734" lon="9.36168701743963"><ele>223.0</ele><time>2026-04-25T10:01:59.001Z</time></trkpt><trkpt lat="45.6504944633468" lon="9.361494813844153"><ele>223.0</ele><time>2026-04-25T10:02:00.001Z</time></trkpt><trkpt lat="45.65043854099962" lon="9.361291101374828"><ele>222.33333333333331</ele><time>2026-04-25T10:02:01.001Z</time></trkpt><trkpt lat="45.650382583212675" lon="9.361085846996014"><ele>221.66666666666669</ele><time>2026-04-25T10:02:02.001Z</time></trkpt><trkpt lat="45.650320595111005" lon="9.360876014946578"><ele>221.0</ele><time>2026-04-25T10:02:03.001Z</time></trkpt><trkpt lat="45.65025686856603" lon="9.360658781859561"><ele>220.66666666666669</ele><time>2026-04-25T10:02:04.001Z</time></trkpt><trkpt lat="45.6501922109618" lon="9.360429691466527"><ele>220.33333333333331</ele><time>2026-04-25T10:02:05.001Z</time></trkpt><trkpt lat="45.65013283887261" lon="9.36022160623851"><ele>220.0</ele><time>2026-04-25T10:02:06.001Z</time></trkpt><trkpt lat="45.65007931827639" lon="9.360014477265263"><ele>220.0</ele><time>2026-04-25T10:02:07.001Z</time></trkpt><trkpt lat="45.65002291869008" lon="9.35981989327129"><ele>220.0</ele><time>2026-04-25T10:02:08.001Z</time></trkpt><trkpt lat="45.64996903563945" lon="9.359634383791144"><ele>220.0</ele><time>2026-04-25T10:02:09.001Z</time></trkpt><trkpt lat="45.649916652688844" lon="9.359454570198476"><ele>220.0</ele><time>2026-04-25T10:02:10.001Z</time></trkpt><trkpt lat="45.64986658791213" lon="9.359284613529528"><ele>219.5</ele><time>2026-04-25T10:02:11.001Z</time></trkpt><trkpt lat="45.6498201099972" lon="9.359128245219553"><ele>219.0</ele><time>2026-04-25T10:02:12.001Z</time></trkpt><trkpt lat="45.649774329036546" lon="9.358987667955475"><ele>218.5</ele><time>2026-04-25T10:02:13.001Z</time></trkpt><trkpt lat="45.64972826719063" lon="9.358845281227081"><ele>218.0</ele><time>2026-04-25T10:02:14.001Z</time></trkpt><trkpt lat="45.64967159705339" lon="9.358703423833804"><ele>218.0</ele><time>2026-04-25T10:02:15.001Z</time></trkpt><trkpt lat="45.6496101918289" lon="9.358547775698002"><ele>218.0</ele><time>2026-04-25T10:02:16.001Z</time></trkpt><trkpt lat="45.649552956099136" lon="9.358382373598431"><ele>218.0</ele><time>2026-04-25T10:02:17.001Z</time></trkpt><trkpt lat="45.64949803606473" lon="9.35820734170734"><ele>218.0</ele><time>2026-04-25T10:02:18.001Z</time></trkpt><trkpt lat="45.64944323039847" lon="9.358020671990438"><ele>217.33333333333334</ele><time>2026-04-25T10:02:19.001Z</time></trkpt><trkpt lat="45.649377606025865" lon="9.357817171974022"><ele>216.66666666666669</ele><time>2026-04-25T10:02:20.001Z</time></trkpt><trkpt lat="45.64930967119109" lon="9.35761852048117"><ele>216.0</ele><time>2026-04-25T10:02:21.001Z</time></trkpt><trkpt lat="45.649234786920495" lon="9.357417610033586"><ele>216.0</ele><time>2026-04-25T10:02:22.001Z</time></trkpt><trkpt lat="45.64915842400544" lon="9.357218324675669"><ele>216.0</ele><time>2026-04-25T10:02:23.001Z</time></trkpt><trkpt lat="45.64908564120372" lon="9.357020920037673"><ele>216.0</ele><time>2026-04-25T10:02:24.001Z</time></trkpt><trkpt lat="45.64901708865168" lon="9.356835420784915"><ele>216.0</ele><time>2026-04-25T10:02:25.001Z</time></trkpt><trkpt lat="45.64894455394545" lon="9.356643577533447"><ele>216.0</ele><time>2026-04-25T10:02:26.001Z</time></trkpt><trkpt lat="45.64886862185074" lon="9.356451344953564"><ele>216.0</ele><time>2026-04-25T10:02:27.001Z</time></trkpt><trkpt lat="45.648786553580905" lon="9.356262271672959"><ele>216.0</ele><time>2026-04-25T10:02:28.001Z</time></trkpt><trkpt lat="45.64869973227178" lon="9.356076664587555"><ele>216.0</ele><time>2026-04-25T10:02:29.001Z</time></trkpt><trkpt lat="45.648614979329146" lon="9.355902727189848"><ele>216.0</ele><time>2026-04-25T10:02:30.001Z</time></trkpt><trkpt lat="45.64851768970075" lon="9.355721519516436"><ele>216.0</ele><time>2026-04-25T10:02:31.001Z</time></trkpt><trkpt lat="45.648416258793745" lon="9.355540763875972"><ele>216.0</ele><time>2026-04-25T10:02:32.001Z</time></trkpt><trkpt lat="45.648310383722226" lon="9.355363691919774"><ele>216.0</ele><time>2026-04-25T10:02:33.001Z</time></trkpt><trkpt lat="45.64819687077571" lon="9.355181553958113"><ele>216.0</ele><time>2026-04-25T10:02:34.001Z</time></trkpt><trkpt lat="45.64807917137575" lon="9.355003642688745"><ele>216.0</ele><time>2026-04-25T10:02:35.001Z</time></trkpt><trkpt lat="45.647950728790214" lon="9.35482688144557"><ele>216.0</ele><time>2026-04-25T10:02:36.001Z</time></trkpt><trkpt lat="45.64781916267422" lon="9.354654865553224"><ele>216.33333333333331</ele><time>2026-04-25T10:02:37.001Z</time></trkpt><trkpt lat="45.64767764357931" lon="9.354485777141566"><ele>216.66666666666666</ele><time>2026-04-25T10:02:38.001Z</time></trkpt><trkpt lat="45.64752296955134" lon="9.354311036555156"><ele>217.0</ele><time>2026-04-25T10:02:39.001Z</time></trkpt><trkpt lat="45.64735935792979" lon="9.354136459828569"><ele>217.0</ele><time>2026-04-25T10:02:40.001Z</time></trkpt><trkpt lat="45.647188332615464" lon="9.353959154338417"><ele>217.0</ele><time>2026-04-25T10:02:41.001Z</time></trkpt><trkpt lat="45.64701538486486" lon="9.353781451448205"><ele>217.0</ele><time>2026-04-25T10:02:42.001Z</time></trkpt><trkpt lat="45.64683462843163" lon="9.35359154611665"><ele>216.0</ele><time>2026-04-25T10:02:43.001Z</time></trkpt><trkpt lat="45.64665418496214" lon="9.35340359314286"><ele>215.0</ele><time>2026-04-25T10:02:44.001Z</time></trkpt><trkpt lat="45.64646879208865" lon="9.353206087535124"><ele>214.66666666666669</ele><time>2026-04-25T10:02:45.001Z</time></trkpt><trkpt lat="45.64628877536618" lon="9.353019987735895"><ele>214.33333333333331</ele><time>2026-04-25T10:02:46.001Z</time></trkpt><trkpt lat="45.646114438616905" lon="9.352836569509375"><ele>214.0</ele><time>2026-04-25T10:02:47.001Z</time></trkpt><trkpt lat="45.64593849146306" lon="9.352653595248361"><ele>214.0</ele><time>2026-04-25T10:02:48.001Z</time></trkpt><trkpt lat="45.64576975457489" lon="9.352476871026395"><ele>214.0</ele><time>2026-04-25T10:02:49.001Z</time></trkpt><trkpt lat="45.645598367269216" lon="9.352300193865792"><ele>214.0</ele><time>2026-04-25T10:02:50.001Z</time></trkpt><trkpt lat="45.64542068681522" lon="9.352113508655487"><ele>214.0</ele><time>2026-04-25T10:02:51.001Z</time></trkpt><trkpt lat="45.6452377028014" lon="9.351921273442404"><ele>214.0</ele><time>2026-04-25T10:02:52.001Z</time></trkpt><trkpt lat="45.64505429958393" lon="9.351728771564957"><ele>214.0</ele><time>2026-04-25T10:02:53.001Z</time></trkpt><trkpt lat="45.644875186126086" lon="9.351538183627163"><ele>214.0</ele><time>2026-04-25T10:02:54.001Z</time></trkpt><trkpt lat="45.64470323275593" lon="9.351343720150215"><ele>214.0</ele><time>2026-04-25T10:02:55.001Z</time></trkpt><trkpt lat="45.64454280435275" lon="9.35116119594112"><ele>214.0</ele><time>2026-04-25T10:02:56.001Z</time></trkpt><trkpt lat="45.64438549197986" lon="9.350974164087125"><ele>214.0</ele><time>2026-04-25T10:02:57.001Z</time></trkpt><trkpt lat="45.644234788237775" lon="9.350780767119295"><ele>214.0</ele><time>2026-04-25T10:02:58.001Z</time></trkpt><trkpt lat="45.64408971191598" lon="9.350574838763231"><ele>213.66666666666666</ele><time>2026-04-25T10:02:59.001Z</time></trkpt><trkpt lat="45.643950349870046" lon="9.35035367929679"><ele>213.33333333333331</ele><time>2026-04-25T10:03:00.001Z</time></trkpt><trkpt lat="45.643819884160145" lon="9.350136966020258"><ele>213.0</ele><time>2026-04-25T10:03:01.001Z</time></trkpt><trkpt lat="45.64368549739833" lon="9.349893383481403"><ele>212.0</ele><time>2026-04-25T10:03:02.001Z</time></trkpt><trkpt lat="45.64355982573789" lon="9.34964856827801"><ele>211.0</ele><time>2026-04-25T10:03:03.001Z</time></trkpt><trkpt lat="45.64344177393392" lon="9.349391935750862"><ele>210.0</ele><time>2026-04-25T10:03:04.001Z</time></trkpt><trkpt lat="45.64332890621541" lon="9.349133514335904"><ele>210.0</ele><time>2026-04-25T10:03:05.001Z</time></trkpt><trkpt lat="45.64322081522358" lon="9.348883357044372"><ele>210.0</ele><time>2026-04-25T10:03:06.001Z</time></trkpt><trkpt lat="45.643120511469604" lon="9.348652627305162"><ele>210.0</ele><time>2026-04-25T10:03:07.001Z</time></trkpt><trkpt lat="45.64302476003017" lon="9.34843128165739"><ele>210.33333333333331</ele><time>2026-04-25T10:03:08.001Z</time></trkpt><trkpt lat="45.64293291739175" lon="9.348222703914812"><ele>210.66666666666666</ele><time>2026-04-25T10:03:09.001Z</time></trkpt><trkpt lat="45.642843242319906" lon="9.348016221967848"><ele>211.0</ele><time>2026-04-25T10:03:10.001Z</time></trkpt><trkpt lat="45.642759286306664" lon="9.347811379952846"><ele>211.66666666666666</ele><time>2026-04-25T10:03:11.001Z</time></trkpt><trkpt lat="45.64267693471092" lon="9.34762084794151"><ele>212.33333333333331</ele><time>2026-04-25T10:03:12.001Z</time></trkpt><trkpt lat="45.64259254480313" lon="9.347429868693704"><ele>213.0</ele><time>2026-04-25T10:03:13.001Z</time></trkpt><trkpt lat="45.6425199399739" lon="9.347263937081156"><ele>212.8</ele><time>2026-04-25T10:03:14.001Z</time></trkpt><trkpt lat="45.642453715386694" lon="9.347118364845148"><ele>212.60000000000002</ele><time>2026-04-25T10:03:15.001Z</time></trkpt><trkpt lat="45.642398079486945" lon="9.34699737696972"><ele>212.39999999999998</ele><time>2026-04-25T10:03:16.001Z</time></trkpt><trkpt lat="45.642354739754516" lon="9.346894194240507"><ele>212.2</ele><time>2026-04-25T10:03:17.001Z</time></trkpt><trkpt lat="45.64231989083371" lon="9.346797540553466"><ele>212.0</ele><time>2026-04-25T10:03:18.001Z</time></trkpt><trkpt lat="45.642295939529234" lon="9.34670773230083"><ele>212.00000000000003</ele><time>2026-04-25T10:03:19.001Z</time></trkpt><trkpt lat="45.642292142734604" lon="9.346557933212685"><ele>212.0</ele><time>2026-04-25T10:03:21.002Z</time></trkpt><trkpt lat="45.6423159408025" lon="9.346465967238284"><ele>212.0</ele><time>2026-04-25T10:03:22.002Z</time></trkpt><trkpt lat="45.642356723316624" lon="9.346378529298216"><ele>212.0</ele><time>2026-04-25T10:03:23.002Z</time></trkpt><trkpt lat="45.64238078406503" lon="9.346282023290064"><ele>212.00000000000003</ele><time>2026-04-25T10:03:24.002Z</time></trkpt><trkpt lat="45.64236390106585" lon="9.346185026237988"><ele>212.0</ele><time>2026-04-25T10:03:25.002Z</time></trkpt><trkpt lat="45.64230640767522" lon="9.346096930676893"><ele>211.8</ele><time>2026-04-25T10:03:26.002Z</time></trkpt><trkpt lat="45.64222375148483" lon="9.346046332114703"><ele>211.6</ele><time>2026-04-25T10:03:27.002Z</time></trkpt><trkpt lat="45.64212896729033" lon="9.34605180672099"><ele>211.4</ele><time>2026-04-25T10:03:28.002Z</time></trkpt><trkpt lat="45.642034092267764" lon="9.346079759818696"><ele>211.20000000000002</ele><time>2026-04-25T10:03:29.002Z</time></trkpt><trkpt lat="45.6419512886385" lon="9.346079880318626"><ele>211.0</ele><time>2026-04-25T10:03:30.002Z</time></trkpt><trkpt lat="45.641865696974605" lon="9.346073777865586"><ele>210.25</ele><time>2026-04-25T10:03:31.002Z</time></trkpt><trkpt lat="45.641782666920605" lon="9.345944377952767"><ele>209.5</ele><time>2026-04-25T10:03:32.002Z</time></trkpt><trkpt lat="45.64169639450482" lon="9.345835112619236"><ele>208.75</ele><time>2026-04-25T10:03:33.002Z</time></trkpt><trkpt lat="45.64160503834924" lon="9.345709824224711"><ele>208.0</ele><time>2026-04-25T10:03:34.001Z</time></trkpt><trkpt lat="45.64150380091467" lon="9.345573072572352"><ele>208.33333333333331</ele><time>2026-04-25T10:03:35.001Z</time></trkpt><trkpt lat="45.641389781891384" lon="9.345420415448437"><ele>208.66666666666669</ele><time>2026-04-25T10:03:36.001Z</time></trkpt><trkpt lat="45.641266481964216" lon="9.34525487278695"><ele>209.0</ele><time>2026-04-25T10:03:37.001Z</time></trkpt><trkpt lat="45.64113914742432" lon="9.345092690017058"><ele>209.66666666666669</ele><time>2026-04-25T10:03:38.001Z</time></trkpt><trkpt lat="45.64100373689713" lon="9.344925935734896"><ele>210.33333333333331</ele><time>2026-04-25T10:03:39.001Z</time></trkpt><trkpt lat="45.640864988936286" lon="9.344756537690886"><ele>211.0</ele><time>2026-04-25T10:03:40.001Z</time></trkpt><trkpt lat="45.64072250705026" lon="9.344581592344898"><ele>209.66666666666666</ele><time>2026-04-25T10:03:41.001Z</time></trkpt><trkpt lat="45.64058552795964" lon="9.344410017514294"><ele>208.33333333333331</ele><time>2026-04-25T10:03:42.001Z</time></trkpt><trkpt lat="45.64045497206586" lon="9.344247132243783"><ele>207.0</ele><time>2026-04-25T10:03:43.001Z</time></trkpt><trkpt lat="45.640326355722586" lon="9.344097213753143"><ele>206.5</ele><time>2026-04-25T10:03:44.001Z</time></trkpt><trkpt lat="45.6402038226257" lon="9.34396265295346"><ele>206.0</ele><time>2026-04-25T10:03:45.001Z</time></trkpt><trkpt lat="45.640087280714944" lon="9.343845620060112"><ele>205.5</ele><time>2026-04-25T10:03:46.001Z</time></trkpt><trkpt lat="45.6399832457762" lon="9.343755291229174"><ele>205.0</ele><time>2026-04-25T10:03:47.001Z</time></trkpt><trkpt lat="45.6398771332165" lon="9.343687412632132"><ele>204.66666666666666</ele><time>2026-04-25T10:03:48.001Z</time></trkpt><trkpt lat="45.6397550000974" lon="9.343624715734059"><ele>204.33333333333331</ele><time>2026-04-25T10:03:49.001Z</time></trkpt><trkpt lat="45.639635185769286" lon="9.343555545474684"><ele>204.0</ele><time>2026-04-25T10:03:50.001Z</time></trkpt><trkpt lat="45.639448508842214" lon="9.343302321571663"><ele>204.0</ele><time>2026-04-25T10:03:52.001Z</time></trkpt><trkpt lat="45.63940548095115" lon="9.34312961209756"><ele>204.0</ele><time>2026-04-25T10:03:53.001Z</time></trkpt><trkpt lat="45.639378419725915" lon="9.342944269565665"><ele>204.0</ele><time>2026-04-25T10:03:54.001Z</time></trkpt><trkpt lat="45.63933523075055" lon="9.342764430484944"><ele>204.0</ele><time>2026-04-25T10:03:55.001Z</time></trkpt><trkpt lat="45.639263560545416" lon="9.342589677932011"><ele>204.0</ele><time>2026-04-25T10:03:56.001Z</time></trkpt><trkpt lat="45.63917087949053" lon="9.342413269139804"><ele>204.0</ele><time>2026-04-25T10:03:57.001Z</time></trkpt><trkpt lat="45.639067315443" lon="9.342240159851706"><ele>204.0</ele><time>2026-04-25T10:03:58.001Z</time></trkpt><trkpt lat="45.63895662976052" lon="9.342059186373014"><ele>204.33333333333331</ele><time>2026-04-25T10:03:59.001Z</time></trkpt><trkpt lat="45.638846530036844" lon="9.341876939076903"><ele>204.66666666666666</ele><time>2026-04-25T10:04:00.001Z</time></trkpt><trkpt lat="45.6387454366933" lon="9.341696384269238"><ele>205.0</ele><time>2026-04-25T10:04:01.001Z</time></trkpt><trkpt lat="45.63865262472253" lon="9.341525711107463"><ele>204.5</ele><time>2026-04-25T10:04:02.001Z</time></trkpt><trkpt lat="45.6385593804918" lon="9.341359126633657"><ele>204.0</ele><time>2026-04-25T10:04:03.001Z</time></trkpt><trkpt lat="45.638464568868656" lon="9.341188398293358"><ele>203.5</ele><time>2026-04-25T10:04:04.001Z</time></trkpt><trkpt lat="45.63837551514344" lon="9.341021950363615"><ele>203.0</ele><time>2026-04-25T10:04:05.001Z</time></trkpt><trkpt lat="45.63828892634211" lon="9.340864086908713"><ele>203.0</ele><time>2026-04-25T10:04:06.001Z</time></trkpt><trkpt lat="45.63820196888102" lon="9.340715231754931"><ele>203.0</ele><time>2026-04-25T10:04:07.001Z</time></trkpt><trkpt lat="45.638121338127405" lon="9.340570954547706"><ele>203.0</ele><time>2026-04-25T10:04:08.001Z</time></trkpt><trkpt lat="45.63804642832826" lon="9.340429017927187"><ele>203.0</ele><time>2026-04-25T10:04:09.001Z</time></trkpt><trkpt lat="45.63797138000947" lon="9.340284365911346"><ele>203.25</ele><time>2026-04-25T10:04:10.001Z</time></trkpt><trkpt lat="45.63789206339048" lon="9.34014050108433"><ele>203.5</ele><time>2026-04-25T10:04:11.001Z</time></trkpt><trkpt lat="45.63780858178491" lon="9.339990052840077"><ele>203.75</ele><time>2026-04-25T10:04:12.001Z</time></trkpt><trkpt lat="45.637724540230614" lon="9.339841250672983"><ele>204.0</ele><time>2026-04-25T10:04:13.001Z</time></trkpt><trkpt lat="45.63763828778289" lon="9.339694795682517"><ele>203.5</ele><time>2026-04-25T10:04:14.001Z</time></trkpt><trkpt lat="45.6375558290056" lon="9.33955982411883"><ele>203.0</ele><time>2026-04-25T10:04:15.001Z</time></trkpt><trkpt lat="45.63747328515277" lon="9.339431971397753"><ele>202.5</ele><time>2026-04-25T10:04:16.001Z</time></trkpt><trkpt lat="45.63739067342238" lon="9.339315939058537"><ele>202.0</ele><time>2026-04-25T10:04:17.001Z</time></trkpt><trkpt lat="45.637313117039845" lon="9.339203023129226"><ele>201.99999999999997</ele><time>2026-04-25T10:04:18.001Z</time></trkpt><trkpt lat="45.637251439635875" lon="9.339089580883568"><ele>202.0</ele><time>2026-04-25T10:04:19.001Z</time></trkpt><trkpt lat="45.63721300251902" lon="9.338977019711038"><ele>202.0</ele><time>2026-04-25T10:04:20.001Z</time></trkpt><trkpt lat="45.637177129196616" lon="9.338872372818638"><ele>202.0</ele><time>2026-04-25T10:04:21.001Z</time></trkpt><trkpt lat="45.637114018505024" lon="9.338805221108545"><ele>201.99999999999997</ele><time>2026-04-25T10:04:22.001Z</time></trkpt><trkpt lat="45.637031149575726" lon="9.338755626212835"><ele>202.0</ele><time>2026-04-25T10:04:23.001Z</time></trkpt><trkpt lat="45.63694777774473" lon="9.338674252293243"><ele>201.75</ele><time>2026-04-25T10:04:24.001Z</time></trkpt><trkpt lat="45.63686711967217" lon="9.338573899118554"><ele>201.5</ele><time>2026-04-25T10:04:25.001Z</time></trkpt><trkpt lat="45.636780639331676" lon="9.338473039134996"><ele>201.25</ele><time>2026-04-25T10:04:26.001Z</time></trkpt><trkpt lat="45.63668101191219" lon="9.338368221723032"><ele>201.0</ele><time>2026-04-25T10:04:27.001Z</time></trkpt><trkpt lat="45.63657423469541" lon="9.338255942439453"><ele>201.0</ele><time>2026-04-25T10:04:28.001Z</time></trkpt><trkpt lat="45.63645765343423" lon="9.338132761209746"><ele>201.0</ele><time>2026-04-25T10:04:29.001Z</time></trkpt><trkpt lat="45.636339655151744" lon="9.338001337878858"><ele>201.0</ele><time>2026-04-25T10:04:30.001Z</time></trkpt><trkpt lat="45.63621675093917" lon="9.337863173574386"><ele>200.66666666666669</ele><time>2026-04-25T10:04:31.001Z</time></trkpt><trkpt lat="45.63609273488881" lon="9.3377237116264"><ele>200.33333333333334</ele><time>2026-04-25T10:04:32.001Z</time></trkpt><trkpt lat="45.63597033130185" lon="9.337590576441336"><ele>200.0</ele><time>2026-04-25T10:04:33.001Z</time></trkpt><trkpt lat="45.635852371447925" lon="9.337468544200467"><ele>200.0</ele><time>2026-04-25T10:04:34.001Z</time></trkpt><trkpt lat="45.635742323139596" lon="9.33735391535624"><ele>200.0</ele><time>2026-04-25T10:04:35.001Z</time></trkpt><trkpt lat="45.63563838039567" lon="9.337241200025993"><ele>200.0</ele><time>2026-04-25T10:04:36.001Z</time></trkpt><trkpt lat="45.63553148518673" lon="9.33712376038255"><ele>200.0</ele><time>2026-04-25T10:04:37.001Z</time></trkpt><trkpt lat="45.63542432647659" lon="9.337007458617585"><ele>200.0</ele><time>2026-04-25T10:04:38.001Z</time></trkpt><trkpt lat="45.635310605401294" lon="9.336880241937997"><ele>200.0</ele><time>2026-04-25T10:04:39.001Z</time></trkpt><trkpt lat="45.63519547905905" lon="9.336738534274609"><ele>200.0</ele><time>2026-04-25T10:04:40.001Z</time></trkpt><trkpt lat="45.6350769373849" lon="9.33658885787094"><ele>200.33333333333334</ele><time>2026-04-25T10:04:41.001Z</time></trkpt><trkpt lat="45.634956506823805" lon="9.336440671205805"><ele>200.66666666666669</ele><time>2026-04-25T10:04:42.001Z</time></trkpt><trkpt lat="45.63482975510167" lon="9.336291116473355"><ele>201.0</ele><time>2026-04-25T10:04:43.001Z</time></trkpt><trkpt lat="45.634703802194124" lon="9.336141145129568"><ele>200.33333333333331</ele><time>2026-04-25T10:04:44.001Z</time></trkpt><trkpt lat="45.63457735277558" lon="9.335993756795311"><ele>199.66666666666666</ele><time>2026-04-25T10:04:45.001Z</time></trkpt><trkpt lat="45.634455575896645" lon="9.335833642963557"><ele>199.0</ele><time>2026-04-25T10:04:46.001Z</time></trkpt><trkpt lat="45.63434163589258" lon="9.335668754074854"><ele>199.0</ele><time>2026-04-25T10:04:47.001Z</time></trkpt><trkpt lat="45.634234318920264" lon="9.335502215134406"><ele>199.0</ele><time>2026-04-25T10:04:48.001Z</time></trkpt><trkpt lat="45.63412914187988" lon="9.335342934042584"><ele>199.0</ele><time>2026-04-25T10:04:49.001Z</time></trkpt><trkpt lat="45.63403192043635" lon="9.33519355502291"><ele>199.0</ele><time>2026-04-25T10:04:50.001Z</time></trkpt><trkpt lat="45.63393746676961" lon="9.33504102129049"><ele>199.0</ele><time>2026-04-25T10:04:51.001Z</time></trkpt><trkpt lat="45.63384957653339" lon="9.334904361559257"><ele>199.0</ele><time>2026-04-25T10:04:52.001Z</time></trkpt><trkpt lat="45.63376037937176" lon="9.334765157688636"><ele>199.0</ele><time>2026-04-25T10:04:53.001Z</time></trkpt><trkpt lat="45.63367851308458" lon="9.334634018343952"><ele>199.5</ele><time>2026-04-25T10:04:54.001Z</time></trkpt><trkpt lat="45.63359241284544" lon="9.334495800673432"><ele>200.0</ele><time>2026-04-25T10:04:55.001Z</time></trkpt><trkpt lat="45.63351276086548" lon="9.334347878601642"><ele>200.5</ele><time>2026-04-25T10:04:56.001Z</time></trkpt><trkpt lat="45.633428010711604" lon="9.334204678144088"><ele>201.0</ele><time>2026-04-25T10:04:57.001Z</time></trkpt><trkpt lat="45.63333997593265" lon="9.334068348328513"><ele>201.0</ele><time>2026-04-25T10:04:58.001Z</time></trkpt><trkpt lat="45.63325295770959" lon="9.333947865780067"><ele>201.0</ele><time>2026-04-25T10:04:59.001Z</time></trkpt><trkpt lat="45.633172589075194" lon="9.333827172173768"><ele>201.0</ele><time>2026-04-25T10:05:00.001Z</time></trkpt><trkpt lat="45.63309604290772" lon="9.333705689686177"><ele>201.0</ele><time>2026-04-25T10:05:01.001Z</time></trkpt><trkpt lat="45.63301750439738" lon="9.333588510392167"><ele>200.60000000000002</ele><time>2026-04-25T10:05:02.001Z</time></trkpt><trkpt lat="45.632938744874636" lon="9.33347189157435"><ele>200.2</ele><time>2026-04-25T10:05:03.001Z</time></trkpt><trkpt lat="45.63285993061213" lon="9.33335787086404"><ele>199.8</ele><time>2026-04-25T10:05:04.001Z</time></trkpt><trkpt lat="45.632785381960105" lon="9.333250662105238"><ele>199.39999999999998</ele><time>2026-04-25T10:05:05.001Z</time></trkpt><trkpt lat="45.63271623770891" lon="9.333144761413726"><ele>199.0</ele><time>2026-04-25T10:05:06.001Z</time></trkpt><trkpt lat="45.63264653360906" lon="9.333042750499377"><ele>198.6</ele><time>2026-04-25T10:05:07.001Z</time></trkpt><trkpt lat="45.632583311196164" lon="9.332948538691738"><ele>198.2</ele><time>2026-04-25T10:05:08.001Z</time></trkpt><trkpt lat="45.63252421009415" lon="9.332859557536775"><ele>197.79999999999998</ele><time>2026-04-25T10:05:09.001Z</time></trkpt><trkpt lat="45.63247516688391" lon="9.332790453683103"><ele>197.39999999999998</ele><time>2026-04-25T10:05:10.001Z</time></trkpt><trkpt lat="45.63240233852629" lon="9.33268256099614"><ele>197.0</ele><time>2026-04-25T10:05:12.001Z</time></trkpt><trkpt lat="45.63234825400215" lon="9.332540379562843"><ele>197.00000000000003</ele><time>2026-04-25T10:05:14.001Z</time></trkpt><trkpt lat="45.632337499321004" lon="9.332447043749324"><ele>197.0</ele><time>2026-04-25T10:05:15.001Z</time></trkpt><trkpt lat="45.6323273682846" lon="9.332354524939118"><ele>197.0</ele><time>2026-04-25T10:05:16.001Z</time></trkpt><trkpt lat="45.63228535977568" lon="9.332283714174881"><ele>197.0</ele><time>2026-04-25T10:05:17.001Z</time></trkpt><trkpt lat="45.63221079233824" lon="9.332247864686694"><ele>197.00000000000003</ele><time>2026-04-25T10:05:18.001Z</time></trkpt><trkpt lat="45.632125102615646" lon="9.332235245772463"><ele>197.0</ele><time>2026-04-25T10:05:19.001Z</time></trkpt><trkpt lat="45.63203466835845" lon="9.332216972202636"><ele>197.39999999999998</ele><time>2026-04-25T10:05:20.001Z</time></trkpt><trkpt lat="45.63194983252379" lon="9.33215656602959"><ele>197.79999999999998</ele><time>2026-04-25T10:05:21.001Z</time></trkpt><trkpt lat="45.63187291873961" lon="9.33206067934143"><ele>198.2</ele><time>2026-04-25T10:05:22.001Z</time></trkpt><trkpt lat="45.63178509274164" lon="9.331963582457737"><ele>198.6</ele><time>2026-04-25T10:05:23.001Z</time></trkpt><trkpt lat="45.63169038218483" lon="9.331863917545101"><ele>199.0</ele><time>2026-04-25T10:05:24.001Z</time></trkpt><trkpt lat="45.63158900214645" lon="9.331763078164673"><ele>199.0</ele><time>2026-04-25T10:05:25.001Z</time></trkpt><trkpt lat="45.63148570249616" lon="9.33165178147683"><ele>199.0</ele><time>2026-04-25T10:05:26.001Z</time></trkpt><trkpt lat="45.63138796638055" lon="9.331541455651482"><ele>199.0</ele><time>2026-04-25T10:05:27.001Z</time></trkpt><trkpt lat="45.6313013805174" lon="9.331437810433723"><ele>199.0</ele><time>2026-04-25T10:05:28.001Z</time></trkpt><trkpt lat="45.63121854273384" lon="9.331340034430665"><ele>198.2</ele><time>2026-04-25T10:05:29.001Z</time></trkpt><trkpt lat="45.63113764053411" lon="9.331246811316202"><ele>197.39999999999998</ele><time>2026-04-25T10:05:30.001Z</time></trkpt><trkpt lat="45.63106000053223" lon="9.331156895990123"><ele>196.6</ele><time>2026-04-25T10:05:31.001Z</time></trkpt><trkpt lat="45.63099016241993" lon="9.331081227506811"><ele>195.8</ele><time>2026-04-25T10:05:32.001Z</time></trkpt><trkpt lat="45.630923203929036" lon="9.33101104275555"><ele>195.0</ele><time>2026-04-25T10:05:33.001Z</time></trkpt><trkpt lat="45.63085778981841" lon="9.330943178854485"><ele>195.0</ele><time>2026-04-25T10:05:34.001Z</time></trkpt><trkpt lat="45.630795747921844" lon="9.330874170341339"><ele>195.0</ele><time>2026-04-25T10:05:35.001Z</time></trkpt><trkpt lat="45.63073495239636" lon="9.330810606359135"><ele>195.0</ele><time>2026-04-25T10:05:36.001Z</time></trkpt><trkpt lat="45.63066442061827" lon="9.330733000842718"><ele>195.0</ele><time>2026-04-25T10:05:37.001Z</time></trkpt><trkpt lat="45.63059209792357" lon="9.330647224791097"><ele>195.0</ele><time>2026-04-25T10:05:38.001Z</time></trkpt><trkpt lat="45.63051236632956" lon="9.330555260106546"><ele>195.0</ele><time>2026-04-25T10:05:39.001Z</time></trkpt><trkpt lat="45.63042958454417" lon="9.33045996838153"><ele>195.25</ele><time>2026-04-25T10:05:40.001Z</time></trkpt><trkpt lat="45.63034327793522" lon="9.330360161205324"><ele>195.5</ele><time>2026-04-25T10:05:41.001Z</time></trkpt><trkpt lat="45.630249236826664" lon="9.330260190137286"><ele>195.75</ele><time>2026-04-25T10:05:42.001Z</time></trkpt><trkpt lat="45.63014635876923" lon="9.33015647255769"><ele>196.0</ele><time>2026-04-25T10:05:43.001Z</time></trkpt><trkpt lat="45.630040235033036" lon="9.330054076484613"><ele>196.0</ele><time>2026-04-25T10:05:44.001Z</time></trkpt><trkpt lat="45.62993327253103" lon="9.329940732633405"><ele>196.0</ele><time>2026-04-25T10:05:45.001Z</time></trkpt><trkpt lat="45.62982765557103" lon="9.329826428335313"><ele>196.0</ele><time>2026-04-25T10:05:46.001Z</time></trkpt><trkpt lat="45.62972707877711" lon="9.329720762132439"><ele>196.0</ele><time>2026-04-25T10:05:47.001Z</time></trkpt><trkpt lat="45.62962581060664" lon="9.329618691321834"><ele>196.0</ele><time>2026-04-25T10:05:48.001Z</time></trkpt><trkpt lat="45.62952120574639" lon="9.329524007607704"><ele>196.0</ele><time>2026-04-25T10:05:49Z</time></trkpt><trkpt lat="45.62940722910505" lon="9.329447142709222"><ele>196.0</ele><time>2026-04-25T10:05:50Z</time></trkpt><trkpt lat="45.62929333571685" lon="9.32939165733372"><ele>196.0</ele><time>2026-04-25T10:05:51Z</time></trkpt><trkpt lat="45.629185681840404" lon="9.329335502460951"><ele>196.0</ele><time>2026-04-25T10:05:52Z</time></trkpt><trkpt lat="45.62908259888581" lon="9.329278494791057"><ele>196.0</ele><time>2026-04-25T10:05:53Z</time></trkpt><trkpt lat="45.62898810296207" lon="9.329218809841185"><ele>196.0</ele><time>2026-04-25T10:05:54Z</time></trkpt><trkpt lat="45.628896940903665" lon="9.329148434431811"><ele>196.0</ele><time>2026-04-25T10:05:55Z</time></trkpt><trkpt lat="45.62881505759798" lon="9.329075941044906"><ele>196.0</ele><time>2026-04-25T10:05:56Z</time></trkpt><trkpt lat="45.628741479123" lon="9.329004018050815"><ele>195.99999999999997</ele><time>2026-04-25T10:05:57Z</time></trkpt><trkpt lat="45.628668675351996" lon="9.328926543853994"><ele>196.0</ele><time>2026-04-25T10:05:58Z</time></trkpt><trkpt lat="45.62860339043042" lon="9.32885285326019"><ele>196.0</ele><time>2026-04-25T10:05:59Z</time></trkpt><trkpt lat="45.62854505144189" lon="9.328789653885943"><ele>196.0</ele><time>2026-04-25T10:06:00Z</time></trkpt><trkpt lat="45.628489631438335" lon="9.328729923005929"><ele>195.99999999999997</ele><time>2026-04-25T10:06:01Z</time></trkpt><trkpt lat="45.62843204991423" lon="9.328660383571044"><ele>196.0</ele><time>2026-04-25T10:06:02Z</time></trkpt><trkpt lat="45.62836704723394" lon="9.328586589046573"><ele>195.66666666666666</ele><time>2026-04-25T10:06:03Z</time></trkpt><trkpt lat="45.62830144634979" lon="9.32850525360718"><ele>195.33333333333331</ele><time>2026-04-25T10:06:04Z</time></trkpt><trkpt lat="45.62823698940713" lon="9.328425587256229"><ele>195.0</ele><time>2026-04-25T10:06:05Z</time></trkpt><trkpt lat="45.62817289952412" lon="9.32834636000515"><ele>194.66666666666669</ele><time>2026-04-25T10:06:06Z</time></trkpt><trkpt lat="45.62811922761971" lon="9.328257999363723"><ele>194.33333333333334</ele><time>2026-04-25T10:06:07Z</time></trkpt><trkpt lat="45.62806577615753" lon="9.328178872095819"><ele>194.0</ele><time>2026-04-25T10:06:08Z</time></trkpt><trkpt lat="45.628008808854815" lon="9.328092093390644"><ele>194.16666666666669</ele><time>2026-04-25T10:06:09Z</time></trkpt><trkpt lat="45.62795013906435" lon="9.328006914789333"><ele>194.33333333333334</ele><time>2026-04-25T10:06:10Z</time></trkpt><trkpt lat="45.62788639656871" lon="9.32792038436639"><ele>194.5</ele><time>2026-04-25T10:06:11Z</time></trkpt><trkpt lat="45.627826596585216" lon="9.327834149909588"><ele>194.66666666666669</ele><time>2026-04-25T10:06:12Z</time></trkpt><trkpt lat="45.627768783219786" lon="9.327749126171117"><ele>194.83333333333334</ele><time>2026-04-25T10:06:13Z</time></trkpt><trkpt lat="45.62771841746815" lon="9.327670999428774"><ele>195.0</ele><time>2026-04-25T10:06:14Z</time></trkpt><trkpt lat="45.62766682675291" lon="9.327594251433382"><ele>195.0</ele><time>2026-04-25T10:06:15Z</time></trkpt><trkpt lat="45.627620034140776" lon="9.327525594383559"><ele>195.0</ele><time>2026-04-25T10:06:16Z</time></trkpt><trkpt lat="45.62756204809025" lon="9.327449286349028"><ele>195.0</ele><time>2026-04-25T10:06:17Z</time></trkpt><trkpt lat="45.627505748401624" lon="9.327370319782231"><ele>195.0</ele><time>2026-04-25T10:06:18Z</time></trkpt><trkpt lat="45.62744483167958" lon="9.32728128674218"><ele>195.0</ele><time>2026-04-25T10:06:19Z</time></trkpt><trkpt lat="45.62738193685588" lon="9.327181399673723"><ele>195.0</ele><time>2026-04-25T10:06:20Z</time></trkpt><trkpt lat="45.627315350596376" lon="9.327079466481507"><ele>195.0</ele><time>2026-04-25T10:06:21Z</time></trkpt><trkpt lat="45.62724816752923" lon="9.326982507160357"><ele>195.0</ele><time>2026-04-25T10:06:22Z</time></trkpt><trkpt lat="45.627181070870634" lon="9.326894723536787"><ele>195.0</ele><time>2026-04-25T10:06:23Z</time></trkpt><trkpt lat="45.6271144105516" lon="9.32680376153141"><ele>195.0</ele><time>2026-04-25T10:06:24Z</time></trkpt><trkpt lat="45.62705183370552" lon="9.326711853473935"><ele>195.0</ele><time>2026-04-25T10:06:25Z</time></trkpt><trkpt lat="45.626991215649625" lon="9.326627570199218"><ele>194.83333333333334</ele><time>2026-04-25T10:06:26Z</time></trkpt><trkpt lat="45.62693558124055" lon="9.326544357223272"><ele>194.66666666666669</ele><time>2026-04-25T10:06:27.001Z</time></trkpt><trkpt lat="45.62688157069926" lon="9.326468366255066"><ele>194.5</ele><time>2026-04-25T10:06:28.001Z</time></trkpt><trkpt lat="45.62682365774855" lon="9.326382749735064"><ele>194.33333333333334</ele><time>2026-04-25T10:06:29.001Z</time></trkpt><trkpt lat="45.62676146178591" lon="9.326289024145275"><ele>194.16666666666669</ele><time>2026-04-25T10:06:30.001Z</time></trkpt><trkpt lat="45.62670115626132" lon="9.326192819263948"><ele>194.0</ele><time>2026-04-25T10:06:31.001Z</time></trkpt><trkpt lat="45.626642728311964" lon="9.326096360874518"><ele>194.00000000000003</ele><time>2026-04-25T10:06:32.001Z</time></trkpt><trkpt lat="45.6265881368171" lon="9.326003634654878"><ele>194.0</ele><time>2026-04-25T10:06:33.001Z</time></trkpt><trkpt lat="45.62653224187428" lon="9.325909315682281"><ele>194.0</ele><time>2026-04-25T10:06:34.001Z</time></trkpt><trkpt lat="45.62647388566716" lon="9.325810066643461"><ele>194.0</ele><time>2026-04-25T10:06:35.001Z</time></trkpt><trkpt lat="45.62641891290999" lon="9.32570975576854"><ele>194.00000000000003</ele><time>2026-04-25T10:06:36.001Z</time></trkpt><trkpt lat="45.62637055474718" lon="9.325618035341668"><ele>194.0</ele><time>2026-04-25T10:06:37.001Z</time></trkpt><trkpt lat="45.62632674463" lon="9.325531011943253"><ele>193.66666666666669</ele><time>2026-04-25T10:06:38.001Z</time></trkpt><trkpt lat="45.62628260268275" lon="9.325446448023516"><ele>193.33333333333334</ele><time>2026-04-25T10:06:39.001Z</time></trkpt><trkpt lat="45.62623692149344" lon="9.325353853979776"><ele>193.0</ele><time>2026-04-25T10:06:40.001Z</time></trkpt><trkpt lat="45.62619685067733" lon="9.325271216310645"><ele>192.66666666666669</ele><time>2026-04-25T10:06:41.001Z</time></trkpt><trkpt lat="45.626155436926524" lon="9.325177054624708"><ele>192.33333333333334</ele><time>2026-04-25T10:06:42.001Z</time></trkpt><trkpt lat="45.62611010348819" lon="9.32507155598026"><ele>192.0</ele><time>2026-04-25T10:06:43.001Z</time></trkpt><trkpt lat="45.626061287112385" lon="9.324960140630996"><ele>192.0</ele><time>2026-04-25T10:06:44.001Z</time></trkpt><trkpt lat="45.62601588897059" lon="9.324852094538864"><ele>192.0</ele><time>2026-04-25T10:06:45.001Z</time></trkpt><trkpt lat="45.62597248633834" lon="9.324755799897085"><ele>192.0</ele><time>2026-04-25T10:06:46.001Z</time></trkpt><trkpt lat="45.62593614044589" lon="9.32467153325742"><ele>192.0</ele><time>2026-04-25T10:06:47.001Z</time></trkpt><trkpt lat="45.62589346558653" lon="9.324571613964647"><ele>192.0</ele><time>2026-04-25T10:06:49.001Z</time></trkpt><trkpt lat="45.62585348443405" lon="9.324492199941115"><ele>192.0</ele><time>2026-04-25T10:06:51.001Z</time></trkpt><trkpt lat="45.62579751552629" lon="9.32437623831334"><ele>192.0</ele><time>2026-04-25T10:06:53.001Z</time></trkpt><trkpt lat="45.62572683449954" lon="9.324225509755452"><ele>192.0</ele><time>2026-04-25T10:06:55.001Z</time></trkpt><trkpt lat="45.625686711688644" lon="9.324131212103428"><ele>192.0</ele><time>2026-04-25T10:06:56.001Z</time></trkpt><trkpt lat="45.62564272186962" lon="9.324034645781506"><ele>192.0</ele><time>2026-04-25T10:06:57.001Z</time></trkpt><trkpt lat="45.62559932470078" lon="9.32393505789751"><ele>192.0</ele><time>2026-04-25T10:06:58.001Z</time></trkpt><trkpt lat="45.625554577483946" lon="9.323832098532979"><ele>192.39999999999998</ele><time>2026-04-25T10:06:59.001Z</time></trkpt><trkpt lat="45.625506712279126" lon="9.32372310234877"><ele>192.79999999999998</ele><time>2026-04-25T10:07:00.001Z</time></trkpt><trkpt lat="45.625454447415606" lon="9.323602117832495"><ele>193.2</ele><time>2026-04-25T10:07:01.001Z</time></trkpt><trkpt lat="45.625399587144194" lon="9.323474674359074"><ele>193.6</ele><time>2026-04-25T10:07:02.001Z</time></trkpt><trkpt lat="45.62533983669007" lon="9.323343931593651"><ele>194.0</ele><time>2026-04-25T10:07:03.001Z</time></trkpt><trkpt lat="45.62528225766547" lon="9.323212285065676"><ele>194.0</ele><time>2026-04-25T10:07:04.001Z</time></trkpt><trkpt lat="45.625229116634515" lon="9.323079138823553"><ele>194.0</ele><time>2026-04-25T10:07:05.001Z</time></trkpt><trkpt lat="45.62518133744287" lon="9.322957589895836"><ele>194.0</ele><time>2026-04-25T10:07:06.001Z</time></trkpt><trkpt lat="45.625143294889085" lon="9.322854046096928"><ele>194.0</ele><time>2026-04-25T10:07:07.001Z</time></trkpt><trkpt lat="45.6250998104395" lon="9.32273491841283"><ele>194.0</ele><time>2026-04-25T10:07:09.001Z</time></trkpt><trkpt lat="45.625058659611156" lon="9.322654311327655"><ele>193.83333333333334</ele><time>2026-04-25T10:07:12.001Z</time></trkpt><trkpt lat="45.625024445423385" lon="9.322560038915888"><ele>193.66666666666669</ele><time>2026-04-25T10:07:14.001Z</time></trkpt><trkpt lat="45.624993884084695" lon="9.322423674927604"><ele>193.5</ele><time>2026-04-25T10:07:16.001Z</time></trkpt><trkpt lat="45.62494634343324" lon="9.322360440823694"><ele>193.33333333333331</ele><time>2026-04-25T10:07:17.001Z</time></trkpt><trkpt lat="45.62488118019541" lon="9.322306786906472"><ele>193.16666666666666</ele><time>2026-04-25T10:07:18.001Z</time></trkpt><trkpt lat="45.62482068660364" lon="9.322250191071987"><ele>193.0</ele><time>2026-04-25T10:07:19.001Z</time></trkpt><trkpt lat="45.62474839952317" lon="9.322157071662014"><ele>192.75</ele><time>2026-04-25T10:07:20.001Z</time></trkpt><trkpt lat="45.624676513754274" lon="9.322060421202792"><ele>192.5</ele><time>2026-04-25T10:07:21.001Z</time></trkpt><trkpt lat="45.62459429680478" lon="9.321951999447753"><ele>192.25</ele><time>2026-04-25T10:07:22.001Z</time></trkpt><trkpt lat="45.62450147384098" lon="9.321823653862001"><ele>192.0</ele><time>2026-04-25T10:07:23.001Z</time></trkpt><trkpt lat="45.62439891656066" lon="9.321664176024708"><ele>192.0</ele><time>2026-04-25T10:07:24.001Z</time></trkpt><trkpt lat="45.62429461021731" lon="9.321487891076618"><ele>192.0</ele><time>2026-04-25T10:07:25.001Z</time></trkpt><trkpt lat="45.62418530354224" lon="9.321293918414193"><ele>192.0</ele><time>2026-04-25T10:07:26.001Z</time></trkpt><trkpt lat="45.624070312164676" lon="9.321090146582854"><ele>191.0</ele><time>2026-04-25T10:07:27.001Z</time></trkpt><trkpt lat="45.62394622030799" lon="9.320899757792874"><ele>190.0</ele><time>2026-04-25T10:07:28.001Z</time></trkpt><trkpt lat="45.62380969939203" lon="9.320701326568116"><ele>189.0</ele><time>2026-04-25T10:07:29.001Z</time></trkpt><trkpt lat="45.62367863393549" lon="9.320526109357912"><ele>189.33333333333334</ele><time>2026-04-25T10:07:30.001Z</time></trkpt><trkpt lat="45.62355251689644" lon="9.320359415951494"><ele>189.66666666666669</ele><time>2026-04-25T10:07:31.001Z</time></trkpt><trkpt lat="45.623430097397794" lon="9.320199535616576"><ele>190.0</ele><time>2026-04-25T10:07:32.001Z</time></trkpt><trkpt lat="45.62332033244572" lon="9.320055555379644"><ele>190.0</ele><time>2026-04-25T10:07:33.001Z</time></trkpt><trkpt lat="45.623235121700766" lon="9.319941407501345"><ele>190.0</ele><time>2026-04-25T10:07:34.001Z</time></trkpt><trkpt lat="45.623169048437155" lon="9.319854942991217"><ele>190.0</ele><time>2026-04-25T10:07:35.001Z</time></trkpt><trkpt lat="45.6231164150772" lon="9.319790061687298"><ele>190.0</ele><time>2026-04-25T10:07:36.001Z</time></trkpt><trkpt lat="45.62305759363325" lon="9.319715333095223"><ele>190.0</ele><time>2026-04-25T10:07:37.001Z</time></trkpt><trkpt lat="45.6229861646166" lon="9.319613513226217"><ele>190.25</ele><time>2026-04-25T10:07:38.001Z</time></trkpt><trkpt lat="45.62290735879161" lon="9.319487944792327"><ele>190.5</ele><time>2026-04-25T10:07:39.001Z</time></trkpt><trkpt lat="45.622816211048516" lon="9.319339388882275"><ele>190.75</ele><time>2026-04-25T10:07:40.001Z</time></trkpt><trkpt lat="45.62270719750028" lon="9.319184035844094"><ele>191.0</ele><time>2026-04-25T10:07:41.001Z</time></trkpt><trkpt lat="45.622574408382384" lon="9.319022410936222"><ele>190.0</ele><time>2026-04-25T10:07:42.001Z</time></trkpt><trkpt lat="45.62243180511487" lon="9.318857133261513"><ele>189.0</ele><time>2026-04-25T10:07:43.001Z</time></trkpt><trkpt lat="45.62227831411312" lon="9.318684591666099"><ele>188.0</ele><time>2026-04-25T10:07:44.001Z</time></trkpt><trkpt lat="45.62211819530335" lon="9.318505807843273"><ele>188.33333333333331</ele><time>2026-04-25T10:07:45.001Z</time></trkpt><trkpt lat="45.621955931470914" lon="9.318329664686756"><ele>188.66666666666666</ele><time>2026-04-25T10:07:46Z</time></trkpt><trkpt lat="45.62179591520874" lon="9.318152554369668"><ele>189.0</ele><time>2026-04-25T10:07:47Z</time></trkpt><trkpt lat="45.62164401001345" lon="9.317977204152452"><ele>188.33333333333334</ele><time>2026-04-25T10:07:48Z</time></trkpt><trkpt lat="45.62150534521763" lon="9.317808646892876"><ele>187.66666666666669</ele><time>2026-04-25T10:07:49Z</time></trkpt><trkpt lat="45.621360274252815" lon="9.317641034837552"><ele>187.0</ele><time>2026-04-25T10:07:50Z</time></trkpt><trkpt lat="45.62122471201586" lon="9.317480335827137"><ele>187.66666666666669</ele><time>2026-04-25T10:07:51Z</time></trkpt><trkpt lat="45.62108861703583" lon="9.317303872883082"><ele>188.33333333333334</ele><time>2026-04-25T10:07:52Z</time></trkpt><trkpt lat="45.62095885867191" lon="9.317114153480686"><ele>189.0</ele><time>2026-04-25T10:07:53Z</time></trkpt><trkpt lat="45.620841419997596" lon="9.31692554932675"><ele>189.0</ele><time>2026-04-25T10:07:54Z</time></trkpt><trkpt lat="45.620749957188345" lon="9.31676755951207"><ele>189.0</ele><time>2026-04-25T10:07:55Z</time></trkpt><trkpt lat="45.62066525032783" lon="9.316630599197143"><ele>189.0</ele><time>2026-04-25T10:07:56Z</time></trkpt><trkpt lat="45.62057944842308" lon="9.316493355345179"><ele>189.0</ele><time>2026-04-25T10:07:57Z</time></trkpt><trkpt lat="45.6204919887231" lon="9.316363760724478"><ele>189.0</ele><time>2026-04-25T10:07:58Z</time></trkpt><trkpt lat="45.6204074990753" lon="9.31623675019384"><ele>189.0</ele><time>2026-04-25T10:07:59Z</time></trkpt><trkpt lat="45.62032807698562" lon="9.31611788636214"><ele>189.0</ele><time>2026-04-25T10:08:00Z</time></trkpt><trkpt lat="45.620252022759935" lon="9.31602182133184"><ele>189.0</ele><time>2026-04-25T10:08:01Z</time></trkpt><trkpt lat="45.620183452333094" lon="9.315945238045579"><ele>189.0</ele><time>2026-04-25T10:08:02Z</time></trkpt><trkpt lat="45.62012606395264" lon="9.315881727452826"><ele>188.83333333333334</ele><time>2026-04-25T10:08:03Z</time></trkpt><trkpt lat="45.62005268287084" lon="9.315802377935801"><ele>188.66666666666666</ele><time>2026-04-25T10:08:05Z</time></trkpt><trkpt lat="45.61999861421646" lon="9.31574732064584"><ele>188.5</ele><time>2026-04-25T10:08:07Z</time></trkpt><trkpt lat="45.61991678481069" lon="9.315666883489028"><ele>188.33333333333331</ele><time>2026-04-25T10:08:09Z</time></trkpt><trkpt lat="45.6198614945715" lon="9.315613754648373"><ele>188.16666666666666</ele><time>2026-04-25T10:08:10Z</time></trkpt><trkpt lat="45.61980385138187" lon="9.315553201909339"><ele>188.0</ele><time>2026-04-25T10:08:11Z</time></trkpt><trkpt lat="45.61973777340002" lon="9.315489195133855"><ele>187.83333333333331</ele><time>2026-04-25T10:08:12Z</time></trkpt><trkpt lat="45.6196690851738" lon="9.315426669585696"><ele>187.66666666666666</ele><time>2026-04-25T10:08:13Z</time></trkpt><trkpt lat="45.61959874252341" lon="9.31536641985622"><ele>187.5</ele><time>2026-04-25T10:08:14Z</time></trkpt><trkpt lat="45.61952700933082" lon="9.315306007541079"><ele>187.33333333333334</ele><time>2026-04-25T10:08:15Z</time></trkpt><trkpt lat="45.619459593175044" lon="9.315247755113894"><ele>187.16666666666669</ele><time>2026-04-25T10:08:16Z</time></trkpt><trkpt lat="45.619391850511995" lon="9.31518857289286"><ele>187.0</ele><time>2026-04-25T10:08:17Z</time></trkpt><trkpt lat="45.61932000216069" lon="9.315133282541485"><ele>186.8</ele><time>2026-04-25T10:08:18Z</time></trkpt><trkpt lat="45.61923666981985" lon="9.31507504669688"><ele>186.6</ele><time>2026-04-25T10:08:19Z</time></trkpt><trkpt lat="45.61914858722518" lon="9.315017948447773"><ele>186.4</ele><time>2026-04-25T10:08:20Z</time></trkpt><trkpt lat="45.61905540216835" lon="9.314963754758669"><ele>186.20000000000002</ele><time>2026-04-25T10:08:21Z</time></trkpt><trkpt lat="45.61895832347441" lon="9.314909412264688"><ele>186.0</ele><time>2026-04-25T10:08:22Z</time></trkpt><trkpt lat="45.618853876581994" lon="9.314851740954177"><ele>186.0</ele><time>2026-04-25T10:08:23Z</time></trkpt><trkpt lat="45.61874385673366" lon="9.314792417246094"><ele>186.0</ele><time>2026-04-25T10:08:24Z</time></trkpt><trkpt lat="45.618632181663955" lon="9.31473001105704"><ele>186.0</ele><time>2026-04-25T10:08:25Z</time></trkpt><trkpt lat="45.618515232482146" lon="9.314657319495694"><ele>186.0</ele><time>2026-04-25T10:08:26Z</time></trkpt><trkpt lat="45.618391330929036" lon="9.31457694902893"><ele>185.0</ele><time>2026-04-25T10:08:27Z</time></trkpt><trkpt lat="45.61826812954945" lon="9.31449267701045"><ele>184.0</ele><time>2026-04-25T10:08:28Z</time></trkpt><trkpt lat="45.618142810526855" lon="9.31439750500219"><ele>183.0</ele><time>2026-04-25T10:08:29Z</time></trkpt><trkpt lat="45.61801915168415" lon="9.314290682206291"><ele>182.0</ele><time>2026-04-25T10:08:30Z</time></trkpt><trkpt lat="45.617894516281446" lon="9.314172956798581"><ele>182.25</ele><time>2026-04-25T10:08:31Z</time></trkpt><trkpt lat="45.6177727089118" lon="9.314055346614584"><ele>182.5</ele><time>2026-04-25T10:08:32Z</time></trkpt><trkpt lat="45.617652803365296" lon="9.313940402827871"><ele>182.75</ele><time>2026-04-25T10:08:33Z</time></trkpt><trkpt lat="45.61753774254154" lon="9.313830829381827"><ele>183.0</ele><time>2026-04-25T10:08:34Z</time></trkpt><trkpt lat="45.617427256429295" lon="9.313724547241758"><ele>183.25</ele><time>2026-04-25T10:08:35Z</time></trkpt><trkpt lat="45.61732271037172" lon="9.313622124930193"><ele>183.5</ele><time>2026-04-25T10:08:36Z</time></trkpt><trkpt lat="45.61722174509676" lon="9.31352315500019"><ele>183.75</ele><time>2026-04-25T10:08:37Z</time></trkpt><trkpt lat="45.6171322398299" lon="9.313428911694606"><ele>184.0</ele><time>2026-04-25T10:08:38Z</time></trkpt><trkpt lat="45.61704880637348" lon="9.313333423825814"><ele>183.75</ele><time>2026-04-25T10:08:39Z</time></trkpt><trkpt lat="45.616964437936886" lon="9.313241070364755"><ele>183.5</ele><time>2026-04-25T10:08:40Z</time></trkpt><trkpt lat="45.61688743374852" lon="9.31312295970973"><ele>183.25</ele><time>2026-04-25T10:08:41Z</time></trkpt><trkpt lat="45.61681655534056" lon="9.312982922801039"><ele>183.0</ele><time>2026-04-25T10:08:42Z</time></trkpt><trkpt lat="45.616747123061074" lon="9.312839425481485"><ele>182.25</ele><time>2026-04-25T10:08:43Z</time></trkpt><trkpt lat="45.6166839602028" lon="9.312702929008621"><ele>181.5</ele><time>2026-04-25T10:08:44Z</time></trkpt><trkpt lat="45.61661634646248" lon="9.312558193301307"><ele>180.75</ele><time>2026-04-25T10:08:45Z</time></trkpt><trkpt lat="45.616541828866545" lon="9.312416810009367"><ele>180.0</ele><time>2026-04-25T10:08:46Z</time></trkpt><trkpt lat="45.61644895113193" lon="9.31227626723259"><ele>180.0</ele><time>2026-04-25T10:08:47Z</time></trkpt><trkpt lat="45.61634195703278" lon="9.312146842113394"><ele>180.0</ele><time>2026-04-25T10:08:48Z</time></trkpt><trkpt lat="45.616218503148296" lon="9.312023554539977"><ele>180.0</ele><time>2026-04-25T10:08:49Z</time></trkpt><trkpt lat="45.61608056688871" lon="9.311918057724728"><ele>180.0</ele><time>2026-04-25T10:08:50Z</time></trkpt><trkpt lat="45.61593143308582" lon="9.311832096290297"><ele>179.75</ele><time>2026-04-25T10:08:51Z</time></trkpt><trkpt lat="45.61578589577006" lon="9.311751577498775"><ele>179.5</ele><time>2026-04-25T10:08:52Z</time></trkpt><trkpt lat="45.615650636372116" lon="9.311667952556606"><ele>179.25</ele><time>2026-04-25T10:08:53Z</time></trkpt><trkpt lat="45.615528794931826" lon="9.311580918635373"><ele>179.0</ele><time>2026-04-25T10:08:54Z</time></trkpt><trkpt lat="45.615410229083245" lon="9.31148974490915"><ele>179.39999999999998</ele><time>2026-04-25T10:08:55Z</time></trkpt><trkpt lat="45.61531360494988" lon="9.311395417258334"><ele>179.8</ele><time>2026-04-25T10:08:56Z</time></trkpt><trkpt lat="45.615233368964645" lon="9.31129701245814"><ele>180.2</ele><time>2026-04-25T10:08:57Z</time></trkpt><trkpt lat="45.61517258768337" lon="9.31119403470784"><ele>180.60000000000002</ele><time>2026-04-25T10:08:58Z</time></trkpt><trkpt lat="45.615124402910176" lon="9.311092265735654"><ele>181.0</ele><time>2026-04-25T10:08:59Z</time></trkpt><trkpt lat="45.61508174959025" lon="9.31099650541225"><ele>181.0</ele><time>2026-04-25T10:09:00Z</time></trkpt><trkpt lat="45.61503703010853" lon="9.310912763920976"><ele>181.0</ele><time>2026-04-25T10:09:01Z</time></trkpt><trkpt lat="45.61499789703845" lon="9.310840098058442"><ele>181.0</ele><time>2026-04-25T10:09:02Z</time></trkpt><trkpt lat="45.61492687256178" lon="9.310718486407254"><ele>181.0</ele><time>2026-04-25T10:09:04Z</time></trkpt><trkpt lat="45.614828975671415" lon="9.31059579293617"><ele>181.0</ele><time>2026-04-25T10:09:06Z</time></trkpt><trkpt lat="45.61477553681242" lon="9.310510917689356"><ele>180.83333333333334</ele><time>2026-04-25T10:09:07Z</time></trkpt><trkpt lat="45.61472151984146" lon="9.310411337485542"><ele>180.66666666666669</ele><time>2026-04-25T10:09:08Z</time></trkpt><trkpt lat="45.614663021188484" lon="9.310310333967289"><ele>180.5</ele><time>2026-04-25T10:09:09Z</time></trkpt><trkpt lat="45.61460011361121" lon="9.310216851712806"><ele>180.33333333333334</ele><time>2026-04-25T10:09:10Z</time></trkpt><trkpt lat="45.614547152209894" lon="9.310137492630188"><ele>180.16666666666666</ele><time>2026-04-25T10:09:11Z</time></trkpt><trkpt lat="45.61449786509972" lon="9.310068007733273"><ele>180.0</ele><time>2026-04-25T10:09:12Z</time></trkpt><trkpt lat="45.614438525567195" lon="9.309980163015323"><ele>179.75</ele><time>2026-04-25T10:09:14Z</time></trkpt><trkpt lat="45.61435129921481" lon="9.309863098000452"><ele>179.5</ele><time>2026-04-25T10:09:28.001Z</time></trkpt><trkpt lat="45.614270326389544" lon="9.309785730809578"><ele>179.25</ele><time>2026-04-25T10:09:29.001Z</time></trkpt><trkpt lat="45.61417049596845" lon="9.309695501930486"><ele>179.0</ele><time>2026-04-25T10:09:30.001Z</time></trkpt><trkpt lat="45.61405888886842" lon="9.309606301955453"><ele>180.0</ele><time>2026-04-25T10:09:31.001Z</time></trkpt><trkpt lat="45.613926617969526" lon="9.309512042057298"><ele>181.0</ele><time>2026-04-25T10:09:32.001Z</time></trkpt><trkpt lat="45.61379302974132" lon="9.30942013847084"><ele>182.0</ele><time>2026-04-25T10:09:33.001Z</time></trkpt><trkpt lat="45.613640967071326" lon="9.309317999147314"><ele>182.0</ele><time>2026-04-25T10:09:34.001Z</time></trkpt><trkpt lat="45.61348622321947" lon="9.309212649301678"><ele>182.0</ele><time>2026-04-25T10:09:35.001Z</time></trkpt><trkpt lat="45.613331919916604" lon="9.309109368987706"><ele>182.0</ele><time>2026-04-25T10:09:36.001Z</time></trkpt><trkpt lat="45.613189304046344" lon="9.30901538314758"><ele>182.0</ele><time>2026-04-25T10:09:37.001Z</time></trkpt><trkpt lat="45.613057712344094" lon="9.30892386522527"><ele>182.0</ele><time>2026-04-25T10:09:38.001Z</time></trkpt><trkpt lat="45.612932586710244" lon="9.308835058246437"><ele>182.0</ele><time>2026-04-25T10:09:39.001Z</time></trkpt><trkpt lat="45.61283633787226" lon="9.308752306141507"><ele>182.0</ele><time>2026-04-25T10:09:40.001Z</time></trkpt><trkpt lat="45.61275801394154" lon="9.308659874190312"><ele>181.0</ele><time>2026-04-25T10:09:41.001Z</time></trkpt><trkpt lat="45.6126768401166" lon="9.308577827624507"><ele>180.0</ele><time>2026-04-25T10:09:42.001Z</time></trkpt><trkpt lat="45.61257070276094" lon="9.308520690099233"><ele>179.0</ele><time>2026-04-25T10:09:43.001Z</time></trkpt><trkpt lat="45.61245096649473" lon="9.308479866078853"><ele>178.0</ele><time>2026-04-25T10:09:44.001Z</time></trkpt><trkpt lat="45.61232830388087" lon="9.308449831218843"><ele>178.0</ele><time>2026-04-25T10:09:45.001Z</time></trkpt><trkpt lat="45.61222103162527" lon="9.308287472834389"><ele>178.0</ele><time>2026-04-25T10:09:46.001Z</time></trkpt><trkpt lat="45.61210874237165" lon="9.30815023013823"><ele>178.0</ele><time>2026-04-25T10:09:47.001Z</time></trkpt><trkpt lat="45.611986538710674" lon="9.308015086259541"><ele>178.66666666666669</ele><time>2026-04-25T10:09:48.001Z</time></trkpt><trkpt lat="45.611857029688224" lon="9.307882727677189"><ele>179.33333333333334</ele><time>2026-04-25T10:09:49.001Z</time></trkpt><trkpt lat="45.61172326571421" lon="9.307748953514654"><ele>180.0</ele><time>2026-04-25T10:09:50.001Z</time></trkpt><trkpt lat="45.611588393004034" lon="9.307604757597089"><ele>180.0</ele><time>2026-04-25T10:09:51.001Z</time></trkpt><trkpt lat="45.61146719270531" lon="9.307467718803526"><ele>180.0</ele><time>2026-04-25T10:09:52Z</time></trkpt><trkpt lat="45.611351803226285" lon="9.30733623855665"><ele>180.0</ele><time>2026-04-25T10:09:53Z</time></trkpt><trkpt lat="45.61124604000146" lon="9.30722473433257"><ele>180.0</ele><time>2026-04-25T10:09:54Z</time></trkpt><trkpt lat="45.611136622452975" lon="9.307114100267574"><ele>179.8</ele><time>2026-04-25T10:09:55Z</time></trkpt><trkpt lat="45.611039814829816" lon="9.307015308788678"><ele>179.6</ele><time>2026-04-25T10:09:56Z</time></trkpt><trkpt lat="45.61095659337534" lon="9.306928601662756"><ele>179.39999999999998</ele><time>2026-04-25T10:09:57Z</time></trkpt><trkpt lat="45.61089384040205" lon="9.306846905419265"><ele>179.2</ele><time>2026-04-25T10:09:58Z</time></trkpt><trkpt lat="45.6108424610236" lon="9.306764530159407"><ele>179.0</ele><time>2026-04-25T10:09:59Z</time></trkpt><trkpt lat="45.61078520779083" lon="9.306716109320654"><ele>179.0</ele><time>2026-04-25T10:10:00Z</time></trkpt><trkpt lat="45.610660079089776" lon="9.306755353961211"><ele>179.0</ele><time>2026-04-25T10:10:02Z</time></trkpt><trkpt lat="45.61059457910442" lon="9.306841749587758"><ele>179.0</ele><time>2026-04-25T10:10:03Z</time></trkpt><trkpt lat="45.610477152456674" lon="9.306857212910057"><ele>179.0</ele><time>2026-04-25T10:10:04Z</time></trkpt><trkpt lat="45.610350886978495" lon="9.30688129028199"><ele>179.33333333333331</ele><time>2026-04-25T10:10:05Z</time></trkpt><trkpt lat="45.610205982480345" lon="9.306904865207631"><ele>179.66666666666666</ele><time>2026-04-25T10:10:06Z</time></trkpt><trkpt lat="45.610056434187115" lon="9.30693288335625"><ele>180.0</ele><time>2026-04-25T10:10:07Z</time></trkpt><trkpt lat="45.60989662392353" lon="9.306970521279952"><ele>180.0</ele><time>2026-04-25T10:10:08Z</time></trkpt><trkpt lat="45.60974377436272" lon="9.307003003180558"><ele>180.0</ele><time>2026-04-25T10:10:09Z</time></trkpt><trkpt lat="45.60959946695955" lon="9.307034970845294"><ele>180.0</ele><time>2026-04-25T10:10:10Z</time></trkpt><trkpt lat="45.609465242446824" lon="9.307064453984706"><ele>180.0</ele><time>2026-04-25T10:10:11Z</time></trkpt><trkpt lat="45.60934710669091" lon="9.307096494806187"><ele>180.0</ele><time>2026-04-25T10:10:12Z</time></trkpt><trkpt lat="45.60925652403871" lon="9.30712253810295"><ele>180.0</ele><time>2026-04-25T10:10:13Z</time></trkpt><trkpt lat="45.60914009142457" lon="9.307103173496937"><ele>180.0</ele><time>2026-04-25T10:10:15Z</time></trkpt><trkpt lat="45.60904973745201" lon="9.307009282676436"><ele>180.0</ele><time>2026-04-25T10:10:17Z</time></trkpt><trkpt lat="45.608935583833606" lon="9.307106251454888"><ele>180.0</ele><time>2026-04-25T10:10:19Z</time></trkpt><trkpt lat="45.60890002696448" lon="9.307214570676209"><ele>180.0</ele><time>2026-04-25T10:10:20Z</time></trkpt><trkpt lat="45.608806295261786" lon="9.307242698589153"><ele>180.0</ele><time>2026-04-25T10:10:21Z</time></trkpt><trkpt lat="45.60873219871103" lon="9.307257601226905"><ele>180.0</ele><time>2026-04-25T10:10:22Z</time></trkpt><trkpt lat="45.608668884102826" lon="9.307264779115563"><ele>180.0</ele><time>2026-04-25T10:10:23Z</time></trkpt><trkpt lat="45.60855655836947" lon="9.307286262629301"><ele>180.0</ele><time>2026-04-25T10:10:25Z</time></trkpt><trkpt lat="45.60846670052314" lon="9.307291733733525"><ele>179.83333333333334</ele><time>2026-04-25T10:10:27Z</time></trkpt><trkpt lat="45.60838298183392" lon="9.307298370524032"><ele>179.66666666666666</ele><time>2026-04-25T10:10:29Z</time></trkpt><trkpt lat="45.60826776268141" lon="9.307277717187246"><ele>179.5</ele><time>2026-04-25T10:10:31Z</time></trkpt><trkpt lat="45.60819056763497" lon="9.30728209962572"><ele>179.33333333333331</ele><time>2026-04-25T10:10:32Z</time></trkpt><trkpt lat="45.608111954396456" lon="9.307249690493183"><ele>179.16666666666666</ele><time>2026-04-25T10:10:33Z</time></trkpt><trkpt lat="45.60803528361045" lon="9.30722095866635"><ele>179.0</ele><time>2026-04-25T10:10:34Z</time></trkpt><trkpt lat="45.60794815809155" lon="9.307173141842998"><ele>179.0</ele><time>2026-04-25T10:10:35Z</time></trkpt><trkpt lat="45.6078511047109" lon="9.30712077506025"><ele>179.0</ele><time>2026-04-25T10:10:36Z</time></trkpt><trkpt lat="45.607749072474334" lon="9.307060717372346"><ele>179.0</ele><time>2026-04-25T10:10:37Z</time></trkpt><trkpt lat="45.607633060150064" lon="9.307000281888206"><ele>179.0</ele><time>2026-04-25T10:10:38Z</time></trkpt><trkpt lat="45.60751071184491" lon="9.306938469689914"><ele>178.75</ele><time>2026-04-25T10:10:39Z</time></trkpt><trkpt lat="45.60738742303641" lon="9.30687333394718"><ele>178.5</ele><time>2026-04-25T10:10:40Z</time></trkpt><trkpt lat="45.60726830897016" lon="9.30681156958001"><ele>178.25</ele><time>2026-04-25T10:10:41Z</time></trkpt><trkpt lat="45.60715658584785" lon="9.306751070372774"><ele>178.0</ele><time>2026-04-25T10:10:42Z</time></trkpt><trkpt lat="45.60704953064674" lon="9.30669617443962"><ele>177.8</ele><time>2026-04-25T10:10:43Z</time></trkpt><trkpt lat="45.60694481777571" lon="9.306636308663647"><ele>177.60000000000002</ele><time>2026-04-25T10:10:44Z</time></trkpt><trkpt lat="45.60684455413415" lon="9.306577498795331"><ele>177.39999999999998</ele><time>2026-04-25T10:10:45Z</time></trkpt><trkpt lat="45.606746653760425" lon="9.306528872860385"><ele>177.2</ele><time>2026-04-25T10:10:46Z</time></trkpt><trkpt lat="45.606657234535426" lon="9.306478111374235"><ele>177.0</ele><time>2026-04-25T10:10:47Z</time></trkpt><trkpt lat="45.60657158873638" lon="9.306428794020674"><ele>177.2</ele><time>2026-04-25T10:10:48Z</time></trkpt><trkpt lat="45.60648684292693" lon="9.30637969397389"><ele>177.39999999999998</ele><time>2026-04-25T10:10:49Z</time></trkpt><trkpt lat="45.60639978191394" lon="9.306327089230088"><ele>177.60000000000002</ele><time>2026-04-25T10:10:50Z</time></trkpt><trkpt lat="45.606309959305065" lon="9.30628381603162"><ele>177.8</ele><time>2026-04-25T10:10:51Z</time></trkpt><trkpt lat="45.606227039364285" lon="9.306237445193455"><ele>178.0</ele><time>2026-04-25T10:10:52Z</time></trkpt><trkpt lat="45.606143795141804" lon="9.306191648972385"><ele>178.0</ele><time>2026-04-25T10:10:53Z</time></trkpt><trkpt lat="45.60606469129398" lon="9.306146345921247"><ele>178.0</ele><time>2026-04-25T10:10:54Z</time></trkpt><trkpt lat="45.60598299087325" lon="9.30610411082298"><ele>178.0</ele><time>2026-04-25T10:10:55Z</time></trkpt><trkpt lat="45.605906035827935" lon="9.306051638420225"><ele>178.0</ele><time>2026-04-25T10:10:56Z</time></trkpt><trkpt lat="45.60582830764417" lon="9.306012414230535"><ele>178.0</ele><time>2026-04-25T10:10:57Z</time></trkpt><trkpt lat="45.6057508991471" lon="9.305970103055092"><ele>178.0</ele><time>2026-04-25T10:10:58Z</time></trkpt><trkpt lat="45.60567091359222" lon="9.305926405616798"><ele>178.0</ele><time>2026-04-25T10:10:59Z</time></trkpt><trkpt lat="45.60558235289457" lon="9.305879265823148"><ele>178.0</ele><time>2026-04-25T10:11:00Z</time></trkpt><trkpt lat="45.60549878570462" lon="9.305833224577034"><ele>178.0</ele><time>2026-04-25T10:11:01Z</time></trkpt><trkpt lat="45.60542269703119" lon="9.305794955018017"><ele>178.0</ele><time>2026-04-25T10:11:02Z</time></trkpt><trkpt lat="45.60534809088568" lon="9.30575356180845"><ele>178.0</ele><time>2026-04-25T10:11:03Z</time></trkpt><trkpt lat="45.605271419062994" lon="9.30571258962252"><ele>178.0</ele><time>2026-04-25T10:11:04Z</time></trkpt><trkpt lat="45.605196807715444" lon="9.30567710732857"><ele>178.0</ele><time>2026-04-25T10:11:05Z</time></trkpt><trkpt lat="45.60512712640276" lon="9.3056391631085"><ele>178.0</ele><time>2026-04-25T10:11:06Z</time></trkpt><trkpt lat="45.60505282339606" lon="9.30560480719435"><ele>178.0</ele><time>2026-04-25T10:11:07Z</time></trkpt><trkpt lat="45.60495765864636" lon="9.305564720328164"><ele>178.0</ele><time>2026-04-25T10:11:08Z</time></trkpt><trkpt lat="45.604843905075334" lon="9.305510381732978"><ele>178.0</ele><time>2026-04-25T10:11:09Z</time></trkpt><trkpt lat="45.6047197349184" lon="9.305440154139175"><ele>178.0</ele><time>2026-04-25T10:11:10Z</time></trkpt><trkpt lat="45.604580941006304" lon="9.305355265209084"><ele>178.0</ele><time>2026-04-25T10:11:11Z</time></trkpt><trkpt lat="45.6044339619324" lon="9.305269336182464"><ele>178.0</ele><time>2026-04-25T10:11:12Z</time></trkpt><trkpt lat="45.60427802177299" lon="9.305180819011346"><ele>176.66666666666669</ele><time>2026-04-25T10:11:13Z</time></trkpt><trkpt lat="45.60412525188445" lon="9.305093593052309"><ele>175.33333333333334</ele><time>2026-04-25T10:11:14Z</time></trkpt><trkpt lat="45.60397620108719" lon="9.305002582033033"><ele>174.0</ele><time>2026-04-25T10:11:15Z</time></trkpt><trkpt lat="45.60383833909238" lon="9.304901524437724"><ele>174.0</ele><time>2026-04-25T10:11:16Z</time></trkpt><trkpt lat="45.60371051072636" lon="9.304791208313151"><ele>174.0</ele><time>2026-04-25T10:11:17Z</time></trkpt><trkpt lat="45.60359135476656" lon="9.304677172514864"><ele>174.0</ele><time>2026-04-25T10:11:18Z</time></trkpt><trkpt lat="45.60346457832827" lon="9.304567442396417"><ele>174.0</ele><time>2026-04-25T10:11:19Z</time></trkpt><trkpt lat="45.6033409521044" lon="9.304459659122662"><ele>173.75</ele><time>2026-04-25T10:11:20Z</time></trkpt><trkpt lat="45.6032162870787" lon="9.304350670578396"><ele>173.5</ele><time>2026-04-25T10:11:21Z</time></trkpt><trkpt lat="45.603096137830505" lon="9.304242163411178"><ele>173.25</ele><time>2026-04-25T10:11:22.001Z</time></trkpt><trkpt lat="45.60297480522178" lon="9.304131236339284"><ele>173.0</ele><time>2026-04-25T10:11:23.001Z</time></trkpt><trkpt lat="45.60286290980179" lon="9.304030456705865"><ele>172.75</ele><time>2026-04-25T10:11:24.001Z</time></trkpt><trkpt lat="45.602756272690364" lon="9.303933415876687"><ele>172.5</ele><time>2026-04-25T10:11:25.001Z</time></trkpt><trkpt lat="45.60265113134529" lon="9.303842269845685"><ele>172.25</ele><time>2026-04-25T10:11:26.001Z</time></trkpt><trkpt lat="45.60255240730171" lon="9.30375779970324"><ele>172.0</ele><time>2026-04-25T10:11:27.001Z</time></trkpt><trkpt lat="45.60245885682116" lon="9.303672066250313"><ele>172.33333333333334</ele><time>2026-04-25T10:11:28.001Z</time></trkpt><trkpt lat="45.60237460548304" lon="9.303597836438692"><ele>172.66666666666669</ele><time>2026-04-25T10:11:29.001Z</time></trkpt><trkpt lat="45.602300439207355" lon="9.303532408358553"><ele>173.0</ele><time>2026-04-25T10:11:30.001Z</time></trkpt><trkpt lat="45.60223062700361" lon="9.303468944537206"><ele>173.33333333333334</ele><time>2026-04-25T10:11:31.001Z</time></trkpt><trkpt lat="45.60216614364454" lon="9.303413968006934"><ele>173.66666666666666</ele><time>2026-04-25T10:11:32.001Z</time></trkpt><trkpt lat="45.60209862847953" lon="9.303360280142838"><ele>174.0</ele><time>2026-04-25T10:11:33.001Z</time></trkpt><trkpt lat="45.60200727763912" lon="9.30329465060037"><ele>174.33333333333334</ele><time>2026-04-25T10:11:34.001Z</time></trkpt><trkpt lat="45.60189197326029" lon="9.30318938561185"><ele>174.66666666666669</ele><time>2026-04-25T10:11:35.001Z</time></trkpt><trkpt lat="45.601765517025264" lon="9.303052092593116"><ele>175.0</ele><time>2026-04-25T10:11:36.001Z</time></trkpt><trkpt lat="45.60161933311281" lon="9.302917069451402"><ele>175.0</ele><time>2026-04-25T10:11:37.001Z</time></trkpt><trkpt lat="45.601476131626676" lon="9.30280315740759"><ele>175.0</ele><time>2026-04-25T10:11:38.001Z</time></trkpt><trkpt lat="45.60135586577535" lon="9.302693410335033"><ele>175.0</ele><time>2026-04-25T10:11:39.001Z</time></trkpt><trkpt lat="45.60125162609688" lon="9.302605126443636"><ele>175.0</ele><time>2026-04-25T10:11:40.001Z</time></trkpt><trkpt lat="45.60115909276565" lon="9.30250818894715"><ele>174.0</ele><time>2026-04-25T10:11:41.001Z</time></trkpt><trkpt lat="45.60104694728205" lon="9.302397900793482"><ele>173.0</ele><time>2026-04-25T10:11:42.001Z</time></trkpt><trkpt lat="45.60092158753245" lon="9.302267642062438"><ele>172.0</ele><time>2026-04-25T10:11:43.001Z</time></trkpt><trkpt lat="45.600827000127865" lon="9.302206511699902"><ele>171.0</ele><time>2026-04-25T10:11:44.001Z</time></trkpt><trkpt lat="45.60070186707647" lon="9.3020973941955"><ele>171.0</ele><time>2026-04-25T10:11:45.001Z</time></trkpt><trkpt lat="45.60057914905078" lon="9.301987103348244"><ele>171.0</ele><time>2026-04-25T10:11:46.001Z</time></trkpt><trkpt lat="45.60046308365209" lon="9.301878983061096"><ele>171.0</ele><time>2026-04-25T10:11:47.001Z</time></trkpt><trkpt lat="45.60035290520006" lon="9.301772973384955"><ele>171.0</ele><time>2026-04-25T10:11:48.001Z</time></trkpt><trkpt lat="45.600253750521574" lon="9.301678773564907"><ele>170.8</ele><time>2026-04-25T10:11:49.001Z</time></trkpt><trkpt lat="45.600163777274716" lon="9.301596621721476"><ele>170.60000000000002</ele><time>2026-04-25T10:11:50.001Z</time></trkpt><trkpt lat="45.60007481804581" lon="9.301513542817318"><ele>170.4</ele><time>2026-04-25T10:11:51.001Z</time></trkpt><trkpt lat="45.59998092462336" lon="9.30142969125951"><ele>170.2</ele><time>2026-04-25T10:11:52.001Z</time></trkpt><trkpt lat="45.59987431247539" lon="9.30133776934893"><ele>170.0</ele><time>2026-04-25T10:11:53.001Z</time></trkpt><trkpt lat="45.599761737878694" lon="9.301241439361739"><ele>170.5</ele><time>2026-04-25T10:11:54.001Z</time></trkpt><trkpt lat="45.59964346841227" lon="9.301133380315841"><ele>171.0</ele><time>2026-04-25T10:11:55.001Z</time></trkpt><trkpt lat="45.599515792364315" lon="9.301016696649677"><ele>171.5</ele><time>2026-04-25T10:11:56.001Z</time></trkpt><trkpt lat="45.59938720060578" lon="9.300901559344167"><ele>172.0</ele><time>2026-04-25T10:11:57.001Z</time></trkpt><trkpt lat="45.59926608286061" lon="9.300792882940378"><ele>172.0</ele><time>2026-04-25T10:11:57.999Z</time></trkpt><trkpt lat="45.59915388024562" lon="9.300684356244007"><ele>172.0</ele><time>2026-04-25T10:11:58.999Z</time></trkpt><trkpt lat="45.599049481444986" lon="9.300577191098434"><ele>172.0</ele><time>2026-04-25T10:11:59.999Z</time></trkpt><trkpt lat="45.59893867453148" lon="9.300474356553218"><ele>172.0</ele><time>2026-04-25T10:12:00.999Z</time></trkpt><trkpt lat="45.598829147975096" lon="9.30036224554294"><ele>172.0</ele><time>2026-04-25T10:12:01.999Z</time></trkpt><trkpt lat="45.59872424584008" lon="9.300230872045322"><ele>172.0</ele><time>2026-04-25T10:12:02.999Z</time></trkpt><trkpt lat="45.59864071169351" lon="9.30008021847972"><ele>172.0</ele><time>2026-04-25T10:12:03.999Z</time></trkpt><trkpt lat="45.598607646665926" lon="9.299906910580358"><ele>172.0</ele><time>2026-04-25T10:12:04.999Z</time></trkpt><trkpt lat="45.59858185046426" lon="9.299708932768915"><ele>172.0</ele><time>2026-04-25T10:12:05.999Z</time></trkpt><trkpt lat="45.59859266954609" lon="9.299520805418137"><ele>172.0</ele><time>2026-04-25T10:12:06.999Z</time></trkpt><trkpt lat="45.598624649829624" lon="9.299327815448892"><ele>172.0</ele><time>2026-04-25T10:12:08Z</time></trkpt><trkpt lat="45.59866086904016" lon="9.29914757189342"><ele>172.0</ele><time>2026-04-25T10:12:09Z</time></trkpt><trkpt lat="45.59868910093934" lon="9.29898714512746"><ele>172.0</ele><time>2026-04-25T10:12:10Z</time></trkpt><trkpt lat="45.59871528796931" lon="9.298838231232036"><ele>172.0</ele><time>2026-04-25T10:12:11Z</time></trkpt><trkpt lat="45.59873883237308" lon="9.298712038552498"><ele>172.0</ele><time>2026-04-25T10:12:12Z</time></trkpt><trkpt lat="45.598760120512" lon="9.298606897954356"><ele>172.0</ele><time>2026-04-25T10:12:13Z</time></trkpt><trkpt lat="45.598780407317186" lon="9.298508947727889"><ele>172.0</ele><time>2026-04-25T10:12:14Z</time></trkpt><trkpt lat="45.59880001047868" lon="9.298414191439198"><ele>172.0</ele><time>2026-04-25T10:12:15Z</time></trkpt><trkpt lat="45.59881797780349" lon="9.298322744040735"><ele>172.0</ele><time>2026-04-25T10:12:16Z</time></trkpt><trkpt lat="45.598835493397324" lon="9.298232137684064"><ele>172.0</ele><time>2026-04-25T10:12:17Z</time></trkpt><trkpt lat="45.59885520901218" lon="9.29814471210691"><ele>172.0</ele><time>2026-04-25T10:12:18Z</time></trkpt><trkpt lat="45.598877821468776" lon="9.298044926814734"><ele>172.0</ele><time>2026-04-25T10:12:19Z</time></trkpt><trkpt lat="45.59890302208419" lon="9.297925346922872"><ele>172.0</ele><time>2026-04-25T10:12:20Z</time></trkpt><trkpt lat="45.598932758449116" lon="9.297792962964502"><ele>172.0</ele><time>2026-04-25T10:12:21Z</time></trkpt><trkpt lat="45.59896074130491" lon="9.297652005721972"><ele>172.16666666666669</ele><time>2026-04-25T10:12:22Z</time></trkpt><trkpt lat="45.5989936582771" lon="9.297511800654569"><ele>172.33333333333334</ele><time>2026-04-25T10:12:23Z</time></trkpt><trkpt lat="45.59902274455842" lon="9.297386082971121"><ele>172.5</ele><time>2026-04-25T10:12:24Z</time></trkpt><trkpt lat="45.59904595377963" lon="9.297268647264486"><ele>172.66666666666666</ele><time>2026-04-25T10:12:25Z</time></trkpt><trkpt lat="45.59907425956716" lon="9.297162173197693"><ele>172.83333333333331</ele><time>2026-04-25T10:12:26Z</time></trkpt><trkpt lat="45.599107489384465" lon="9.297064848623288"><ele>173.0</ele><time>2026-04-25T10:12:27Z</time></trkpt><trkpt lat="45.599138150231695" lon="9.296967275347395"><ele>173.0</ele><time>2026-04-25T10:12:28Z</time></trkpt><trkpt lat="45.599166084531184" lon="9.296884426275593"><ele>173.0</ele><time>2026-04-25T10:12:29Z</time></trkpt><trkpt lat="45.599243365696985" lon="9.29675845123451"><ele>173.0</ele><time>2026-04-25T10:12:31Z</time></trkpt><trkpt lat="45.59928442239037" lon="9.296636742314606"><ele>173.0</ele><time>2026-04-25T10:12:33Z</time></trkpt><trkpt lat="45.59925201409823" lon="9.296552005717169"><ele>173.0</ele><time>2026-04-25T10:12:34Z</time></trkpt><trkpt lat="45.599190804326156" lon="9.296483381167437"><ele>173.0</ele><time>2026-04-25T10:12:35Z</time></trkpt><trkpt lat="45.599112545300926" lon="9.296421510693083"><ele>174.25</ele><time>2026-04-25T10:12:36Z</time></trkpt><trkpt lat="45.59902899009678" lon="9.296351080522667"><ele>175.5</ele><time>2026-04-25T10:12:37Z</time></trkpt><trkpt lat="45.598934798382544" lon="9.296274957431335"><ele>176.75</ele><time>2026-04-25T10:12:38Z</time></trkpt><trkpt lat="45.59882540646643" lon="9.296194732628516"><ele>178.0</ele><time>2026-04-25T10:12:39Z</time></trkpt><trkpt lat="45.59870250519121" lon="9.296111047175541"><ele>177.0</ele><time>2026-04-25T10:12:40Z</time></trkpt><trkpt lat="45.59856776885863" lon="9.296019983511698"><ele>176.0</ele><time>2026-04-25T10:12:41Z</time></trkpt><trkpt lat="45.59842514613721" lon="9.295919720391142"><ele>175.0</ele><time>2026-04-25T10:12:42Z</time></trkpt><trkpt lat="45.5982748071213" lon="9.295812183449902"><ele>175.0</ele><time>2026-04-25T10:12:43Z</time></trkpt><trkpt lat="45.59812228560961" lon="9.29570206399708"><ele>175.0</ele><time>2026-04-25T10:12:44Z</time></trkpt><trkpt lat="45.59796521880395" lon="9.295590744118613"><ele>175.0</ele><time>2026-04-25T10:12:45Z</time></trkpt><trkpt lat="45.597805427307634" lon="9.295476792257721"><ele>174.33333333333334</ele><time>2026-04-25T10:12:46Z</time></trkpt><trkpt lat="45.59764513812378" lon="9.295361577849562"><ele>173.66666666666666</ele><time>2026-04-25T10:12:47Z</time></trkpt><trkpt lat="45.59748541912685" lon="9.29524767691161"><ele>173.0</ele><time>2026-04-25T10:12:48Z</time></trkpt><trkpt lat="45.597333641821976" lon="9.295139323694155"><ele>173.0</ele><time>2026-04-25T10:12:49Z</time></trkpt><trkpt lat="45.59718889899613" lon="9.2950339077098"><ele>173.0</ele><time>2026-04-25T10:12:50Z</time></trkpt><trkpt lat="45.59703689299635" lon="9.294927899449663"><ele>173.0</ele><time>2026-04-25T10:12:51Z</time></trkpt><trkpt lat="45.59688496988755" lon="9.294822355489002"><ele>173.25</ele><time>2026-04-25T10:12:52Z</time></trkpt><trkpt lat="45.596742821961335" lon="9.294721763514655"><ele>173.5</ele><time>2026-04-25T10:12:53Z</time></trkpt><trkpt lat="45.59661787103996" lon="9.294630437903354"><ele>173.75</ele><time>2026-04-25T10:12:54Z</time></trkpt><trkpt lat="45.596506295197784" lon="9.294552367581009"><ele>174.0</ele><time>2026-04-25T10:12:55Z</time></trkpt><trkpt lat="45.596399636130975" lon="9.29447672154233"><ele>174.0</ele><time>2026-04-25T10:12:56Z</time></trkpt><trkpt lat="45.59629184689979" lon="9.294401068730487"><ele>174.0</ele><time>2026-04-25T10:12:57Z</time></trkpt><trkpt lat="45.59618769181652" lon="9.294327394910312"><ele>174.0</ele><time>2026-04-25T10:12:58Z</time></trkpt><trkpt lat="45.596077293697796" lon="9.294249275714277"><ele>174.0</ele><time>2026-04-25T10:12:59Z</time></trkpt><trkpt lat="45.59595998279433" lon="9.294166771344159"><ele>172.5</ele><time>2026-04-25T10:13:00Z</time></trkpt><trkpt lat="45.59583817656514" lon="9.294084506329549"><ele>171.0</ele><time>2026-04-25T10:13:01Z</time></trkpt><trkpt lat="45.595712070765266" lon="9.29399935827236"><ele>169.5</ele><time>2026-04-25T10:13:02Z</time></trkpt><trkpt lat="45.59558317579046" lon="9.29390724834778"><ele>168.0</ele><time>2026-04-25T10:13:03Z</time></trkpt><trkpt lat="45.59545281694535" lon="9.293816219292252"><ele>167.33333333333334</ele><time>2026-04-25T10:13:04Z</time></trkpt><trkpt lat="45.59532119078681" lon="9.293721709203599"><ele>166.66666666666669</ele><time>2026-04-25T10:13:05Z</time></trkpt><trkpt lat="45.5951841079664" lon="9.293624555474802"><ele>166.0</ele><time>2026-04-25T10:13:06Z</time></trkpt><trkpt lat="45.595047595456144" lon="9.293518572329544"><ele>166.0</ele><time>2026-04-25T10:13:07Z</time></trkpt><trkpt lat="45.59491609757934" lon="9.293408229127813"><ele>166.0</ele><time>2026-04-25T10:13:08Z</time></trkpt><trkpt lat="45.59478994962964" lon="9.293292005829082"><ele>166.0</ele><time>2026-04-25T10:13:09Z</time></trkpt><trkpt lat="45.59467509985922" lon="9.29317688427293"><ele>166.0</ele><time>2026-04-25T10:13:10Z</time></trkpt><trkpt lat="45.59456404238334" lon="9.293059634906543"><ele>166.0</ele><time>2026-04-25T10:13:11Z</time></trkpt><trkpt lat="45.5944619674129" lon="9.292946811143777"><ele>166.0</ele><time>2026-04-25T10:13:12Z</time></trkpt><trkpt lat="45.59437677303992" lon="9.292847072137983"><ele>166.0</ele><time>2026-04-25T10:13:13Z</time></trkpt><trkpt lat="45.594312003782434" lon="9.292772894232444"><ele>166.0</ele><time>2026-04-25T10:13:14Z</time></trkpt><trkpt lat="45.594232056041704" lon="9.292685286352254"><ele>166.0</ele><time>2026-04-25T10:13:16Z</time></trkpt><trkpt lat="45.59416309733551" lon="9.292606002633162"><ele>166.0</ele><time>2026-04-25T10:13:18Z</time></trkpt><trkpt lat="45.59408179080633" lon="9.292510833371223"><ele>166.0</ele><time>2026-04-25T10:13:20.001Z</time></trkpt><trkpt lat="45.59402679785538" lon="9.292439480767683"><ele>166.0</ele><time>2026-04-25T10:13:21.001Z</time></trkpt><trkpt lat="45.593968987823345" lon="9.292369217801824"><ele>166.0</ele><time>2026-04-25T10:13:22.001Z</time></trkpt><trkpt lat="45.59391173345693" lon="9.292302439814705"><ele>166.0</ele><time>2026-04-25T10:13:23.001Z</time></trkpt><trkpt lat="45.59384275989694" lon="9.29222127718344"><ele>166.0</ele><time>2026-04-25T10:13:24.001Z</time></trkpt><trkpt lat="45.59377291776737" lon="9.292136047290203"><ele>166.0</ele><time>2026-04-25T10:13:25.001Z</time></trkpt><trkpt lat="45.593696111981856" lon="9.29204464898603"><ele>166.0</ele><time>2026-04-25T10:13:26.001Z</time></trkpt><trkpt lat="45.59361485330668" lon="9.291943959385382"><ele>166.0</ele><time>2026-04-25T10:13:27.001Z</time></trkpt><trkpt lat="45.593531539557105" lon="9.291842281131236"><ele>166.0</ele><time>2026-04-25T10:13:28.001Z</time></trkpt><trkpt lat="45.59343612040015" lon="9.291731191216918"><ele>166.0</ele><time>2026-04-25T10:13:29.001Z</time></trkpt><trkpt lat="45.5933407392167" lon="9.291618640005677"><ele>166.0</ele><time>2026-04-25T10:13:30.001Z</time></trkpt><trkpt lat="45.59325163791799" lon="9.291515062143999"><ele>166.0</ele><time>2026-04-25T10:13:31.001Z</time></trkpt><trkpt lat="45.593166173567326" lon="9.291413802570991"><ele>166.0</ele><time>2026-04-25T10:13:32.001Z</time></trkpt><trkpt lat="45.59308606977437" lon="9.291317989712713"><ele>166.0</ele><time>2026-04-25T10:13:33.001Z</time></trkpt><trkpt lat="45.5930085255986" lon="9.291221645877036"><ele>166.0</ele><time>2026-04-25T10:13:34.001Z</time></trkpt><trkpt lat="45.592932442971396" lon="9.291130481538547"><ele>165.83333333333334</ele><time>2026-04-25T10:13:35.001Z</time></trkpt><trkpt lat="45.59286300129988" lon="9.291047340009689"><ele>165.66666666666669</ele><time>2026-04-25T10:13:36.001Z</time></trkpt><trkpt lat="45.592796714077075" lon="9.290967864380951"><ele>165.5</ele><time>2026-04-25T10:13:37.001Z</time></trkpt><trkpt lat="45.592734409472236" lon="9.290888327471006"><ele>165.33333333333334</ele><time>2026-04-25T10:13:38.001Z</time></trkpt><trkpt lat="45.592672687258215" lon="9.290810746667368"><ele>165.16666666666666</ele><time>2026-04-25T10:13:39.001Z</time></trkpt><trkpt lat="45.59261602165121" lon="9.290740448784174"><ele>165.0</ele><time>2026-04-25T10:13:40.001Z</time></trkpt><trkpt lat="45.59255774480935" lon="9.290680853367846"><ele>165.0</ele><time>2026-04-25T10:13:41.001Z</time></trkpt><trkpt lat="45.59249819986353" lon="9.290619671454477"><ele>165.0</ele><time>2026-04-25T10:13:42.001Z</time></trkpt><trkpt lat="45.59244364096773" lon="9.290527067966131"><ele>165.0</ele><time>2026-04-25T10:13:43.001Z</time></trkpt><trkpt lat="45.59237509539507" lon="9.29044474591282"><ele>165.0</ele><time>2026-04-25T10:13:44.001Z</time></trkpt><trkpt lat="45.592304990320706" lon="9.290361428374064"><ele>165.0</ele><time>2026-04-25T10:13:45.001Z</time></trkpt><trkpt lat="45.59224283936881" lon="9.29028586986857"><ele>165.0</ele><time>2026-04-25T10:13:46.001Z</time></trkpt><trkpt lat="45.592191831934045" lon="9.290223701990167"><ele>164.83333333333334</ele><time>2026-04-25T10:13:47.001Z</time></trkpt><trkpt lat="45.59209714006075" lon="9.290108298108317"><ele>164.66666666666666</ele><time>2026-04-25T10:13:49.001Z</time></trkpt><trkpt lat="45.59204069200933" lon="9.290066710646107"><ele>164.5</ele><time>2026-04-25T10:13:50.001Z</time></trkpt><trkpt lat="45.59196858311227" lon="9.289973670440153"><ele>164.33333333333331</ele><time>2026-04-25T10:13:52.001Z</time></trkpt><trkpt lat="45.591899933239674" lon="9.289894741676846"><ele>164.16666666666666</ele><time>2026-04-25T10:13:54.001Z</time></trkpt><trkpt lat="45.591843378056524" lon="9.289825747920656"><ele>164.0</ele><time>2026-04-25T10:13:55.001Z</time></trkpt><trkpt lat="45.59178893538042" lon="9.289761185416575"><ele>164.14285714285714</ele><time>2026-04-25T10:13:56.001Z</time></trkpt><trkpt lat="45.591737387377044" lon="9.289694882195036"><ele>164.28571428571428</ele><time>2026-04-25T10:13:57.001Z</time></trkpt><trkpt lat="45.591683223656226" lon="9.289625090661099"><ele>164.42857142857144</ele><time>2026-04-25T10:13:58.001Z</time></trkpt><trkpt lat="45.591628605755574" lon="9.289557844744893"><ele>164.57142857142856</ele><time>2026-04-25T10:13:59.001Z</time></trkpt><trkpt lat="45.591574079236345" lon="9.289485929818216"><ele>164.71428571428572</ele><time>2026-04-25T10:14:00.001Z</time></trkpt><trkpt lat="45.59151982885173" lon="9.289414287006691"><ele>164.85714285714286</ele><time>2026-04-25T10:14:01.001Z</time></trkpt><trkpt lat="45.591458026236396" lon="9.289345098913806"><ele>165.0</ele><time>2026-04-25T10:14:02.001Z</time></trkpt><trkpt lat="45.591397258922555" lon="9.289269276851337"><ele>165.0</ele><time>2026-04-25T10:14:03.001Z</time></trkpt><trkpt lat="45.5913321502182" lon="9.289190413650351"><ele>165.0</ele><time>2026-04-25T10:14:03.999Z</time></trkpt><trkpt lat="45.59126484855601" lon="9.289115343162921"><ele>165.0</ele><time>2026-04-25T10:14:04.999Z</time></trkpt><trkpt lat="45.591194833481914" lon="9.289032766822219"><ele>165.0</ele><time>2026-04-25T10:14:05.999Z</time></trkpt><trkpt lat="45.59112354781053" lon="9.288946393029248"><ele>165.0</ele><time>2026-04-25T10:14:06.999Z</time></trkpt><trkpt lat="45.591046520841246" lon="9.288847679745526"><ele>165.0</ele><time>2026-04-25T10:14:07.999Z</time></trkpt><trkpt lat="45.59096350439522" lon="9.288751987535663"><ele>165.0</ele><time>2026-04-25T10:14:08.999Z</time></trkpt><trkpt lat="45.59087724776496" lon="9.288650518415672"><ele>165.0</ele><time>2026-04-25T10:14:09.999Z</time></trkpt><trkpt lat="45.59079117778248" lon="9.288544159544879"><ele>165.0</ele><time>2026-04-25T10:14:10.999Z</time></trkpt><trkpt lat="45.59071089250111" lon="9.28844949272179"><ele>165.0</ele><time>2026-04-25T10:14:11.999Z</time></trkpt><trkpt lat="45.59063334629636" lon="9.28835956930107"><ele>165.0</ele><time>2026-04-25T10:14:12.999Z</time></trkpt><trkpt lat="45.59055904657804" lon="9.288272134236044"><ele>165.0</ele><time>2026-04-25T10:14:13.999Z</time></trkpt><trkpt lat="45.59048580760614" lon="9.288186044952981"><ele>165.0</ele><time>2026-04-25T10:14:14.999Z</time></trkpt><trkpt lat="45.590415518208125" lon="9.288103426863493"><ele>165.0</ele><time>2026-04-25T10:14:15.999Z</time></trkpt><trkpt lat="45.590348137286504" lon="9.288022461333266"><ele>165.0</ele><time>2026-04-25T10:14:16.999Z</time></trkpt><trkpt lat="45.5902852902934" lon="9.287949162809365"><ele>165.00000000000003</ele><time>2026-04-25T10:14:17.999Z</time></trkpt><trkpt lat="45.590228865649394" lon="9.287873165731098"><ele>165.0</ele><time>2026-04-25T10:14:18.999Z</time></trkpt><trkpt lat="45.59017418609918" lon="9.28779811377586"><ele>165.0</ele><time>2026-04-25T10:14:19.999Z</time></trkpt><trkpt lat="45.59012149248982" lon="9.287733213977416"><ele>165.0</ele><time>2026-04-25T10:14:20.999Z</time></trkpt><trkpt lat="45.59006388641092" lon="9.287666834818769"><ele>165.0</ele><time>2026-04-25T10:14:21.999Z</time></trkpt><trkpt lat="45.59001031989534" lon="9.287601913551068"><ele>165.00000000000003</ele><time>2026-04-25T10:14:22.999Z</time></trkpt><trkpt lat="45.589952980999186" lon="9.287525687122766"><ele>165.0</ele><time>2026-04-25T10:14:23.999Z</time></trkpt><trkpt lat="45.58989309973908" lon="9.287452550893208"><ele>165.0</ele><time>2026-04-25T10:14:24.999Z</time></trkpt><trkpt lat="45.589833948567446" lon="9.28738211977741"><ele>165.0</ele><time>2026-04-25T10:14:25.999Z</time></trkpt><trkpt lat="45.58978011950164" lon="9.287309932342716"><ele>165.0</ele><time>2026-04-25T10:14:26.999Z</time></trkpt><trkpt lat="45.589722510655236" lon="9.28722193059508"><ele>165.0</ele><time>2026-04-25T10:14:27.999Z</time></trkpt><trkpt lat="45.58966604239526" lon="9.287143265614441"><ele>165.0</ele><time>2026-04-25T10:14:29Z</time></trkpt><trkpt lat="45.58961328415299" lon="9.287076179989464"><ele>165.0</ele><time>2026-04-25T10:14:30Z</time></trkpt><trkpt lat="45.58955172854675" lon="9.286988129867549"><ele>164.83333333333334</ele><time>2026-04-25T10:14:32Z</time></trkpt><trkpt lat="45.58949448112892" lon="9.286898285624105"><ele>164.66666666666666</ele><time>2026-04-25T10:14:36Z</time></trkpt><trkpt lat="45.58944515008077" lon="9.286823953450483"><ele>164.5</ele><time>2026-04-25T10:14:38Z</time></trkpt><trkpt lat="45.589377843797074" lon="9.286732942301605"><ele>164.33333333333331</ele><time>2026-04-25T10:14:40Z</time></trkpt><trkpt lat="45.589304087828495" lon="9.286634386882547"><ele>164.16666666666666</ele><time>2026-04-25T10:14:42Z</time></trkpt><trkpt lat="45.58923534858368" lon="9.286533613520573"><ele>164.0</ele><time>2026-04-25T10:14:44Z</time></trkpt><trkpt lat="45.589145209354434" lon="9.286419075790572"><ele>164.33333333333331</ele><time>2026-04-25T10:14:46Z</time></trkpt><trkpt lat="45.58909722826716" lon="9.286358412504386"><ele>164.66666666666666</ele><time>2026-04-25T10:14:47Z</time></trkpt><trkpt lat="45.58904866306219" lon="9.286292282204187"><ele>165.0</ele><time>2026-04-25T10:14:48Z</time></trkpt><trkpt lat="45.588996622356035" lon="9.286225341550862"><ele>165.33333333333334</ele><time>2026-04-25T10:14:49Z</time></trkpt><trkpt lat="45.5889479961653" lon="9.286159344920955"><ele>165.66666666666669</ele><time>2026-04-25T10:14:50Z</time></trkpt><trkpt lat="45.588867847944044" lon="9.286062384846769"><ele>166.0</ele><time>2026-04-25T10:14:51Z</time></trkpt><trkpt lat="45.588795403775435" lon="9.285971657683081"><ele>166.0</ele><time>2026-04-25T10:14:52Z</time></trkpt><trkpt lat="45.58872334270195" lon="9.28587378791745"><ele>166.0</ele><time>2026-04-25T10:14:53Z</time></trkpt><trkpt lat="45.588655504109944" lon="9.285772564697032"><ele>166.0</ele><time>2026-04-25T10:14:54Z</time></trkpt><trkpt lat="45.58859042484154" lon="9.285683046811169"><ele>166.0</ele><time>2026-04-25T10:14:55Z</time></trkpt><trkpt lat="45.588534977736494" lon="9.285606089266956"><ele>166.0</ele><time>2026-04-25T10:14:56Z</time></trkpt><trkpt lat="45.58848462226153" lon="9.28554364222299"><ele>166.0</ele><time>2026-04-25T10:14:57Z</time></trkpt><trkpt lat="45.588397265055406" lon="9.285435014972514"><ele>165.60000000000002</ele><time>2026-04-25T10:14:59Z</time></trkpt><trkpt lat="45.588333856519384" lon="9.285348303764499"><ele>165.2</ele><time>2026-04-25T10:15:01Z</time></trkpt><trkpt lat="45.58833446408607" lon="9.285193566973206"><ele>164.8</ele><time>2026-04-25T10:15:58.001Z</time></trkpt><trkpt lat="45.588242515801326" lon="9.285084153179502"><ele>164.39999999999998</ele><time>2026-04-25T10:16:00.001Z</time></trkpt><trkpt lat="45.58812351978887" lon="9.285014038240666"><ele>164.0</ele><time>2026-04-25T10:16:01.001Z</time></trkpt><trkpt lat="45.58803712265842" lon="9.28490227900212"><ele>164.0</ele><time>2026-04-25T10:16:02.001Z</time></trkpt><trkpt lat="45.58793564895645" lon="9.284782362412239"><ele>164.0</ele><time>2026-04-25T10:16:03.001Z</time></trkpt><trkpt lat="45.58782607735204" lon="9.284651586093615"><ele>164.0</ele><time>2026-04-25T10:16:04.001Z</time></trkpt><trkpt lat="45.58771048611497" lon="9.284506516581013"><ele>164.0</ele><time>2026-04-25T10:16:05.001Z</time></trkpt><trkpt lat="45.58760009589119" lon="9.284344648466496"><ele>164.33333333333331</ele><time>2026-04-25T10:16:06.001Z</time></trkpt><trkpt lat="45.58748645783399" lon="9.284184866147319"><ele>164.66666666666666</ele><time>2026-04-25T10:16:07.001Z</time></trkpt><trkpt lat="45.58737133389575" lon="9.284032021409807"><ele>165.0</ele><time>2026-04-25T10:16:08.001Z</time></trkpt><trkpt lat="45.587260665085665" lon="9.283882868589759"><ele>165.66666666666666</ele><time>2026-04-25T10:16:09.001Z</time></trkpt><trkpt lat="45.587149308205156" lon="9.283731680832725"><ele>166.33333333333331</ele><time>2026-04-25T10:16:09.998Z</time></trkpt><trkpt lat="45.587037778310005" lon="9.283585460826895"><ele>167.0</ele><time>2026-04-25T10:16:10.998Z</time></trkpt><trkpt lat="45.58692724578592" lon="9.283440813246344"><ele>166.25</ele><time>2026-04-25T10:16:11.998Z</time></trkpt><trkpt lat="45.58683032522763" lon="9.283291860645354"><ele>165.5</ele><time>2026-04-25T10:16:12.998Z</time></trkpt><trkpt lat="45.58672988119081" lon="9.28315787144535"><ele>164.75</ele><time>2026-04-25T10:16:13.998Z</time></trkpt><trkpt lat="45.5866317169267" lon="9.283026923464405"><ele>164.0</ele><time>2026-04-25T10:16:14.998Z</time></trkpt><trkpt lat="45.58653732104832" lon="9.282901432843335"><ele>164.0</ele><time>2026-04-25T10:16:15.998Z</time></trkpt><trkpt lat="45.586446236941185" lon="9.282781303927845"><ele>164.0</ele><time>2026-04-25T10:16:16.999Z</time></trkpt><trkpt lat="45.58636124467456" lon="9.282669209437438"><ele>164.0</ele><time>2026-04-25T10:16:17.999Z</time></trkpt><trkpt lat="45.586275666445886" lon="9.28257806722318"><ele>164.0</ele><time>2026-04-25T10:16:18.999Z</time></trkpt><trkpt lat="45.58620530542224" lon="9.282479003760244"><ele>164.0</ele><time>2026-04-25T10:16:19.999Z</time></trkpt><trkpt lat="45.58614024289728" lon="9.282392841153252"><ele>164.2</ele><time>2026-04-25T10:16:20.999Z</time></trkpt><trkpt lat="45.58607810189996" lon="9.282313809590681"><ele>164.39999999999998</ele><time>2026-04-25T10:16:21.999Z</time></trkpt><trkpt lat="45.58601290613963" lon="9.282240265795785"><ele>164.6</ele><time>2026-04-25T10:16:22.999Z</time></trkpt><trkpt lat="45.58594313580166" lon="9.282145897002264"><ele>164.8</ele><time>2026-04-25T10:16:23.999Z</time></trkpt><trkpt lat="45.58586918499382" lon="9.28204544344333"><ele>165.0</ele><time>2026-04-25T10:16:24.999Z</time></trkpt><trkpt lat="45.58579041044171" lon="9.281937476850977"><ele>165.0</ele><time>2026-04-25T10:16:25.999Z</time></trkpt><trkpt lat="45.58570377972733" lon="9.281836757789595"><ele>165.0</ele><time>2026-04-25T10:16:26.999Z</time></trkpt><trkpt lat="45.58562458962667" lon="9.28172887188882"><ele>165.0</ele><time>2026-04-25T10:16:27.999Z</time></trkpt><trkpt lat="45.58554405308222" lon="9.281619385919413"><ele>165.0</ele><time>2026-04-25T10:16:28.999Z</time></trkpt><trkpt lat="45.5854628425997" lon="9.281505523196634"><ele>165.0</ele><time>2026-04-25T10:16:29.999Z</time></trkpt><trkpt lat="45.58539211976289" lon="9.281396361422642"><ele>164.33333333333334</ele><time>2026-04-25T10:16:30.999Z</time></trkpt><trkpt lat="45.58532403601866" lon="9.281303143647133"><ele>163.66666666666666</ele><time>2026-04-25T10:16:31.999Z</time></trkpt><trkpt lat="45.58527207731123" lon="9.281210759690227"><ele>163.0</ele><time>2026-04-25T10:16:32.999Z</time></trkpt><trkpt lat="45.585225228477725" lon="9.281143791524352"><ele>162.33333333333331</ele><time>2026-04-25T10:16:33.999Z</time></trkpt><trkpt lat="45.58517111638644" lon="9.281076656067386"><ele>161.66666666666666</ele><time>2026-04-25T10:16:35.999Z</time></trkpt><trkpt lat="45.58505830751574" lon="9.281138979217813"><ele>161.0</ele><time>2026-04-25T10:16:37.999Z</time></trkpt><trkpt lat="45.58501141632333" lon="9.281213957648742"><ele>161.0</ele><time>2026-04-25T10:16:38.999Z</time></trkpt><trkpt lat="45.584932924673154" lon="9.281257976746673"><ele>161.0</ele><time>2026-04-25T10:16:39.999Z</time></trkpt><trkpt lat="45.58484374442631" lon="9.28133715095357"><ele>161.0</ele><time>2026-04-25T10:16:40.999Z</time></trkpt><trkpt lat="45.5847505677139" lon="9.281424515712418"><ele>161.0</ele><time>2026-04-25T10:16:41.999Z</time></trkpt><trkpt lat="45.584668901003745" lon="9.281529578226284"><ele>161.0</ele><time>2026-04-25T10:16:43Z</time></trkpt><trkpt lat="45.58457850035041" lon="9.281604774981732"><ele>161.5</ele><time>2026-04-25T10:16:44Z</time></trkpt><trkpt lat="45.584499059785685" lon="9.281671089410667"><ele>162.0</ele><time>2026-04-25T10:16:45Z</time></trkpt><trkpt lat="45.58442321530907" lon="9.281720936304643"><ele>162.5</ele><time>2026-04-25T10:16:46Z</time></trkpt><trkpt lat="45.58434965758344" lon="9.281746527003492"><ele>163.0</ele><time>2026-04-25T10:16:47Z</time></trkpt><trkpt lat="45.584285885124864" lon="9.281742433346558"><ele>163.5</ele><time>2026-04-25T10:16:48Z</time></trkpt><trkpt lat="45.58420076563432" lon="9.281717652814923"><ele>164.0</ele><time>2026-04-25T10:16:50Z</time></trkpt><trkpt lat="45.58411487669638" lon="9.281672461890365"><ele>164.0</ele><time>2026-04-25T10:17:24Z</time></trkpt><trkpt lat="45.58401115207158" lon="9.28162620962348"><ele>164.0</ele><time>2026-04-25T10:17:25Z</time></trkpt><trkpt lat="45.583874079656155" lon="9.281537104073355"><ele>164.0</ele><time>2026-04-25T10:17:26Z</time></trkpt><trkpt lat="45.583723858361886" lon="9.281446686173641"><ele>164.0</ele><time>2026-04-25T10:17:27Z</time></trkpt><trkpt lat="45.58355661358449" lon="9.281345982196488"><ele>164.25</ele><time>2026-04-25T10:17:28Z</time></trkpt><trkpt lat="45.583404729716456" lon="9.281259465457333"><ele>164.5</ele><time>2026-04-25T10:17:29Z</time></trkpt><trkpt lat="45.58326697666854" lon="9.281207448117815"><ele>164.75</ele><time>2026-04-25T10:17:30Z</time></trkpt><trkpt lat="45.58314854382176" lon="9.281147651413757"><ele>165.0</ele><time>2026-04-25T10:17:31Z</time></trkpt><trkpt lat="45.583048520465525" lon="9.2810920252827"><ele>165.0</ele><time>2026-04-25T10:17:32Z</time></trkpt><trkpt lat="45.5829576774362" lon="9.281032305854138"><ele>165.0</ele><time>2026-04-25T10:17:33Z</time></trkpt><trkpt lat="45.582851867860185" lon="9.28098224542414"><ele>165.0</ele><time>2026-04-25T10:17:34Z</time></trkpt><trkpt lat="45.58272242156685" lon="9.2809210020281"><ele>165.0</ele><time>2026-04-25T10:17:35Z</time></trkpt><trkpt lat="45.582574873754844" lon="9.280850588787354"><ele>164.2</ele><time>2026-04-25T10:17:36Z</time></trkpt><trkpt lat="45.582429042133214" lon="9.280806278321858"><ele>163.4</ele><time>2026-04-25T10:17:37Z</time></trkpt><trkpt lat="45.582315680541605" lon="9.28073764721955"><ele>162.60000000000002</ele><time>2026-04-25T10:17:38.001Z</time></trkpt><trkpt lat="45.58223454483923" lon="9.280686466394902"><ele>161.8</ele><time>2026-04-25T10:17:39.001Z</time></trkpt><trkpt lat="45.582165330698174" lon="9.280642622565765"><ele>161.0</ele><time>2026-04-25T10:17:40.001Z</time></trkpt><trkpt lat="45.582077590124264" lon="9.28051539893334"><ele>161.0</ele><time>2026-04-25T10:17:42.001Z</time></trkpt><trkpt lat="45.58201287860862" lon="9.280414610934319"><ele>161.0</ele><time>2026-04-25T10:17:43.001Z</time></trkpt><trkpt lat="45.58194455848035" lon="9.280309976266045"><ele>161.0</ele><time>2026-04-25T10:17:44.001Z</time></trkpt><trkpt lat="45.5818853104994" lon="9.280177890552936"><ele>161.0</ele><time>2026-04-25T10:17:45.001Z</time></trkpt><trkpt lat="45.58182785008431" lon="9.280013270706213"><ele>161.0</ele><time>2026-04-25T10:17:46.001Z</time></trkpt><trkpt lat="45.581764211404895" lon="9.279841893176856"><ele>161.5</ele><time>2026-04-25T10:17:47.001Z</time></trkpt><trkpt lat="45.58171406856505" lon="9.279657048286845"><ele>162.0</ele><time>2026-04-25T10:17:48.001Z</time></trkpt><trkpt lat="45.58163522080245" lon="9.279475651380237"><ele>162.5</ele><time>2026-04-25T10:17:49.001Z</time></trkpt><trkpt lat="45.5815756739253" lon="9.279285961096383"><ele>163.0</ele><time>2026-04-25T10:17:50.001Z</time></trkpt><trkpt lat="45.581522590489676" lon="9.279104671699836"><ele>163.0</ele><time>2026-04-25T10:17:51.001Z</time></trkpt><trkpt lat="45.581480003321396" lon="9.278925416993433"><ele>163.0</ele><time>2026-04-25T10:17:52.001Z</time></trkpt><trkpt lat="45.58142594975384" lon="9.278783291465437"><ele>163.0</ele><time>2026-04-25T10:17:53.001Z</time></trkpt><trkpt lat="45.58137530674552" lon="9.278642690358312"><ele>163.0</ele><time>2026-04-25T10:17:54.001Z</time></trkpt><trkpt lat="45.58132621488738" lon="9.278508374747942"><ele>163.0</ele><time>2026-04-25T10:17:55.001Z</time></trkpt><trkpt lat="45.58128257387732" lon="9.27838721061207"><ele>163.0</ele><time>2026-04-25T10:17:56.001Z</time></trkpt><trkpt lat="45.58124334173617" lon="9.278283914123396"><ele>163.0</ele><time>2026-04-25T10:17:57.001Z</time></trkpt><trkpt lat="45.581205724493465" lon="9.278190250140215"><ele>163.0</ele><time>2026-04-25T10:17:58.001Z</time></trkpt><trkpt lat="45.581164676930015" lon="9.278098439601246"><ele>163.0</ele><time>2026-04-25T10:17:59.001Z</time></trkpt><trkpt lat="45.581118458249826" lon="9.277984745394225"><ele>163.0</ele><time>2026-04-25T10:18:00.001Z</time></trkpt><trkpt lat="45.581079970487615" lon="9.277843499626762"><ele>161.75</ele><time>2026-04-25T10:18:01.001Z</time></trkpt><trkpt lat="45.58103522758497" lon="9.27769472890256"><ele>160.5</ele><time>2026-04-25T10:18:02.001Z</time></trkpt><trkpt lat="45.58098143621347" lon="9.277537478129972"><ele>159.25</ele><time>2026-04-25T10:18:03.001Z</time></trkpt><trkpt lat="45.58091929562429" lon="9.277357220581838"><ele>158.0</ele><time>2026-04-25T10:18:04.001Z</time></trkpt><trkpt lat="45.580855073471064" lon="9.277152733533137"><ele>158.0</ele><time>2026-04-25T10:18:05.001Z</time></trkpt><trkpt lat="45.580789417908385" lon="9.276931557633993"><ele>158.0</ele><time>2026-04-25T10:18:06.001Z</time></trkpt><trkpt lat="45.58071930860476" lon="9.276703329964738"><ele>158.0</ele><time>2026-04-25T10:18:07.001Z</time></trkpt><trkpt lat="45.58064791265891" lon="9.276470746476958"><ele>158.66666666666666</ele><time>2026-04-25T10:18:08.001Z</time></trkpt><trkpt lat="45.580563459257334" lon="9.276249257258913"><ele>159.33333333333334</ele><time>2026-04-25T10:18:09.001Z</time></trkpt><trkpt lat="45.58047922269284" lon="9.276052863347264"><ele>160.0</ele><time>2026-04-25T10:18:10.001Z</time></trkpt><trkpt lat="45.58039303297713" lon="9.275863008847626"><ele>160.0</ele><time>2026-04-25T10:18:11.001Z</time></trkpt><trkpt lat="45.5803108442612" lon="9.275691713805076"><ele>160.0</ele><time>2026-04-25T10:18:12.001Z</time></trkpt><trkpt lat="45.58023375241105" lon="9.27551894734715"><ele>160.0</ele><time>2026-04-25T10:18:13.001Z</time></trkpt><trkpt lat="45.58016990867415" lon="9.275364595401342"><ele>160.0</ele><time>2026-04-25T10:18:14.001Z</time></trkpt><trkpt lat="45.5801185176484" lon="9.275214140090977"><ele>160.0</ele><time>2026-04-25T10:18:15.001Z</time></trkpt><trkpt lat="45.58007494035254" lon="9.2750665876413"><ele>160.0</ele><time>2026-04-25T10:18:15.999Z</time></trkpt><trkpt lat="45.58004006435709" lon="9.274942016120463"><ele>160.0</ele><time>2026-04-25T10:18:16.999Z</time></trkpt><trkpt lat="45.58001491583715" lon="9.274828451756889"><ele>160.0</ele><time>2026-04-25T10:18:17.999Z</time></trkpt><trkpt lat="45.58000306125635" lon="9.274711907863182"><ele>160.0</ele><time>2026-04-25T10:18:18.999Z</time></trkpt><trkpt lat="45.57999586371177" lon="9.274589016532019"><ele>160.16666666666669</ele><time>2026-04-25T10:18:19.999Z</time></trkpt><trkpt lat="45.57999473996313" lon="9.274455132745183"><ele>160.33333333333334</ele><time>2026-04-25T10:18:20.999Z</time></trkpt><trkpt lat="45.58000061737336" lon="9.274319901973273"><ele>160.5</ele><time>2026-04-25T10:18:21.999Z</time></trkpt><trkpt lat="45.58001233951434" lon="9.274188109644983"><ele>160.66666666666666</ele><time>2026-04-25T10:18:22.999Z</time></trkpt><trkpt lat="45.58003129484162" lon="9.274066412194742"><ele>160.83333333333331</ele><time>2026-04-25T10:18:23.999Z</time></trkpt><trkpt lat="45.58005196707785" lon="9.273969278744204"><ele>161.0</ele><time>2026-04-25T10:18:24.999Z</time></trkpt><trkpt lat="45.58007200114333" lon="9.273883132009543"><ele>161.8</ele><time>2026-04-25T10:18:25.999Z</time></trkpt><trkpt lat="45.580117663867405" lon="9.27374128924681"><ele>162.60000000000002</ele><time>2026-04-25T10:18:27.999Z</time></trkpt><trkpt lat="45.58018194753115" lon="9.273584823153426"><ele>163.4</ele><time>2026-04-25T10:18:29.999Z</time></trkpt><trkpt lat="45.58022675090483" lon="9.273502142274316"><ele>164.2</ele><time>2026-04-25T10:18:30.999Z</time></trkpt><trkpt lat="45.580266279862116" lon="9.27342653594807"><ele>165.0</ele><time>2026-04-25T10:18:31.999Z</time></trkpt><trkpt lat="45.5803199536959" lon="9.273325091914488"><ele>165.0</ele><time>2026-04-25T10:18:33.999Z</time></trkpt><trkpt lat="45.58022086680639" lon="9.273169067269246"><ele>165.0</ele><time>2026-04-25T10:18:34.999Z</time></trkpt><trkpt lat="45.58016041750161" lon="9.273102500506932"><ele>165.0</ele><time>2026-04-25T10:18:35.999Z</time></trkpt><trkpt lat="45.58008830513088" lon="9.273052733268372"><ele>165.0</ele><time>2026-04-25T10:18:36.999Z</time></trkpt><trkpt lat="45.58000893150403" lon="9.273011784574445"><ele>165.0</ele><time>2026-04-25T10:18:37.999Z</time></trkpt><trkpt lat="45.579929941499046" lon="9.272962768847506"><ele>165.33333333333334</ele><time>2026-04-25T10:18:38.999Z</time></trkpt><trkpt lat="45.57985270509047" lon="9.272910880987657"><ele>165.66666666666666</ele><time>2026-04-25T10:18:39.999Z</time></trkpt><trkpt lat="45.57977902584658" lon="9.272858163490005"><ele>166.0</ele><time>2026-04-25T10:18:40.999Z</time></trkpt><trkpt lat="45.579710466436204" lon="9.272816110328954"><ele>166.33333333333331</ele><time>2026-04-25T10:18:41.999Z</time></trkpt><trkpt lat="45.579636507507765" lon="9.272771833872817"><ele>166.66666666666666</ele><time>2026-04-25T10:18:42.999Z</time></trkpt><trkpt lat="45.579561459652496" lon="9.272720761822143"><ele>167.0</ele><time>2026-04-25T10:18:43.999Z</time></trkpt><trkpt lat="45.57948436507998" lon="9.272664515573378"><ele>167.0</ele><time>2026-04-25T10:18:45Z</time></trkpt><trkpt lat="45.5793935142413" lon="9.272606036430533"><ele>167.0</ele><time>2026-04-25T10:18:46Z</time></trkpt><trkpt lat="45.57929430896634" lon="9.272539219447234"><ele>167.0</ele><time>2026-04-25T10:18:47Z</time></trkpt><trkpt lat="45.579193506165545" lon="9.272478567729332"><ele>167.0</ele><time>2026-04-25T10:18:48Z</time></trkpt><trkpt lat="45.57910344843961" lon="9.272430659603977"><ele>167.0</ele><time>2026-04-25T10:18:49Z</time></trkpt><trkpt lat="45.57901652776195" lon="9.272374782454879"><ele>167.0</ele><time>2026-04-25T10:18:50Z</time></trkpt><trkpt lat="45.57892865018684" lon="9.272314700138473"><ele>167.0</ele><time>2026-04-25T10:18:51Z</time></trkpt><trkpt lat="45.57883141135658" lon="9.2722526281585"><ele>167.0</ele><time>2026-04-25T10:18:52Z</time></trkpt><trkpt lat="45.57872780370901" lon="9.27218965674733"><ele>167.0</ele><time>2026-04-25T10:18:53Z</time></trkpt><trkpt lat="45.57861315145816" lon="9.272121962903652"><ele>167.0</ele><time>2026-04-25T10:18:54Z</time></trkpt><trkpt lat="45.57849354898199" lon="9.272049567108413"><ele>166.5</ele><time>2026-04-25T10:18:55Z</time></trkpt><trkpt lat="45.57836087667945" lon="9.271963585516154"><ele>166.0</ele><time>2026-04-25T10:18:56Z</time></trkpt><trkpt lat="45.57822827690482" lon="9.271872895515731"><ele>165.5</ele><time>2026-04-25T10:18:57Z</time></trkpt><trkpt lat="45.578089196331916" lon="9.271778634838908"><ele>165.0</ele><time>2026-04-25T10:18:58Z</time></trkpt><trkpt lat="45.57795394134305" lon="9.27169006071693"><ele>165.0</ele><time>2026-04-25T10:18:59Z</time></trkpt><trkpt lat="45.57781379673168" lon="9.271600035093961"><ele>165.0</ele><time>2026-04-25T10:19:00Z</time></trkpt><trkpt lat="45.5776740654443" lon="9.27150742662092"><ele>165.0</ele><time>2026-04-25T10:19:01Z</time></trkpt><trkpt lat="45.57754363432405" lon="9.271425614479712"><ele>165.0</ele><time>2026-04-25T10:19:02Z</time></trkpt><trkpt lat="45.57741889869143" lon="9.271342209511133"><ele>165.0</ele><time>2026-04-25T10:19:03Z</time></trkpt><trkpt lat="45.577309135736094" lon="9.27126966922153"><ele>165.0</ele><time>2026-04-25T10:19:04Z</time></trkpt><trkpt lat="45.5772178945386" lon="9.271194583291281"><ele>165.0</ele><time>2026-04-25T10:19:05Z</time></trkpt><trkpt lat="45.577139218092256" lon="9.271131440924268"><ele>165.0</ele><time>2026-04-25T10:19:06Z</time></trkpt><trkpt lat="45.57707350290321" lon="9.271087216339149"><ele>165.0</ele><time>2026-04-25T10:19:07Z</time></trkpt><trkpt lat="45.576990019415646" lon="9.271034572163892"><ele>165.0</ele><time>2026-04-25T10:19:09Z</time></trkpt><trkpt lat="45.57685694038306" lon="9.270931445998551"><ele>165.0</ele><time>2026-04-25T10:19:38.001Z</time></trkpt><trkpt lat="45.57675069847726" lon="9.270854848089721"><ele>165.0</ele><time>2026-04-25T10:19:39.001Z</time></trkpt><trkpt lat="45.576604889702985" lon="9.270765721845567"><ele>165.0</ele><time>2026-04-25T10:19:40.001Z</time></trkpt><trkpt lat="45.576443596647046" lon="9.270659715189668"><ele>165.0</ele><time>2026-04-25T10:19:41.001Z</time></trkpt><trkpt lat="45.57627413502743" lon="9.270553514611757"><ele>165.0</ele><time>2026-04-25T10:19:42.001Z</time></trkpt><trkpt lat="45.57610620522438" lon="9.27044351517711"><ele>164.66666666666666</ele><time>2026-04-25T10:19:43.001Z</time></trkpt><trkpt lat="45.5759582975845" lon="9.270342184583004"><ele>164.33333333333331</ele><time>2026-04-25T10:19:44.001Z</time></trkpt><trkpt lat="45.57581536724904" lon="9.270244625780316"><ele>164.0</ele><time>2026-04-25T10:19:45.001Z</time></trkpt><trkpt lat="45.57566659246338" lon="9.270150546819536"><ele>164.0</ele><time>2026-04-25T10:19:46.001Z</time></trkpt><trkpt lat="45.57551636981825" lon="9.270051660375172"><ele>164.0</ele><time>2026-04-25T10:19:47.001Z</time></trkpt><trkpt lat="45.57535788730095" lon="9.269946383517892"><ele>164.0</ele><time>2026-04-25T10:19:48.001Z</time></trkpt><trkpt lat="45.57520657229876" lon="9.269840523631695"><ele>164.0</ele><time>2026-04-25T10:19:49.001Z</time></trkpt><trkpt lat="45.57504557318677" lon="9.26972310914609"><ele>164.0</ele><time>2026-04-25T10:19:50.001Z</time></trkpt><trkpt lat="45.57489487598326" lon="9.26960314633215"><ele>164.0</ele><time>2026-04-25T10:19:51.001Z</time></trkpt><trkpt lat="45.57476138018812" lon="9.269485502929243"><ele>164.0</ele><time>2026-04-25T10:19:52.001Z</time></trkpt><trkpt lat="45.57463182459066" lon="9.269361304185242"><ele>164.0</ele><time>2026-04-25T10:19:53.001Z</time></trkpt><trkpt lat="45.57451653652319" lon="9.269252604030099"><ele>164.0</ele><time>2026-04-25T10:19:54.001Z</time></trkpt><trkpt lat="45.57441503014789" lon="9.26915620490245"><ele>164.0</ele><time>2026-04-25T10:19:55.001Z</time></trkpt><trkpt lat="45.57432942628288" lon="9.269075440904233"><ele>164.2</ele><time>2026-04-25T10:19:56.001Z</time></trkpt><trkpt lat="45.574257104266394" lon="9.26901373747263"><ele>164.39999999999998</ele><time>2026-04-25T10:19:57.001Z</time></trkpt><trkpt lat="45.574158851371" lon="9.268924973481608"><ele>164.6</ele><time>2026-04-25T10:19:59.001Z</time></trkpt><trkpt lat="45.57407794189539" lon="9.268851995802745"><ele>164.8</ele><time>2026-04-25T10:20:01.001Z</time></trkpt><trkpt lat="45.5740226148301" lon="9.268798100028539"><ele>165.0</ele><time>2026-04-25T10:20:03.001Z</time></trkpt><trkpt lat="45.57393342359373" lon="9.268711953159633"><ele>164.83333333333334</ele><time>2026-04-25T10:20:05.001Z</time></trkpt><trkpt lat="45.57383191138203" lon="9.26861731497767"><ele>164.66666666666666</ele><time>2026-04-25T10:20:07.001Z</time></trkpt><trkpt lat="45.57377429532725" lon="9.268564278006448"><ele>164.5</ele><time>2026-04-25T10:20:08.001Z</time></trkpt><trkpt lat="45.57371173549624" lon="9.26850613184795"><ele>164.33333333333331</ele><time>2026-04-25T10:20:09.001Z</time></trkpt><trkpt lat="45.573649081432414" lon="9.268451162744768"><ele>164.16666666666666</ele><time>2026-04-25T10:20:10.001Z</time></trkpt><trkpt lat="45.573579382647" lon="9.268391663031567"><ele>164.0</ele><time>2026-04-25T10:20:11.001Z</time></trkpt><trkpt lat="45.57350512552064" lon="9.268327104771043"><ele>164.0</ele><time>2026-04-25T10:20:12.001Z</time></trkpt><trkpt lat="45.57340979663553" lon="9.268249148165006"><ele>164.0</ele><time>2026-04-25T10:20:13.001Z</time></trkpt><trkpt lat="45.57330816121841" lon="9.268152350934074"><ele>164.0</ele><time>2026-04-25T10:20:14.001Z</time></trkpt><trkpt lat="45.5731988371301" lon="9.268052242522067"><ele>164.0</ele><time>2026-04-25T10:20:15.001Z</time></trkpt><trkpt lat="45.573093800863894" lon="9.267933754648968"><ele>164.25</ele><time>2026-04-25T10:20:16.001Z</time></trkpt><trkpt lat="45.572980156845574" lon="9.26781802223255"><ele>164.5</ele><time>2026-04-25T10:20:17.001Z</time></trkpt><trkpt lat="45.572862794969524" lon="9.267704520241447"><ele>164.75</ele><time>2026-04-25T10:20:18.001Z</time></trkpt><trkpt lat="45.57275071643474" lon="9.26760934660801"><ele>165.0</ele><time>2026-04-25T10:20:19.001Z</time></trkpt><trkpt lat="45.57264965236662" lon="9.267518448886063"><ele>164.4</ele><time>2026-04-25T10:20:20.001Z</time></trkpt><trkpt lat="45.57256425186474" lon="9.267431130522896"><ele>163.8</ele><time>2026-04-25T10:20:21.001Z</time></trkpt><trkpt lat="45.5724757608928" lon="9.26735049053217"><ele>163.2</ele><time>2026-04-25T10:20:21.999Z</time></trkpt><trkpt lat="45.57239243010755" lon="9.267275617927897"><ele>162.6</ele><time>2026-04-25T10:20:22.998Z</time></trkpt><trkpt lat="45.57230695440881" lon="9.267204219621402"><ele>162.0</ele><time>2026-04-25T10:20:23.999Z</time></trkpt><trkpt lat="45.57222874008727" lon="9.267126645880188"><ele>162.0</ele><time>2026-04-25T10:20:24.999Z</time></trkpt><trkpt lat="45.57214828878122" lon="9.267043425941921"><ele>162.0</ele><time>2026-04-25T10:20:25.999Z</time></trkpt><trkpt lat="45.57206178242283" lon="9.266962891723166"><ele>162.0</ele><time>2026-04-25T10:20:26.999Z</time></trkpt><trkpt lat="45.57197998045472" lon="9.266887907207805"><ele>162.0</ele><time>2026-04-25T10:20:27.999Z</time></trkpt><trkpt lat="45.57190464515613" lon="9.266816310827368"><ele>162.0</ele><time>2026-04-25T10:20:28.999Z</time></trkpt><trkpt lat="45.57183772438574" lon="9.26675376926841"><ele>161.83333333333334</ele><time>2026-04-25T10:20:29.999Z</time></trkpt><trkpt lat="45.571776330668364" lon="9.266693624608871"><ele>161.66666666666666</ele><time>2026-04-25T10:20:30.999Z</time></trkpt><trkpt lat="45.571679671015445" lon="9.266599359218327"><ele>161.5</ele><time>2026-04-25T10:20:32.999Z</time></trkpt><trkpt lat="45.57159135663019" lon="9.266520845309786"><ele>161.33333333333331</ele><time>2026-04-25T10:20:34.999Z</time></trkpt><trkpt lat="45.57153436937279" lon="9.266464776550464"><ele>161.16666666666666</ele><time>2026-04-25T10:20:36.999Z</time></trkpt><trkpt lat="45.571490164989356" lon="9.266397199265743"><ele>161.0</ele><time>2026-04-25T10:21:08Z</time></trkpt><trkpt lat="45.57142166055902" lon="9.266329432340411"><ele>161.0</ele><time>2026-04-25T10:21:09Z</time></trkpt><trkpt lat="45.571313687634266" lon="9.266258528851242"><ele>161.0</ele><time>2026-04-25T10:21:10Z</time></trkpt><trkpt lat="45.57118057044161" lon="9.266124923375513"><ele>161.0</ele><time>2026-04-25T10:21:11Z</time></trkpt><trkpt lat="45.57102795098855" lon="9.26598868138507"><ele>161.0</ele><time>2026-04-25T10:21:12Z</time></trkpt><trkpt lat="45.57087437918184" lon="9.265849117544454"><ele>161.0</ele><time>2026-04-25T10:21:13Z</time></trkpt><trkpt lat="45.57073870138746" lon="9.26572543155617"><ele>161.0</ele><time>2026-04-25T10:21:14Z</time></trkpt><trkpt lat="45.57060163523017" lon="9.265594180222145"><ele>161.0</ele><time>2026-04-25T10:21:15Z</time></trkpt><trkpt lat="45.57046253162334" lon="9.265466897894932"><ele>161.0</ele><time>2026-04-25T10:21:16Z</time></trkpt><trkpt lat="45.5703320311521" lon="9.265343037308433"><ele>161.0</ele><time>2026-04-25T10:21:17Z</time></trkpt><trkpt lat="45.570210745410904" lon="9.265229542429493"><ele>161.0</ele><time>2026-04-25T10:21:18Z</time></trkpt><trkpt lat="45.57008855403345" lon="9.265121796938175"><ele>161.0</ele><time>2026-04-25T10:21:19Z</time></trkpt><trkpt lat="45.56996753685452" lon="9.265008562426956"><ele>161.0</ele><time>2026-04-25T10:21:20Z</time></trkpt><trkpt lat="45.56985086116455" lon="9.264900200826986"><ele>161.0</ele><time>2026-04-25T10:21:21Z</time></trkpt><trkpt lat="45.56973994383215" lon="9.264791322496409"><ele>161.0</ele><time>2026-04-25T10:21:22Z</time></trkpt><trkpt lat="45.569629931572564" lon="9.26468805177051"><ele>161.0</ele><time>2026-04-25T10:21:23Z</time></trkpt><trkpt lat="45.569523808049425" lon="9.26458939164039"><ele>161.0</ele><time>2026-04-25T10:21:24Z</time></trkpt><trkpt lat="45.56942206215551" lon="9.264497719908862"><ele>161.0</ele><time>2026-04-25T10:21:25Z</time></trkpt><trkpt lat="45.569323122855536" lon="9.264407459891371"><ele>160.60000000000002</ele><time>2026-04-25T10:21:26Z</time></trkpt><trkpt lat="45.56923547255664" lon="9.264325408017443"><ele>160.20000000000002</ele><time>2026-04-25T10:21:27.001Z</time></trkpt><trkpt lat="45.569158063482476" lon="9.26425354267205"><ele>159.8</ele><time>2026-04-25T10:21:28.001Z</time></trkpt><trkpt lat="45.56908543869787" lon="9.264179962142043"><ele>159.4</ele><time>2026-04-25T10:21:29.001Z</time></trkpt><trkpt lat="45.569011637988055" lon="9.2641079702655"><ele>159.0</ele><time>2026-04-25T10:21:30.001Z</time></trkpt><trkpt lat="45.56893114366972" lon="9.264034222990132"><ele>159.0</ele><time>2026-04-25T10:21:31.001Z</time></trkpt><trkpt lat="45.56885292833671" lon="9.263959274685273"><ele>159.0</ele><time>2026-04-25T10:21:32.001Z</time></trkpt><trkpt lat="45.568766422756134" lon="9.26387680271792"><ele>159.0</ele><time>2026-04-25T10:21:33.001Z</time></trkpt><trkpt lat="45.56868342676126" lon="9.263808715100042"><ele>159.0</ele><time>2026-04-25T10:21:34.001Z</time></trkpt><trkpt lat="45.56860087180428" lon="9.26374575297685"><ele>159.0</ele><time>2026-04-25T10:21:35.001Z</time></trkpt><trkpt lat="45.56851805227812" lon="9.26367485419002"><ele>158.2</ele><time>2026-04-25T10:21:36.001Z</time></trkpt><trkpt lat="45.568440482361595" lon="9.26360040416299"><ele>157.4</ele><time>2026-04-25T10:21:37.001Z</time></trkpt><trkpt lat="45.5683644054085" lon="9.263527945428603"><ele>156.6</ele><time>2026-04-25T10:21:38.001Z</time></trkpt><trkpt lat="45.56828430895553" lon="9.263452135922678"><ele>155.8</ele><time>2026-04-25T10:21:39.001Z</time></trkpt><trkpt lat="45.56820293443654" lon="9.263378236285666"><ele>155.0</ele><time>2026-04-25T10:21:40.001Z</time></trkpt><trkpt lat="45.568122954783725" lon="9.263306697532407"><ele>155.0</ele><time>2026-04-25T10:21:41.001Z</time></trkpt><trkpt lat="45.56805233031892" lon="9.263242148095612"><ele>155.0</ele><time>2026-04-25T10:21:42.001Z</time></trkpt><trkpt lat="45.56798488377827" lon="9.263180232341664"><ele>155.0</ele><time>2026-04-25T10:21:43.001Z</time></trkpt><trkpt lat="45.56792264452787" lon="9.263119932490206"><ele>155.0</ele><time>2026-04-25T10:21:44.001Z</time></trkpt><trkpt lat="45.56786656205169" lon="9.263061777866557"><ele>155.0</ele><time>2026-04-25T10:21:45.001Z</time></trkpt><trkpt lat="45.56781450930307" lon="9.263005456992595"><ele>155.0</ele><time>2026-04-25T10:21:46.001Z</time></trkpt><trkpt lat="45.56776209395921" lon="9.262951134003261"><ele>155.0</ele><time>2026-04-25T10:21:47.001Z</time></trkpt><trkpt lat="45.56770706164299" lon="9.262899145092497"><ele>155.0</ele><time>2026-04-25T10:21:48.001Z</time></trkpt><trkpt lat="45.567645193407124" lon="9.262840947832524"><ele>155.0</ele><time>2026-04-25T10:21:49.001Z</time></trkpt><trkpt lat="45.56758556778078" lon="9.262793644625626"><ele>155.0</ele><time>2026-04-25T10:21:50.001Z</time></trkpt><trkpt lat="45.56751004315443" lon="9.262727823958752"><ele>155.0</ele><time>2026-04-25T10:21:51.001Z</time></trkpt><trkpt lat="45.56743667203828" lon="9.262633853042495"><ele>155.0</ele><time>2026-04-25T10:21:52.001Z</time></trkpt><trkpt lat="45.56734689191618" lon="9.262574859039969"><ele>155.0</ele><time>2026-04-25T10:21:53.001Z</time></trkpt><trkpt lat="45.567276273290844" lon="9.262500902563126"><ele>155.0</ele><time>2026-04-25T10:21:54.001Z</time></trkpt><trkpt lat="45.56720553365769" lon="9.262422167340043"><ele>155.0</ele><time>2026-04-25T10:21:55.001Z</time></trkpt><trkpt lat="45.56713616673637" lon="9.262348332519545"><ele>155.0</ele><time>2026-04-25T10:21:56.001Z</time></trkpt><trkpt lat="45.56706547691504" lon="9.26227042973534"><ele>155.0</ele><time>2026-04-25T10:21:57.001Z</time></trkpt><trkpt lat="45.566988292991816" lon="9.262188503893633"><ele>155.0</ele><time>2026-04-25T10:21:58.001Z</time></trkpt><trkpt lat="45.56690538536551" lon="9.262105077407268"><ele>155.25</ele><time>2026-04-25T10:21:59.001Z</time></trkpt><trkpt lat="45.566812568506435" lon="9.262011952418728"><ele>155.5</ele><time>2026-04-25T10:22:00.001Z</time></trkpt><trkpt lat="45.566707258528474" lon="9.261909487933156"><ele>155.75</ele><time>2026-04-25T10:22:01.001Z</time></trkpt><trkpt lat="45.566595497161146" lon="9.261806225573697"><ele>156.0</ele><time>2026-04-25T10:22:02.001Z</time></trkpt><trkpt lat="45.56648299515716" lon="9.26170240774491"><ele>156.0</ele><time>2026-04-25T10:22:03.001Z</time></trkpt><trkpt lat="45.56637280726113" lon="9.261596581666073"><ele>156.0</ele><time>2026-04-25T10:22:04.001Z</time></trkpt><trkpt lat="45.566264849411" lon="9.261490555504949"><ele>156.0</ele><time>2026-04-25T10:22:05.001Z</time></trkpt><trkpt lat="45.56615914512468" lon="9.261386586445147"><ele>156.0</ele><time>2026-04-25T10:22:06.001Z</time></trkpt><trkpt lat="45.566057544261184" lon="9.261295287037159"><ele>156.0</ele><time>2026-04-25T10:22:07.001Z</time></trkpt><trkpt lat="45.5659581302133" lon="9.261200899843612"><ele>156.0</ele><time>2026-04-25T10:22:08.001Z</time></trkpt><trkpt lat="45.56585817703641" lon="9.26110435047281"><ele>156.0</ele><time>2026-04-25T10:22:09.001Z</time></trkpt><trkpt lat="45.5657581717521" lon="9.261013412985992"><ele>156.0</ele><time>2026-04-25T10:22:10.001Z</time></trkpt><trkpt lat="45.56566777776042" lon="9.26092772061156"><ele>156.0</ele><time>2026-04-25T10:22:11.001Z</time></trkpt><trkpt lat="45.565581800135206" lon="9.260849097143034"><ele>156.0</ele><time>2026-04-25T10:22:12.001Z</time></trkpt><trkpt lat="45.56550449566238" lon="9.260781965218662"><ele>156.0</ele><time>2026-04-25T10:22:13.001Z</time></trkpt><trkpt lat="45.56543465618786" lon="9.26072298909068"><ele>156.0</ele><time>2026-04-25T10:22:14.002Z</time></trkpt><trkpt lat="45.56537070326882" lon="9.260665746697192"><ele>156.0</ele><time>2026-04-25T10:22:15.002Z</time></trkpt><trkpt lat="45.5653116974786" lon="9.260607374974324"><ele>156.0</ele><time>2026-04-25T10:22:16.002Z</time></trkpt><trkpt lat="45.56526168905215" lon="9.26054945889764"><ele>156.0</ele><time>2026-04-25T10:22:17.002Z</time></trkpt><trkpt lat="45.56520983802512" lon="9.26048808803504"><ele>156.0</ele><time>2026-04-25T10:22:18.002Z</time></trkpt><trkpt lat="45.5651361879287" lon="9.260409280253477"><ele>156.0</ele><time>2026-04-25T10:22:20.002Z</time></trkpt><trkpt lat="45.565079094331736" lon="9.260336767524278"><ele>156.0</ele><time>2026-04-25T10:22:23.002Z</time></trkpt><trkpt lat="45.56500906074493" lon="9.26026005334052"><ele>156.0</ele><time>2026-04-25T10:22:25.002Z</time></trkpt><trkpt lat="45.564950732603855" lon="9.260199410993607"><ele>156.0</ele><time>2026-04-25T10:22:26.002Z</time></trkpt><trkpt lat="45.564882455043154" lon="9.260127974745094"><ele>156.0</ele><time>2026-04-25T10:22:27.002Z</time></trkpt><trkpt lat="45.5647932775762" lon="9.260046161988038"><ele>156.0</ele><time>2026-04-25T10:22:28Z</time></trkpt><trkpt lat="45.56468392156945" lon="9.259950456232689"><ele>156.0</ele><time>2026-04-25T10:22:29Z</time></trkpt><trkpt lat="45.56455951300157" lon="9.259848624516245"><ele>156.0</ele><time>2026-04-25T10:22:30Z</time></trkpt><trkpt lat="45.56443032613115" lon="9.259746193339772"><ele>156.0</ele><time>2026-04-25T10:22:31Z</time></trkpt><trkpt lat="45.56429080847325" lon="9.259633038569552"><ele>156.0</ele><time>2026-04-25T10:22:32Z</time></trkpt><trkpt lat="45.56415496553415" lon="9.259519451132208"><ele>156.0</ele><time>2026-04-25T10:22:33Z</time></trkpt><trkpt lat="45.56401808362396" lon="9.259395902285924"><ele>156.0</ele><time>2026-04-25T10:22:34Z</time></trkpt><trkpt lat="45.56387845872085" lon="9.25926460008544"><ele>156.0</ele><time>2026-04-25T10:22:35Z</time></trkpt><trkpt lat="45.5637467659111" lon="9.259137786320277"><ele>156.0</ele><time>2026-04-25T10:22:36Z</time></trkpt><trkpt lat="45.563627904461875" lon="9.259021337101492"><ele>156.0</ele><time>2026-04-25T10:22:37Z</time></trkpt><trkpt lat="45.56352440902015" lon="9.258920848379598"><ele>156.0</ele><time>2026-04-25T10:22:38Z</time></trkpt><trkpt lat="45.56342611978227" lon="9.258821677540856"><ele>156.0</ele><time>2026-04-25T10:22:39Z</time></trkpt><trkpt lat="45.563328729137574" lon="9.258730022372617"><ele>156.0</ele><time>2026-04-25T10:22:40Z</time></trkpt><trkpt lat="45.56323598586317" lon="9.258643676841334"><ele>156.0</ele><time>2026-04-25T10:22:41Z</time></trkpt><trkpt lat="45.56314746499359" lon="9.25856168873579"><ele>156.0</ele><time>2026-04-25T10:22:42Z</time></trkpt><trkpt lat="45.563060454355735" lon="9.258481838285375"><ele>156.0</ele><time>2026-04-25T10:22:43Z</time></trkpt><trkpt lat="45.562972094777145" lon="9.258391812218301"><ele>156.0</ele><time>2026-04-25T10:22:44Z</time></trkpt><trkpt lat="45.56287927082959" lon="9.258305690031968"><ele>156.0</ele><time>2026-04-25T10:22:45Z</time></trkpt><trkpt lat="45.56278470454972" lon="9.258214744715449"><ele>156.0</ele><time>2026-04-25T10:22:46Z</time></trkpt><trkpt lat="45.56268926350163" lon="9.258119910411102"><ele>156.0</ele><time>2026-04-25T10:22:47Z</time></trkpt><trkpt lat="45.56258717114595" lon="9.258022465482156"><ele>156.0</ele><time>2026-04-25T10:22:48Z</time></trkpt><trkpt lat="45.56248540287312" lon="9.257927061809198"><ele>156.0</ele><time>2026-04-25T10:22:49Z</time></trkpt><trkpt lat="45.56238379521439" lon="9.257828659266941"><ele>156.25</ele><time>2026-04-25T10:22:50Z</time></trkpt><trkpt lat="45.562289069567235" lon="9.257740989294346"><ele>156.5</ele><time>2026-04-25T10:22:51Z</time></trkpt><trkpt lat="45.56218949591384" lon="9.257644829895678"><ele>156.75</ele><time>2026-04-25T10:22:52Z</time></trkpt><trkpt lat="45.56208914438304" lon="9.25755014803984"><ele>157.0</ele><time>2026-04-25T10:22:53Z</time></trkpt><trkpt lat="45.561986275360574" lon="9.257447240464149"><ele>156.5</ele><time>2026-04-25T10:22:54Z</time></trkpt><trkpt lat="45.56188389860933" lon="9.257344295867714"><ele>156.0</ele><time>2026-04-25T10:22:55Z</time></trkpt><trkpt lat="45.56178353994414" lon="9.257250135752113"><ele>155.5</ele><time>2026-04-25T10:22:56Z</time></trkpt><trkpt lat="45.56168330747231" lon="9.257151579837807"><ele>155.0</ele><time>2026-04-25T10:22:57Z</time></trkpt><trkpt lat="45.56158942694913" lon="9.257055499907858"><ele>155.0</ele><time>2026-04-25T10:22:58Z</time></trkpt><trkpt lat="45.561507528117794" lon="9.256964442617893"><ele>155.0</ele><time>2026-04-25T10:22:59Z</time></trkpt><trkpt lat="45.561425450401615" lon="9.256862177870024"><ele>155.0</ele><time>2026-04-25T10:23:00Z</time></trkpt><trkpt lat="45.56133971978415" lon="9.256749465335519"><ele>155.0</ele><time>2026-04-25T10:23:01Z</time></trkpt><trkpt lat="45.561252356450524" lon="9.256632519304441"><ele>155.0</ele><time>2026-04-25T10:23:02Z</time></trkpt><trkpt lat="45.56116700803187" lon="9.256518389092104"><ele>154.2</ele><time>2026-04-25T10:23:03Z</time></trkpt><trkpt lat="45.56108627648266" lon="9.256409215652019"><ele>153.4</ele><time>2026-04-25T10:23:04Z</time></trkpt><trkpt lat="45.561014019581" lon="9.256299413325399"><ele>152.6</ele><time>2026-04-25T10:23:05Z</time></trkpt><trkpt lat="45.56095823209637" lon="9.256188952973012"><ele>151.8</ele><time>2026-04-25T10:23:06Z</time></trkpt><trkpt lat="45.560919840673506" lon="9.256078205662368"><ele>151.0</ele><time>2026-04-25T10:23:07Z</time></trkpt><trkpt lat="45.560887464045685" lon="9.25596659171372"><ele>151.0</ele><time>2026-04-25T10:23:08.001Z</time></trkpt><trkpt lat="45.56084990107497" lon="9.255845773312563"><ele>151.0</ele><time>2026-04-25T10:23:09.001Z</time></trkpt><trkpt lat="45.56079666128115" lon="9.25573080113943"><ele>151.0</ele><time>2026-04-25T10:23:10.001Z</time></trkpt><trkpt lat="45.56072510325559" lon="9.255641866740307"><ele>151.0</ele><time>2026-04-25T10:23:11.001Z</time></trkpt><trkpt lat="45.560637475302016" lon="9.255592840987537"><ele>151.0</ele><time>2026-04-25T10:23:12.001Z</time></trkpt><trkpt lat="45.560528852027026" lon="9.255581549217615"><ele>150.5</ele><time>2026-04-25T10:23:13.001Z</time></trkpt><trkpt lat="45.56041607907628" lon="9.25558189280049"><ele>150.0</ele><time>2026-04-25T10:23:14.001Z</time></trkpt><trkpt lat="45.56029131050342" lon="9.25558261261805"><ele>149.5</ele><time>2026-04-25T10:23:15.001Z</time></trkpt><trkpt lat="45.56016619722073" lon="9.25555356681096"><ele>149.0</ele><time>2026-04-25T10:23:16.001Z</time></trkpt><trkpt lat="45.56004966760964" lon="9.25547863725259"><ele>148.5</ele><time>2026-04-25T10:23:17.001Z</time></trkpt><trkpt lat="45.55993492592485" lon="9.25536012386753"><ele>148.0</ele><time>2026-04-25T10:23:18.001Z</time></trkpt><trkpt lat="45.55981914310579" lon="9.255236985263984"><ele>147.5</ele><time>2026-04-25T10:23:19.001Z</time></trkpt><trkpt lat="45.559689563681445" lon="9.255116277792343"><ele>147.0</ele><time>2026-04-25T10:23:20.001Z</time></trkpt><trkpt lat="45.55953791936627" lon="9.254983794931524"><ele>148.0</ele><time>2026-04-25T10:23:21.001Z</time></trkpt><trkpt lat="45.559366012938746" lon="9.25483125302863"><ele>149.0</ele><time>2026-04-25T10:23:22.001Z</time></trkpt><trkpt lat="45.55918158811911" lon="9.254672992749395"><ele>150.0</ele><time>2026-04-25T10:23:23.001Z</time></trkpt><trkpt lat="45.559007008630914" lon="9.254527917411524"><ele>151.0</ele><time>2026-04-25T10:23:24.001Z</time></trkpt><trkpt lat="45.558850565864645" lon="9.254397614986086"><ele>152.0</ele><time>2026-04-25T10:23:25.001Z</time></trkpt><trkpt lat="45.558700072242694" lon="9.254270484263532"><ele>153.0</ele><time>2026-04-25T10:23:26.001Z</time></trkpt><trkpt lat="45.55856292715293" lon="9.254156483176432"><ele>153.0</ele><time>2026-04-25T10:23:27.001Z</time></trkpt><trkpt lat="45.55842809363054" lon="9.254046720400028"><ele>153.0</ele><time>2026-04-25T10:23:28.001Z</time></trkpt><trkpt lat="45.55830097252615" lon="9.253944749562274"><ele>153.0</ele><time>2026-04-25T10:23:29.001Z</time></trkpt><trkpt lat="45.5581756655132" lon="9.25384842074231"><ele>153.0</ele><time>2026-04-25T10:23:30.001Z</time></trkpt><trkpt lat="45.558072327789006" lon="9.253750562704322"><ele>153.0</ele><time>2026-04-25T10:23:31.001Z</time></trkpt><trkpt lat="45.55797937259416" lon="9.253669215330751"><ele>153.0</ele><time>2026-04-25T10:23:32.001Z</time></trkpt><trkpt lat="45.55788787387374" lon="9.253591685392491"><ele>153.0</ele><time>2026-04-25T10:23:33.001Z</time></trkpt><trkpt lat="45.55779368955869" lon="9.25352141272393"><ele>153.0</ele><time>2026-04-25T10:23:34.001Z</time></trkpt><trkpt lat="45.557702627192334" lon="9.253444871158512"><ele>153.0</ele><time>2026-04-25T10:23:35.001Z</time></trkpt><trkpt lat="45.55762433368375" lon="9.253342869640889"><ele>153.0</ele><time>2026-04-25T10:23:36.001Z</time></trkpt><trkpt lat="45.55752698565046" lon="9.25327735223237"><ele>153.0</ele><time>2026-04-25T10:23:37.001Z</time></trkpt><trkpt lat="45.557443593441114" lon="9.253194521105673"><ele>153.0</ele><time>2026-04-25T10:23:38.001Z</time></trkpt><trkpt lat="45.55735273675837" lon="9.253109693734173"><ele>153.0</ele><time>2026-04-25T10:23:39.001Z</time></trkpt><trkpt lat="45.55726655589579" lon="9.252999513940592"><ele>153.0</ele><time>2026-04-25T10:23:40.001Z</time></trkpt><trkpt lat="45.55716877174586" lon="9.252906377721038"><ele>153.0</ele><time>2026-04-25T10:23:41.001Z</time></trkpt><trkpt lat="45.55706891888176" lon="9.252811267325873"><ele>153.0</ele><time>2026-04-25T10:23:42.001Z</time></trkpt><trkpt lat="45.55695610292223" lon="9.252725623718959"><ele>153.0</ele><time>2026-04-25T10:23:43.001Z</time></trkpt><trkpt lat="45.55685208161143" lon="9.252617602774961"><ele>153.0</ele><time>2026-04-25T10:23:44.001Z</time></trkpt><trkpt lat="45.55675437356055" lon="9.252517672203341"><ele>153.0</ele><time>2026-04-25T10:23:45.001Z</time></trkpt><trkpt lat="45.55666270212042" lon="9.252430035085172"><ele>153.0</ele><time>2026-04-25T10:23:46.001Z</time></trkpt><trkpt lat="45.55656600187882" lon="9.25234138901846"><ele>153.0</ele><time>2026-04-25T10:23:47.001Z</time></trkpt><trkpt lat="45.55646250428694" lon="9.252248504033869"><ele>153.0</ele><time>2026-04-25T10:23:48.001Z</time></trkpt><trkpt lat="45.55635622938445" lon="9.252153274005394"><ele>153.0</ele><time>2026-04-25T10:23:49.001Z</time></trkpt><trkpt lat="45.55625818145646" lon="9.252059119975055"><ele>153.0</ele><time>2026-04-25T10:23:50.001Z</time></trkpt><trkpt lat="45.55615854293804" lon="9.251963275201389"><ele>153.0</ele><time>2026-04-25T10:23:51.002Z</time></trkpt><trkpt lat="45.55606158084877" lon="9.251868261431753"><ele>153.0</ele><time>2026-04-25T10:23:52.002Z</time></trkpt><trkpt lat="45.55596452459858" lon="9.25177307512879"><ele>153.0</ele><time>2026-04-25T10:23:53.002Z</time></trkpt><trkpt lat="45.55586575400842" lon="9.251681965370759"><ele>153.0</ele><time>2026-04-25T10:23:54.002Z</time></trkpt><trkpt lat="45.55577209939692" lon="9.251594122021372"><ele>153.0</ele><time>2026-04-25T10:23:55.002Z</time></trkpt><trkpt lat="45.55568258295526" lon="9.251506501005572"><ele>153.0</ele><time>2026-04-25T10:23:56.002Z</time></trkpt><trkpt lat="45.5555986103199" lon="9.251422699503252"><ele>153.0</ele><time>2026-04-25T10:23:57.002Z</time></trkpt><trkpt lat="45.55551755953314" lon="9.251333705875128"><ele>153.0</ele><time>2026-04-25T10:23:58.002Z</time></trkpt><trkpt lat="45.555450947244566" lon="9.251252553623253"><ele>153.0</ele><time>2026-04-25T10:23:59.002Z</time></trkpt><trkpt lat="45.55538801472829" lon="9.251166233595892"><ele>153.0</ele><time>2026-04-25T10:24:00.002Z</time></trkpt><trkpt lat="45.55533953331118" lon="9.251091356241872"><ele>153.0</ele><time>2026-04-25T10:24:01.002Z</time></trkpt><trkpt lat="45.555301642086306" lon="9.250987883456578"><ele>153.0</ele><time>2026-04-25T10:24:03.002Z</time></trkpt><trkpt lat="45.55527862388913" lon="9.250879104173361"><ele>153.0</ele><time>2026-04-25T10:24:12.002Z</time></trkpt><trkpt lat="45.55524071547428" lon="9.250792191135902"><ele>152.83333333333334</ele><time>2026-04-25T10:24:14.002Z</time></trkpt><trkpt lat="45.555260895327194" lon="9.250696769138488"><ele>152.66666666666666</ele><time>2026-04-25T10:24:15.002Z</time></trkpt><trkpt lat="45.55525598654037" lon="9.25060541183012"><ele>152.5</ele><time>2026-04-25T10:24:16.002Z</time></trkpt><trkpt lat="45.55523562863634" lon="9.250496159376375"><ele>152.33333333333331</ele><time>2026-04-25T10:24:17.002Z</time></trkpt><trkpt lat="45.55521027010132" lon="9.250369110679989"><ele>152.16666666666666</ele><time>2026-04-25T10:24:18.002Z</time></trkpt><trkpt lat="45.55519145356034" lon="9.250219149554962"><ele>152.0</ele><time>2026-04-25T10:24:19.002Z</time></trkpt><trkpt lat="45.5551876242628" lon="9.250062241061968"><ele>152.0</ele><time>2026-04-25T10:24:20.002Z</time></trkpt><trkpt lat="45.555180381894765" lon="9.249906255729224"><ele>152.0</ele><time>2026-04-25T10:24:21.002Z</time></trkpt><trkpt lat="45.55517408012099" lon="9.249753688983137"><ele>152.0</ele><time>2026-04-25T10:24:22.002Z</time></trkpt><trkpt lat="45.55516845754366" lon="9.249607657747742"><ele>152.0</ele><time>2026-04-25T10:24:23.002Z</time></trkpt><trkpt lat="45.555173148721686" lon="9.249483328235765"><ele>152.0</ele><time>2026-04-25T10:24:24.002Z</time></trkpt><trkpt lat="45.55519854795305" lon="9.249377613371676"><ele>152.33333333333331</ele><time>2026-04-25T10:24:25.002Z</time></trkpt><trkpt lat="45.55524636038349" lon="9.249296776050416"><ele>152.66666666666666</ele><time>2026-04-25T10:24:26.002Z</time></trkpt><trkpt lat="45.55531178308285" lon="9.249241451266373"><ele>153.0</ele><time>2026-04-25T10:24:27.002Z</time></trkpt><trkpt lat="45.55539872727016" lon="9.249201417783134"><ele>153.33333333333334</ele><time>2026-04-25T10:24:28.002Z</time></trkpt><trkpt lat="45.55548060930217" lon="9.249162169298938"><ele>153.66666666666669</ele><time>2026-04-25T10:24:29.002Z</time></trkpt><trkpt lat="45.555544974996536" lon="9.249099261574692"><ele>154.0</ele><time>2026-04-25T10:24:30.002Z</time></trkpt><trkpt lat="45.555588388421924" lon="9.2490006853117"><ele>153.2</ele><time>2026-04-25T10:24:31.002Z</time></trkpt><trkpt lat="45.55562216965683" lon="9.248881187755703"><ele>152.4</ele><time>2026-04-25T10:24:32.002Z</time></trkpt><trkpt lat="45.555600953236805" lon="9.24874403938004"><ele>151.6</ele><time>2026-04-25T10:24:33.002Z</time></trkpt><trkpt lat="45.5555236317547" lon="9.248632908708451"><ele>150.8</ele><time>2026-04-25T10:24:34Z</time></trkpt><trkpt lat="45.555441575265895" lon="9.248560307913852"><ele>150.0</ele><time>2026-04-25T10:24:35Z</time></trkpt><trkpt lat="45.555350218955525" lon="9.248524077429893"><ele>150.0</ele><time>2026-04-25T10:24:36Z</time></trkpt><trkpt lat="45.55526563768061" lon="9.24850377868532"><ele>150.0</ele><time>2026-04-25T10:24:37Z</time></trkpt><trkpt lat="45.55521490552458" lon="9.248376363408237"><ele>150.0</ele><time>2026-04-25T10:24:38Z</time></trkpt><trkpt lat="45.55518669812946" lon="9.248249090766702"><ele>150.0</ele><time>2026-04-25T10:24:39Z</time></trkpt><trkpt lat="45.55517687310436" lon="9.248113641441186"><ele>150.0</ele><time>2026-04-25T10:24:40Z</time></trkpt><trkpt lat="45.55516913988171" lon="9.247991289324247"><ele>150.5</ele><time>2026-04-25T10:24:41Z</time></trkpt><trkpt lat="45.55514310855558" lon="9.247874435918616"><ele>151.0</ele><time>2026-04-25T10:24:42Z</time></trkpt><trkpt lat="45.555126058906666" lon="9.247683464923414"><ele>151.5</ele><time>2026-04-25T10:24:43Z</time></trkpt><trkpt lat="45.55509703547077" lon="9.247516877121024"><ele>152.0</ele><time>2026-04-25T10:24:44Z</time></trkpt><trkpt lat="45.55507011490508" lon="9.247343569467004"><ele>152.25</ele><time>2026-04-25T10:24:45Z</time></trkpt><trkpt lat="45.55504321857934" lon="9.247166594891402"><ele>152.5</ele><time>2026-04-25T10:24:46Z</time></trkpt><trkpt lat="45.55500190075989" lon="9.24698293414253"><ele>152.75</ele><time>2026-04-25T10:24:47Z</time></trkpt><trkpt lat="45.55498190440805" lon="9.24678775842157"><ele>153.0</ele><time>2026-04-25T10:24:48Z</time></trkpt><trkpt lat="45.554983931984786" lon="9.246588153509904"><ele>152.66666666666666</ele><time>2026-04-25T10:24:49Z</time></trkpt><trkpt lat="45.5549588560951" lon="9.246184259269551"><ele>152.33333333333331</ele><time>2026-04-25T10:24:51Z</time></trkpt><trkpt lat="45.55494384573243" lon="9.245986834629987"><ele>152.0</ele><time>2026-04-25T10:24:52Z</time></trkpt><trkpt lat="45.55491494546289" lon="9.245803049579614"><ele>152.0</ele><time>2026-04-25T10:24:53Z</time></trkpt><trkpt lat="45.554866697269986" lon="9.245638087857381"><ele>152.0</ele><time>2026-04-25T10:24:54Z</time></trkpt><trkpt lat="45.55480181525738" lon="9.245491985603604"><ele>152.0</ele><time>2026-04-25T10:24:55Z</time></trkpt><trkpt lat="45.55473366769313" lon="9.245362527938028"><ele>152.0</ele><time>2026-04-25T10:24:56Z</time></trkpt><trkpt lat="45.55466855587089" lon="9.245235108779818"><ele>152.0</ele><time>2026-04-25T10:24:57Z</time></trkpt><trkpt lat="45.55461729574332" lon="9.245105356692978"><ele>152.0</ele><time>2026-04-25T10:24:58Z</time></trkpt><trkpt lat="45.55459068363788" lon="9.244987926932387"><ele>152.0</ele><time>2026-04-25T10:24:59Z</time></trkpt><trkpt lat="45.55457636518011" lon="9.244850731789086"><ele>152.0</ele><time>2026-04-25T10:25:00.001Z</time></trkpt><trkpt lat="45.5545826500564" lon="9.244704303629677"><ele>152.0</ele><time>2026-04-25T10:25:01.001Z</time></trkpt><trkpt lat="45.554610728946905" lon="9.244560126916593"><ele>152.0</ele><time>2026-04-25T10:25:02.001Z</time></trkpt><trkpt lat="45.554655939765766" lon="9.244424089785868"><ele>152.0</ele><time>2026-04-25T10:25:03.001Z</time></trkpt><trkpt lat="45.55470214467513" lon="9.244292280645263"><ele>152.0</ele><time>2026-04-25T10:25:04.001Z</time></trkpt><trkpt lat="45.55474447113927" lon="9.244162091042044"><ele>152.0</ele><time>2026-04-25T10:25:05.001Z</time></trkpt><trkpt lat="45.55477503730989" lon="9.244039632324556"><ele>152.0</ele><time>2026-04-25T10:25:06.001Z</time></trkpt><trkpt lat="45.55479907412484" lon="9.243922681144623"><ele>152.16666666666666</ele><time>2026-04-25T10:25:07.001Z</time></trkpt><trkpt lat="45.5548079284274" lon="9.243827794544517"><ele>152.33333333333331</ele><time>2026-04-25T10:25:08.001Z</time></trkpt><trkpt lat="45.554802419450546" lon="9.243735250443287"><ele>152.5</ele><time>2026-04-25T10:25:09.001Z</time></trkpt><trkpt lat="45.55481316185295" lon="9.243572613196221"><ele>152.66666666666666</ele><time>2026-04-25T10:25:11.001Z</time></trkpt><trkpt lat="45.554807633848924" lon="9.243443165269122"><ele>152.83333333333334</ele><time>2026-04-25T10:25:13.001Z</time></trkpt><trkpt lat="45.554888249851835" lon="9.243345413753486"><ele>153.0</ele><time>2026-04-25T10:25:15.001Z</time></trkpt><trkpt lat="45.55493556641364" lon="9.243246595143304"><ele>153.0</ele><time>2026-04-25T10:25:16.001Z</time></trkpt><trkpt lat="45.554974681128655" lon="9.243158410291452"><ele>153.0</ele><time>2026-04-25T10:25:17.001Z</time></trkpt><trkpt lat="45.554977489160585" lon="9.243055173049978"><ele>153.0</ele><time>2026-04-25T10:25:18.001Z</time></trkpt><trkpt lat="45.55495196262721" lon="9.242940821022803"><ele>153.0</ele><time>2026-04-25T10:25:19.001Z</time></trkpt><trkpt lat="45.55489650623265" lon="9.24283823260633"><ele>153.0</ele><time>2026-04-25T10:25:20.001Z</time></trkpt><trkpt lat="45.55482338025378" lon="9.242755263531288"><ele>153.0</ele><time>2026-04-25T10:25:21.001Z</time></trkpt><trkpt lat="45.55473972615857" lon="9.242685872168407"><ele>153.25</ele><time>2026-04-25T10:25:22.001Z</time></trkpt><trkpt lat="45.55465993279705" lon="9.242612764806122"><ele>153.5</ele><time>2026-04-25T10:25:23.001Z</time></trkpt><trkpt lat="45.55457384978311" lon="9.242567999261484"><ele>153.75</ele><time>2026-04-25T10:25:24.001Z</time></trkpt><trkpt lat="45.554507245525244" lon="9.242529921706318"><ele>154.0</ele><time>2026-04-25T10:25:25.001Z</time></trkpt><trkpt lat="45.55456317690182" lon="9.242244748782824"><ele>153.25</ele><time>2026-04-25T10:25:26.001Z</time></trkpt><trkpt lat="45.554586824466156" lon="9.242094892212814"><ele>152.5</ele><time>2026-04-25T10:25:27.001Z</time></trkpt><trkpt lat="45.55463961955069" lon="9.241944721457696"><ele>151.75</ele><time>2026-04-25T10:25:28.001Z</time></trkpt><trkpt lat="45.5546786742248" lon="9.241784269863977"><ele>151.0</ele><time>2026-04-25T10:25:29.001Z</time></trkpt><trkpt lat="45.5547094611927" lon="9.24160392827072"><ele>151.0</ele><time>2026-04-25T10:25:30.001Z</time></trkpt><trkpt lat="45.554747128090476" lon="9.241411769775295"><ele>151.0</ele><time>2026-04-25T10:25:31.001Z</time></trkpt><trkpt lat="45.554789196094994" lon="9.241198571906361"><ele>151.0</ele><time>2026-04-25T10:25:32.001Z</time></trkpt><trkpt lat="45.55483302120185" lon="9.240969594181843"><ele>151.0</ele><time>2026-04-25T10:25:33.001Z</time></trkpt><trkpt lat="45.554877963985085" lon="9.240734096626086"><ele>151.0</ele><time>2026-04-25T10:25:34.001Z</time></trkpt><trkpt lat="45.554927729864524" lon="9.240474916365146"><ele>151.0</ele><time>2026-04-25T10:25:35.001Z</time></trkpt><trkpt lat="45.55498021826633" lon="9.240206206113466"><ele>151.0</ele><time>2026-04-25T10:25:36.001Z</time></trkpt><trkpt lat="45.55503877665151" lon="9.239931743315745"><ele>151.0</ele><time>2026-04-25T10:25:37.001Z</time></trkpt><trkpt lat="45.55509621730019" lon="9.239656105726933"><ele>151.0</ele><time>2026-04-25T10:25:38.001Z</time></trkpt><trkpt lat="45.55514653416006" lon="9.23940426899389"><ele>150.66666666666669</ele><time>2026-04-25T10:25:39.001Z</time></trkpt><trkpt lat="45.55519249235498" lon="9.239157090001818"><ele>150.33333333333334</ele><time>2026-04-25T10:25:40.001Z</time></trkpt><trkpt lat="45.55522505172731" lon="9.238943380600626"><ele>150.0</ele><time>2026-04-25T10:25:41.002Z</time></trkpt><trkpt lat="45.55526349977114" lon="9.238736615571797"><ele>150.0</ele><time>2026-04-25T10:25:42.002Z</time></trkpt><trkpt lat="45.55528713224258" lon="9.238540845379719"><ele>150.0</ele><time>2026-04-25T10:25:43.002Z</time></trkpt><trkpt lat="45.555293145546244" lon="9.238362550503593"><ele>150.0</ele><time>2026-04-25T10:25:44.002Z</time></trkpt><trkpt lat="45.55528536720752" lon="9.238192362162938"><ele>150.0</ele><time>2026-04-25T10:25:45.002Z</time></trkpt><trkpt lat="45.55527664157306" lon="9.238041416171257"><ele>150.0</ele><time>2026-04-25T10:25:46.002Z</time></trkpt><trkpt lat="45.55527947072505" lon="9.237921177235764"><ele>150.0</ele><time>2026-04-25T10:25:47.002Z</time></trkpt><trkpt lat="45.555299678423495" lon="9.23783173120478"><ele>150.0</ele><time>2026-04-25T10:25:48.002Z</time></trkpt><trkpt lat="45.55534481922662" lon="9.237758565319622"><ele>150.0</ele><time>2026-04-25T10:25:50.002Z</time></trkpt><trkpt lat="45.555413704176786" lon="9.237661422815659"><ele>150.0</ele><time>2026-04-25T10:25:54.002Z</time></trkpt><trkpt lat="45.5555247932485" lon="9.237616077400542"><ele>150.0</ele><time>2026-04-25T10:25:56.002Z</time></trkpt><trkpt lat="45.5555977560116" lon="9.237627643780382"><ele>150.16666666666666</ele><time>2026-04-25T10:25:57.002Z</time></trkpt><trkpt lat="45.555672416468305" lon="9.237672021683009"><ele>150.33333333333334</ele><time>2026-04-25T10:25:58.002Z</time></trkpt><trkpt lat="45.555745070183875" lon="9.237750591572423"><ele>150.5</ele><time>2026-04-25T10:25:59.002Z</time></trkpt><trkpt lat="45.555796311654824" lon="9.237848875136057"><ele>150.66666666666669</ele><time>2026-04-25T10:26:00.002Z</time></trkpt><trkpt lat="45.55582430403551" lon="9.23796982195611"><ele>150.83333333333334</ele><time>2026-04-25T10:26:01.002Z</time></trkpt><trkpt lat="45.55581615713207" lon="9.238103257444866"><ele>151.0</ele><time>2026-04-25T10:26:02.002Z</time></trkpt><trkpt lat="45.55577273271538" lon="9.238234515000627"><ele>151.0</ele><time>2026-04-25T10:26:03.002Z</time></trkpt><trkpt lat="45.555698059604495" lon="9.238355281902619"><ele>151.0</ele><time>2026-04-25T10:26:04.002Z</time></trkpt><trkpt lat="45.55560861327639" lon="9.238472354357292"><ele>151.0</ele><time>2026-04-25T10:26:05.002Z</time></trkpt><trkpt lat="45.5555256947159" lon="9.238610539273362"><ele>151.0</ele><time>2026-04-25T10:26:06.002Z</time></trkpt><trkpt lat="45.5554616302811" lon="9.238785936175331"><ele>151.0</ele><time>2026-04-25T10:26:07.002Z</time></trkpt><trkpt lat="45.55541218152596" lon="9.238996337249567"><ele>151.0</ele><time>2026-04-25T10:26:08.002Z</time></trkpt><trkpt lat="45.55536960730542" lon="9.239251832077372"><ele>151.0</ele><time>2026-04-25T10:26:09.002Z</time></trkpt><trkpt lat="45.55532367667837" lon="9.2395234720138"><ele>151.0</ele><time>2026-04-25T10:26:10.002Z</time></trkpt><trkpt lat="45.5552722698836" lon="9.239825455430962"><ele>151.0</ele><time>2026-04-25T10:26:11.002Z</time></trkpt><trkpt lat="45.55521717954421" lon="9.24013861729642"><ele>151.0</ele><time>2026-04-25T10:26:12.002Z</time></trkpt><trkpt lat="45.55514600509422" lon="9.240468404962638"><ele>151.0</ele><time>2026-04-25T10:26:13.002Z</time></trkpt><trkpt lat="45.55509227979012" lon="9.240783917118733"><ele>151.0</ele><time>2026-04-25T10:26:14.002Z</time></trkpt><trkpt lat="45.55502705365805" lon="9.241108925676532"><ele>151.0</ele><time>2026-04-25T10:26:15.002Z</time></trkpt><trkpt lat="45.55496212877559" lon="9.241430117997238"><ele>151.0</ele><time>2026-04-25T10:26:16.002Z</time></trkpt><trkpt lat="45.554898781066406" lon="9.241732981101949"><ele>151.0</ele><time>2026-04-25T10:26:17.002Z</time></trkpt><trkpt lat="45.55483646794594" lon="9.242020845808153"><ele>151.0</ele><time>2026-04-25T10:26:18.002Z</time></trkpt><trkpt lat="45.55478078860683" lon="9.242293144161343"><ele>151.0</ele><time>2026-04-25T10:26:19.002Z</time></trkpt><trkpt lat="45.5547205926624" lon="9.24257450868954"><ele>150.66666666666669</ele><time>2026-04-25T10:26:20.002Z</time></trkpt><trkpt lat="45.55465602596602" lon="9.24285843327219"><ele>150.33333333333334</ele><time>2026-04-25T10:26:21.002Z</time></trkpt><trkpt lat="45.554581615353115" lon="9.243151558749435"><ele>150.0</ele><time>2026-04-25T10:26:22.002Z</time></trkpt><trkpt lat="45.554516416445495" lon="9.243427342483546"><ele>150.0</ele><time>2026-04-25T10:26:23.002Z</time></trkpt><trkpt lat="45.55442913394523" lon="9.243674360579806"><ele>150.0</ele><time>2026-04-25T10:26:24.002Z</time></trkpt><trkpt lat="45.55433437062824" lon="9.243853451747475"><ele>150.0</ele><time>2026-04-25T10:26:25.003Z</time></trkpt><trkpt lat="45.554232096780105" lon="9.244019719830293"><ele>150.0</ele><time>2026-04-25T10:26:26.003Z</time></trkpt><trkpt lat="45.55413400367319" lon="9.244153002279864"><ele>150.0</ele><time>2026-04-25T10:26:27.003Z</time></trkpt><trkpt lat="45.554039062268515" lon="9.24427795653656"><ele>150.0</ele><time>2026-04-25T10:26:28.003Z</time></trkpt><trkpt lat="45.55394201282617" lon="9.24438928240375"><ele>150.0</ele><time>2026-04-25T10:26:29.003Z</time></trkpt><trkpt lat="45.553847572099954" lon="9.24449330985038"><ele>150.0</ele><time>2026-04-25T10:26:30.003Z</time></trkpt><trkpt lat="45.55374777969111" lon="9.24459670245841"><ele>150.0</ele><time>2026-04-25T10:26:31.003Z</time></trkpt><trkpt lat="45.553646978049066" lon="9.244690938472951"><ele>150.0</ele><time>2026-04-25T10:26:32.003Z</time></trkpt><trkpt lat="45.553545715384146" lon="9.244776206504"><ele>150.0</ele><time>2026-04-25T10:26:33.003Z</time></trkpt><trkpt lat="45.55344893920491" lon="9.244845301853065"><ele>149.8</ele><time>2026-04-25T10:26:34.003Z</time></trkpt><trkpt lat="45.55336867740123" lon="9.24493238317093"><ele>149.6</ele><time>2026-04-25T10:26:35.003Z</time></trkpt><trkpt lat="45.5532628535659" lon="9.24493943351404"><ele>149.4</ele><time>2026-04-25T10:26:36.003Z</time></trkpt><trkpt lat="45.5531686458984" lon="9.244960479333272"><ele>149.2</ele><time>2026-04-25T10:26:37.003Z</time></trkpt><trkpt lat="45.55307320538348" lon="9.244966155242972"><ele>149.0</ele><time>2026-04-25T10:26:38.003Z</time></trkpt><trkpt lat="45.55297679270825" lon="9.244947911720717"><ele>149.0</ele><time>2026-04-25T10:26:39.003Z</time></trkpt><trkpt lat="45.55288263624903" lon="9.244899542569476"><ele>149.0</ele><time>2026-04-25T10:26:40Z</time></trkpt><trkpt lat="45.55279009294417" lon="9.24482132055909"><ele>149.0</ele><time>2026-04-25T10:26:40.999Z</time></trkpt><trkpt lat="45.55271223878683" lon="9.244717043695353"><ele>149.0</ele><time>2026-04-25T10:26:41.999Z</time></trkpt><trkpt lat="45.55265258224391" lon="9.244589758270017"><ele>149.0</ele><time>2026-04-25T10:26:42.999Z</time></trkpt><trkpt lat="45.552617370229356" lon="9.244433351205469"><ele>149.75</ele><time>2026-04-25T10:26:43.999Z</time></trkpt><trkpt lat="45.552592838387056" lon="9.244275681263142"><ele>150.5</ele><time>2026-04-25T10:26:44.999Z</time></trkpt><trkpt lat="45.55257018410385" lon="9.244103630747821"><ele>151.25</ele><time>2026-04-25T10:26:45.999Z</time></trkpt><trkpt lat="45.552542622965845" lon="9.243917532362257"><ele>152.0</ele><time>2026-04-25T10:26:46.999Z</time></trkpt><trkpt lat="45.552512804851716" lon="9.243722940379282"><ele>152.0</ele><time>2026-04-25T10:26:47.999Z</time></trkpt><trkpt lat="45.55248089787294" lon="9.243518966053779"><ele>152.0</ele><time>2026-04-25T10:26:48.999Z</time></trkpt><trkpt lat="45.552446547231895" lon="9.243310710675729"><ele>152.0</ele><time>2026-04-25T10:26:49.999Z</time></trkpt><trkpt lat="45.55241182195025" lon="9.243104556167635"><ele>152.0</ele><time>2026-04-25T10:26:50.999Z</time></trkpt><trkpt lat="45.552380806510214" lon="9.242896126778083"><ele>151.75</ele><time>2026-04-25T10:26:51.999Z</time></trkpt><trkpt lat="45.552348282965376" lon="9.242680413364456"><ele>151.5</ele><time>2026-04-25T10:26:52.999Z</time></trkpt><trkpt lat="45.552318096151595" lon="9.242477997221942"><ele>151.25</ele><time>2026-04-25T10:26:53.999Z</time></trkpt><trkpt lat="45.552285811288215" lon="9.242274730147718"><ele>151.0</ele><time>2026-04-25T10:26:54.999Z</time></trkpt><trkpt lat="45.55225401866035" lon="9.242073048863041"><ele>151.0</ele><time>2026-04-25T10:26:55.999Z</time></trkpt><trkpt lat="45.5522241951452" lon="9.241868208488453"><ele>151.0</ele><time>2026-04-25T10:26:56.999Z</time></trkpt><trkpt lat="45.55219505812844" lon="9.241656542846801"><ele>151.0</ele><time>2026-04-25T10:26:57.999Z</time></trkpt><trkpt lat="45.5521582051963" lon="9.241437929484169"><ele>151.0</ele><time>2026-04-25T10:26:58.999Z</time></trkpt><trkpt lat="45.5521271894001" lon="9.241221149692784"><ele>151.0</ele><time>2026-04-25T10:26:59.999Z</time></trkpt><trkpt lat="45.55209411094722" lon="9.241000910386813"><ele>151.0</ele><time>2026-04-25T10:27:00.999Z</time></trkpt><trkpt lat="45.552061959117744" lon="9.240777012468598"><ele>151.0</ele><time>2026-04-25T10:27:01.999Z</time></trkpt><trkpt lat="45.552032279624996" lon="9.240543985944134"><ele>151.0</ele><time>2026-04-25T10:27:02.999Z</time></trkpt><trkpt lat="45.551996428922244" lon="9.24030976109593"><ele>151.0</ele><time>2026-04-25T10:27:03.999Z</time></trkpt><trkpt lat="45.55196629592616" lon="9.240079769834093"><ele>151.0</ele><time>2026-04-25T10:27:05Z</time></trkpt><trkpt lat="45.55192929613888" lon="9.239836174032565"><ele>151.0</ele><time>2026-04-25T10:27:06Z</time></trkpt><trkpt lat="45.55189338536179" lon="9.239592921835865"><ele>151.0</ele><time>2026-04-25T10:27:07Z</time></trkpt><trkpt lat="45.551861643237906" lon="9.239343581856271"><ele>151.0</ele><time>2026-04-25T10:27:08Z</time></trkpt><trkpt lat="45.55183095800603" lon="9.239088106664383"><ele>151.0</ele><time>2026-04-25T10:27:09Z</time></trkpt><trkpt lat="45.55179781122226" lon="9.238836789091922"><ele>151.0</ele><time>2026-04-25T10:27:10Z</time></trkpt><trkpt lat="45.55177145570774" lon="9.23859119325769"><ele>151.0</ele><time>2026-04-25T10:27:11Z</time></trkpt><trkpt lat="45.55174047308341" lon="9.238348624805054"><ele>151.0</ele><time>2026-04-25T10:27:12Z</time></trkpt><trkpt lat="45.55169919825205" lon="9.238102309727802"><ele>151.0</ele><time>2026-04-25T10:27:13Z</time></trkpt><trkpt lat="45.55165095742999" lon="9.23787373017049"><ele>150.33333333333334</ele><time>2026-04-25T10:27:14Z</time></trkpt><trkpt lat="45.5516043026403" lon="9.237636041362084"><ele>149.66666666666666</ele><time>2026-04-25T10:27:15Z</time></trkpt><trkpt lat="45.55157625301919" lon="9.237416424772462"><ele>149.0</ele><time>2026-04-25T10:27:16Z</time></trkpt><trkpt lat="45.551539135793654" lon="9.23720455045542"><ele>148.75</ele><time>2026-04-25T10:27:17Z</time></trkpt><trkpt lat="45.55150285694978" lon="9.236997070225293"><ele>148.5</ele><time>2026-04-25T10:27:18Z</time></trkpt><trkpt lat="45.55146930928683" lon="9.236795808957398"><ele>148.25</ele><time>2026-04-25T10:27:19Z</time></trkpt><trkpt lat="45.55143600804151" lon="9.23659489171902"><ele>148.0</ele><time>2026-04-25T10:27:20Z</time></trkpt><trkpt lat="45.55140393659686" lon="9.236398755301835"><ele>148.75</ele><time>2026-04-25T10:27:21Z</time></trkpt><trkpt lat="45.5513728520066" lon="9.236194323184767"><ele>149.5</ele><time>2026-04-25T10:27:22Z</time></trkpt><trkpt lat="45.551341662846" lon="9.235999702687979"><ele>150.25</ele><time>2026-04-25T10:27:23Z</time></trkpt><trkpt lat="45.55131423655495" lon="9.23580672674744"><ele>151.0</ele><time>2026-04-25T10:27:24Z</time></trkpt><trkpt lat="45.55127212454916" lon="9.235617104444232"><ele>151.66666666666669</ele><time>2026-04-25T10:27:25Z</time></trkpt><trkpt lat="45.551256740133475" lon="9.235395525047124"><ele>152.33333333333334</ele><time>2026-04-25T10:27:26Z</time></trkpt><trkpt lat="45.551232662928285" lon="9.235187786601298"><ele>153.0</ele><time>2026-04-25T10:27:27Z</time></trkpt><trkpt lat="45.55121295852202" lon="9.234979822204163"><ele>153.33333333333334</ele><time>2026-04-25T10:27:28Z</time></trkpt><trkpt lat="45.551166459828" lon="9.234728114677354"><ele>153.66666666666669</ele><time>2026-04-25T10:27:29Z</time></trkpt><trkpt lat="45.55112687630816" lon="9.234504604529496"><ele>154.0</ele><time>2026-04-25T10:27:30Z</time></trkpt><trkpt lat="45.55108615067718" lon="9.234271495027004"><ele>154.0</ele><time>2026-04-25T10:27:31Z</time></trkpt><trkpt lat="45.551055094383685" lon="9.234044307789148"><ele>154.0</ele><time>2026-04-25T10:27:32Z</time></trkpt><trkpt lat="45.5510221811111" lon="9.233816439061746"><ele>154.0</ele><time>2026-04-25T10:27:33Z</time></trkpt><trkpt lat="45.550986957028236" lon="9.233595080261535"><ele>153.33333333333334</ele><time>2026-04-25T10:27:34Z</time></trkpt><trkpt lat="45.55094613983822" lon="9.233366710483168"><ele>152.66666666666666</ele><time>2026-04-25T10:27:35.068Z</time></trkpt><trkpt lat="45.550910579912085" lon="9.233140595190871"><ele>152.0</ele><time>2026-04-25T10:27:36.03Z</time></trkpt><trkpt lat="45.550874277551486" lon="9.2329152284111"><ele>152.0</ele><time>2026-04-25T10:27:37.027Z</time></trkpt><trkpt lat="45.55083956288917" lon="9.23268894200627"><ele>152.0</ele><time>2026-04-25T10:27:38.028Z</time></trkpt><trkpt lat="45.54961142018791" lon="9.229797512767647"><ele>149.0</ele><time>2026-04-25T10:27:43.274Z</time></trkpt><trkpt lat="45.55041290937859" lon="9.229890037370156"><ele>149.0</ele><time>2026-04-25T10:27:44Z</time></trkpt><trkpt lat="45.55035597630832" lon="9.229506666892082"><ele>149.0</ele><time>2026-04-25T10:27:45.001Z</time></trkpt><trkpt lat="45.55031097250353" lon="9.229134922349997"><ele>148.5</ele><time>2026-04-25T10:27:46.001Z</time></trkpt><trkpt lat="45.5502686364995" lon="9.228763603051052"><ele>148.0</ele><time>2026-04-25T10:27:47.001Z</time></trkpt><trkpt lat="45.550206942349035" lon="9.22839413493306"><ele>147.5</ele><time>2026-04-25T10:27:48.001Z</time></trkpt><trkpt lat="45.5501434798422" lon="9.228020757694763"><ele>147.0</ele><time>2026-04-25T10:27:49.001Z</time></trkpt><trkpt lat="45.55007995095759" lon="9.22764886031333"><ele>148.5</ele><time>2026-04-25T10:27:50.001Z</time></trkpt><trkpt lat="45.55001169331535" lon="9.227260289438838"><ele>150.0</ele><time>2026-04-25T10:27:51.001Z</time></trkpt><trkpt lat="45.549934936293724" lon="9.226831317624177"><ele>150.0</ele><time>2026-04-25T10:27:52.001Z</time></trkpt><trkpt lat="45.54985015505678" lon="9.226358916847563"><ele>150.0</ele><time>2026-04-25T10:27:53.001Z</time></trkpt><trkpt lat="45.54977276859402" lon="9.225892366461473"><ele>149.5</ele><time>2026-04-25T10:27:54.001Z</time></trkpt><trkpt lat="45.54969484408486" lon="9.225429570497354"><ele>149.0</ele><time>2026-04-25T10:27:55.001Z</time></trkpt><trkpt lat="45.54960652395564" lon="9.224945765041511"><ele>148.5</ele><time>2026-04-25T10:27:56.001Z</time></trkpt><trkpt lat="45.549536292148424" lon="9.224443872150433"><ele>148.0</ele><time>2026-04-25T10:27:57.001Z</time></trkpt><trkpt lat="45.549467163764554" lon="9.223936331784998"><ele>148.0</ele><time>2026-04-25T10:27:58.001Z</time></trkpt><trkpt lat="45.54939499104259" lon="9.22342032488331"><ele>148.0</ele><time>2026-04-25T10:27:59.001Z</time></trkpt><trkpt lat="45.549325550815354" lon="9.222918748447357"><ele>148.5</ele><time>2026-04-25T10:28:00.001Z</time></trkpt><trkpt lat="45.549254911279654" lon="9.222450449071436"><ele>149.0</ele><time>2026-04-25T10:28:01.001Z</time></trkpt><trkpt lat="45.54918670290642" lon="9.222023656614622"><ele>149.0</ele><time>2026-04-25T10:28:02.001Z</time></trkpt><trkpt lat="45.549131322851686" lon="9.221622905549992"><ele>149.0</ele><time>2026-04-25T10:28:03.001Z</time></trkpt><trkpt lat="45.54907733675275" lon="9.22123429558269"><ele>149.0</ele><time>2026-04-25T10:28:04.001Z</time></trkpt><trkpt lat="45.54902520095504" lon="9.220863984601287"><ele>149.0</ele><time>2026-04-25T10:28:05.001Z</time></trkpt><trkpt lat="45.548981016376466" lon="9.220509358390318"><ele>150.0</ele><time>2026-04-25T10:28:06.001Z</time></trkpt><trkpt lat="45.5489394538484" lon="9.220144663619802"><ele>151.0</ele><time>2026-04-25T10:28:07.001Z</time></trkpt><trkpt lat="45.548911033740126" lon="9.219791271894845"><ele>151.5</ele><time>2026-04-25T10:28:08.001Z</time></trkpt><trkpt lat="45.54887916914123" lon="9.21943980438842"><ele>152.0</ele><time>2026-04-25T10:28:09.001Z</time></trkpt><trkpt lat="45.54884805973097" lon="9.21910505695789"><ele>153.0</ele><time>2026-04-25T10:28:10.001Z</time></trkpt><trkpt lat="45.548813737204206" lon="9.21876899831856"><ele>154.0</ele><time>2026-04-25T10:28:11.001Z</time></trkpt><trkpt lat="45.54878801877753" lon="9.218406169020623"><ele>152.5</ele><time>2026-04-25T10:28:12.001Z</time></trkpt><trkpt lat="45.548766454773556" lon="9.218012389174373"><ele>151.0</ele><time>2026-04-25T10:28:13.001Z</time></trkpt><trkpt lat="45.548752518203756" lon="9.2175898515254"><ele>150.5</ele><time>2026-04-25T10:28:14.001Z</time></trkpt><trkpt lat="45.54873929734456" lon="9.217138726744231"><ele>150.0</ele><time>2026-04-25T10:28:15.001Z</time></trkpt><trkpt lat="45.54872496489406" lon="9.216656299401967"><ele>150.5</ele><time>2026-04-25T10:28:16.001Z</time></trkpt><trkpt lat="45.548709299718524" lon="9.216146788985009"><ele>151.0</ele><time>2026-04-25T10:28:17.001Z</time></trkpt><trkpt lat="45.54869433083143" lon="9.215600495731765"><ele>150.0</ele><time>2026-04-25T10:28:18.001Z</time></trkpt><trkpt lat="45.548679671247896" lon="9.215062521421423"><ele>149.0</ele><time>2026-04-25T10:28:19.001Z</time></trkpt><trkpt lat="45.54867018556013" lon="9.214572525308627"><ele>147.5</ele><time>2026-04-25T10:28:20.001Z</time></trkpt><trkpt lat="45.548663876825394" lon="9.214117928990078"><ele>146.0</ele><time>2026-04-25T10:28:21.001Z</time></trkpt><trkpt lat="45.54865570072853" lon="9.213689114675228"><ele>146.0</ele><time>2026-04-25T10:28:22.001Z</time></trkpt><trkpt lat="45.548647323858866" lon="9.213279510778719"><ele>146.0</ele><time>2026-04-25T10:28:23.001Z</time></trkpt><trkpt lat="45.54863836063953" lon="9.212874291624624"><ele>147.0</ele><time>2026-04-25T10:28:24.001Z</time></trkpt><trkpt lat="45.548628678982375" lon="9.212473716934893"><ele>148.0</ele><time>2026-04-25T10:28:25.001Z</time></trkpt><trkpt lat="45.54861750107151" lon="9.212077246723988"><ele>148.0</ele><time>2026-04-25T10:28:26.001Z</time></trkpt><trkpt lat="45.548606470829554" lon="9.211682220038595"><ele>148.0</ele><time>2026-04-25T10:28:27.001Z</time></trkpt><trkpt lat="45.54859495666822" lon="9.211294919871762"><ele>148.5</ele><time>2026-04-25T10:28:28.002Z</time></trkpt><trkpt lat="45.548581866306144" lon="9.210914805716058"><ele>149.0</ele><time>2026-04-25T10:28:29.002Z</time></trkpt><trkpt lat="45.54856369383958" lon="9.210535218785274"><ele>149.0</ele><time>2026-04-25T10:28:30.002Z</time></trkpt><trkpt lat="45.54854017621782" lon="9.210150032434077"><ele>149.0</ele><time>2026-04-25T10:28:31.002Z</time></trkpt><trkpt lat="45.54851717767592" lon="9.20974573476007"><ele>149.0</ele><time>2026-04-25T10:28:32.002Z</time></trkpt><trkpt lat="45.548498673007806" lon="9.209316945275223"><ele>149.0</ele><time>2026-04-25T10:28:33.002Z</time></trkpt><trkpt lat="45.548486684917506" lon="9.208868779758573"><ele>149.0</ele><time>2026-04-25T10:28:34.002Z</time></trkpt><trkpt lat="45.54847518544981" lon="9.208399370809616"><ele>149.0</ele><time>2026-04-25T10:28:35.002Z</time></trkpt><trkpt lat="45.54845876498827" lon="9.207904395690647"><ele>149.0</ele><time>2026-04-25T10:28:36.002Z</time></trkpt><trkpt lat="45.54844146677089" lon="9.207414451932614"><ele>149.0</ele><time>2026-04-25T10:28:37.002Z</time></trkpt><trkpt lat="45.54842534173895" lon="9.20694023656759"><ele>148.5</ele><time>2026-04-25T10:28:38.002Z</time></trkpt><trkpt lat="45.54841076293739" lon="9.206479180077213"><ele>148.0</ele><time>2026-04-25T10:28:39.002Z</time></trkpt><trkpt lat="45.548397956494796" lon="9.206042741595025"><ele>148.5</ele><time>2026-04-25T10:28:40.002Z</time></trkpt><trkpt lat="45.54838521795526" lon="9.205625342231594"><ele>149.0</ele><time>2026-04-25T10:28:41.002Z</time></trkpt><trkpt lat="45.54837318260445" lon="9.205219077231934"><ele>149.0</ele><time>2026-04-25T10:28:42.002Z</time></trkpt><trkpt lat="45.54835959990251" lon="9.204806614480141"><ele>149.0</ele><time>2026-04-25T10:28:43.002Z</time></trkpt><trkpt lat="45.54834496299865" lon="9.204401248637415"><ele>148.5</ele><time>2026-04-25T10:28:44.002Z</time></trkpt><trkpt lat="45.54832817680395" lon="9.20399228752122"><ele>148.0</ele><time>2026-04-25T10:28:45.002Z</time></trkpt><trkpt lat="45.54830666266888" lon="9.203584108694063"><ele>148.0</ele><time>2026-04-25T10:28:45.998Z</time></trkpt><trkpt lat="45.54827691455567" lon="9.203184308244163"><ele>148.0</ele><time>2026-04-25T10:28:46.998Z</time></trkpt><trkpt lat="45.548250900580975" lon="9.202795655349805"><ele>147.5</ele><time>2026-04-25T10:28:47.998Z</time></trkpt><trkpt lat="45.54821184746409" lon="9.202376775727634"><ele>147.0</ele><time>2026-04-25T10:28:48.998Z</time></trkpt><trkpt lat="45.54817229022823" lon="9.20197892362512"><ele>148.0</ele><time>2026-04-25T10:28:49.998Z</time></trkpt><trkpt lat="45.54812236981937" lon="9.201575424042419"><ele>149.0</ele><time>2026-04-25T10:28:50.998Z</time></trkpt><trkpt lat="45.54806535420286" lon="9.20117769750863"><ele>149.0</ele><time>2026-04-25T10:28:51.998Z</time></trkpt><trkpt lat="45.54800200447526" lon="9.200782111108282"><ele>149.0</ele><time>2026-04-25T10:28:52.998Z</time></trkpt><trkpt lat="45.54793367947459" lon="9.200386238901967"><ele>148.5</ele><time>2026-04-25T10:28:53.998Z</time></trkpt><trkpt lat="45.547856808228175" lon="9.199983494213116"><ele>148.0</ele><time>2026-04-25T10:28:54.998Z</time></trkpt><trkpt lat="45.54777286314941" lon="9.19957662601837"><ele>148.0</ele><time>2026-04-25T10:28:55.998Z</time></trkpt><trkpt lat="45.54767836546395" lon="9.19916686967616"><ele>148.0</ele><time>2026-04-25T10:28:56.998Z</time></trkpt><trkpt lat="45.54757785503072" lon="9.198753205687055"><ele>147.5</ele><time>2026-04-25T10:28:57.998Z</time></trkpt><trkpt lat="45.547470866349194" lon="9.19833756638529"><ele>147.0</ele><time>2026-04-25T10:28:58.998Z</time></trkpt><trkpt lat="45.547360356238244" lon="9.197915539414911"><ele>148.0</ele><time>2026-04-25T10:28:59.998Z</time></trkpt><trkpt lat="45.54724914248551" lon="9.197489643047009"><ele>149.0</ele><time>2026-04-25T10:29:00.999Z</time></trkpt><trkpt lat="45.5471347936276" lon="9.19704073583473"><ele>148.5</ele><time>2026-04-25T10:29:01.999Z</time></trkpt><trkpt lat="45.5470169744251" lon="9.196578875924907"><ele>148.0</ele><time>2026-04-25T10:29:02.999Z</time></trkpt><trkpt lat="45.54689860299182" lon="9.196111806059985"><ele>148.5</ele><time>2026-04-25T10:29:03.999Z</time></trkpt><trkpt lat="45.5467838350525" lon="9.195643595127885"><ele>149.0</ele><time>2026-04-25T10:29:04.999Z</time></trkpt><trkpt lat="45.54667164952017" lon="9.195173446428772"><ele>149.5</ele><time>2026-04-25T10:29:05.999Z</time></trkpt><trkpt lat="45.54655832786885" lon="9.194703828939494"><ele>150.0</ele><time>2026-04-25T10:29:06.999Z</time></trkpt><trkpt lat="45.54644386293045" lon="9.19424763344513"><ele>150.0</ele><time>2026-04-25T10:29:07.999Z</time></trkpt><trkpt lat="45.54632912546047" lon="9.19380665842608"><ele>150.0</ele><time>2026-04-25T10:29:08.999Z</time></trkpt><trkpt lat="45.54621719511401" lon="9.193378214605636"><ele>150.0</ele><time>2026-04-25T10:29:09.999Z</time></trkpt><trkpt lat="45.54610660895218" lon="9.192955851712258"><ele>150.0</ele><time>2026-04-25T10:29:10.999Z</time></trkpt><trkpt lat="45.54599901020095" lon="9.192536966204921"><ele>150.0</ele><time>2026-04-25T10:29:11.999Z</time></trkpt><trkpt lat="45.54589224916559" lon="9.192126218106418"><ele>150.0</ele><time>2026-04-25T10:29:12.999Z</time></trkpt><trkpt lat="45.545786685905675" lon="9.191720472323091"><ele>151.5</ele><time>2026-04-25T10:29:13.999Z</time></trkpt><trkpt lat="45.54568234331124" lon="9.191328279841938"><ele>153.0</ele><time>2026-04-25T10:29:14.999Z</time></trkpt><trkpt lat="45.54557425891076" lon="9.190935429627666"><ele>153.0</ele><time>2026-04-25T10:29:15.999Z</time></trkpt><trkpt lat="45.54546418877096" lon="9.190540963113465"><ele>153.0</ele><time>2026-04-25T10:29:16.999Z</time></trkpt><trkpt lat="45.54535192945597" lon="9.190135428241286"><ele>152.0</ele><time>2026-04-25T10:29:17.999Z</time></trkpt><trkpt lat="45.54524195386126" lon="9.189735347326131"><ele>151.0</ele><time>2026-04-25T10:29:18.999Z</time></trkpt><trkpt lat="45.5451383307484" lon="9.18934072744951"><ele>151.0</ele><time>2026-04-25T10:29:19.999Z</time></trkpt><trkpt lat="45.545038949530955" lon="9.188952439286995"><ele>151.0</ele><time>2026-04-25T10:29:20.999Z</time></trkpt><trkpt lat="45.54494378234541" lon="9.18857252107567"><ele>151.0</ele><time>2026-04-25T10:29:21.999Z</time></trkpt><trkpt lat="45.54485394117043" lon="9.188210137428104"><ele>151.0</ele><time>2026-04-25T10:29:22.999Z</time></trkpt><trkpt lat="45.544768789284355" lon="9.187865866771556"><ele>150.5</ele><time>2026-04-25T10:29:23.999Z</time></trkpt><trkpt lat="45.54469018713404" lon="9.18754385726147"><ele>150.0</ele><time>2026-04-25T10:29:24.999Z</time></trkpt><trkpt lat="45.54461061614382" lon="9.187230236377816"><ele>150.0</ele><time>2026-04-25T10:29:26Z</time></trkpt><trkpt lat="45.54453021574991" lon="9.186912004252296"><ele>150.0</ele><time>2026-04-25T10:29:27Z</time></trkpt><trkpt lat="45.544445674325985" lon="9.186590450296718"><ele>150.5</ele><time>2026-04-25T10:29:28Z</time></trkpt><trkpt lat="45.54436091521258" lon="9.186263346595686"><ele>151.0</ele><time>2026-04-25T10:29:29Z</time></trkpt><trkpt lat="45.54427529703667" lon="9.185935738123677"><ele>150.0</ele><time>2026-04-25T10:29:30Z</time></trkpt><trkpt lat="45.544185697066986" lon="9.185592477846296"><ele>149.0</ele><time>2026-04-25T10:29:31Z</time></trkpt><trkpt lat="45.54409394162333" lon="9.185243338983266"><ele>149.0</ele><time>2026-04-25T10:29:32Z</time></trkpt><trkpt lat="45.54399951630598" lon="9.184886470536787"><ele>149.0</ele><time>2026-04-25T10:29:33Z</time></trkpt><trkpt lat="45.54390319608049" lon="9.184523096389585"><ele>149.0</ele><time>2026-04-25T10:29:34Z</time></trkpt><trkpt lat="45.54380689880448" lon="9.184158037869507"><ele>149.0</ele><time>2026-04-25T10:29:35Z</time></trkpt><trkpt lat="45.54370832295873" lon="9.183777059354789"><ele>149.0</ele><time>2026-04-25T10:29:36Z</time></trkpt><trkpt lat="45.54360609481125" lon="9.183387513881009"><ele>149.0</ele><time>2026-04-25T10:29:37Z</time></trkpt><trkpt lat="45.543504417460134" lon="9.182998568984232"><ele>148.5</ele><time>2026-04-25T10:29:38Z</time></trkpt><trkpt lat="45.54340645466855" lon="9.182626030415866"><ele>148.0</ele><time>2026-04-25T10:29:39Z</time></trkpt><trkpt lat="45.54331227524913" lon="9.182264739242648"><ele>147.5</ele><time>2026-04-25T10:29:40Z</time></trkpt><trkpt lat="45.54321473572637" lon="9.18189462795204"><ele>147.0</ele><time>2026-04-25T10:29:41Z</time></trkpt><trkpt lat="45.54311738889474" lon="9.181519358746957"><ele>148.0</ele><time>2026-04-25T10:29:42Z</time></trkpt><trkpt lat="45.54301854340907" lon="9.181147972442396"><ele>149.0</ele><time>2026-04-25T10:29:43Z</time></trkpt><trkpt lat="45.54292323228339" lon="9.180794316084409"><ele>149.5</ele><time>2026-04-25T10:29:44Z</time></trkpt><trkpt lat="45.54281790968749" lon="9.180395415277207"><ele>150.0</ele><time>2026-04-25T10:29:45Z</time></trkpt><trkpt lat="45.54272157643261" lon="9.180024359081292"><ele>150.5</ele><time>2026-04-25T10:29:46Z</time></trkpt><trkpt lat="45.54262514371678" lon="9.179662451984509"><ele>151.0</ele><time>2026-04-25T10:29:47Z</time></trkpt><trkpt lat="45.54252517111669" lon="9.179306290985092"><ele>150.5</ele><time>2026-04-25T10:29:48Z</time></trkpt><trkpt lat="45.54242491717212" lon="9.178944384081337"><ele>150.0</ele><time>2026-04-25T10:29:49Z</time></trkpt><trkpt lat="45.54231715920418" lon="9.178593602684762"><ele>150.0</ele><time>2026-04-25T10:29:50Z</time></trkpt><trkpt lat="45.54221728471807" lon="9.178239283733586"><ele>150.0</ele><time>2026-04-25T10:29:51Z</time></trkpt><trkpt lat="45.54211431605208" lon="9.177883905689129"><ele>149.5</ele><time>2026-04-25T10:29:52Z</time></trkpt><trkpt lat="45.54201345067025" lon="9.177535247017037"><ele>149.0</ele><time>2026-04-25T10:29:53Z</time></trkpt><trkpt lat="45.54191402226283" lon="9.177191012679748"><ele>149.0</ele><time>2026-04-25T10:29:54Z</time></trkpt><trkpt lat="45.541812696862586" lon="9.176850068679311"><ele>149.0</ele><time>2026-04-25T10:29:55Z</time></trkpt><trkpt lat="45.54171904788329" lon="9.17650726680131"><ele>149.0</ele><time>2026-04-25T10:29:56Z</time></trkpt><trkpt lat="45.54161923047265" lon="9.176156260609282"><ele>149.0</ele><time>2026-04-25T10:29:57Z</time></trkpt><trkpt lat="45.54151559921926" lon="9.175793857160846"><ele>151.0</ele><time>2026-04-25T10:29:58Z</time></trkpt><trkpt lat="45.54141000951337" lon="9.175405496221353"><ele>153.0</ele><time>2026-04-25T10:29:59Z</time></trkpt><trkpt lat="45.541304084991786" lon="9.175001924509669"><ele>151.0</ele><time>2026-04-25T10:30:00Z</time></trkpt><trkpt lat="45.54118370580572" lon="9.174622303929409"><ele>149.0</ele><time>2026-04-25T10:30:01Z</time></trkpt><trkpt lat="45.54107369713844" lon="9.174221959680347"><ele>149.5</ele><time>2026-04-25T10:30:02.001Z</time></trkpt><trkpt lat="45.54095871184923" lon="9.173820206090097"><ele>150.0</ele><time>2026-04-25T10:30:03.001Z</time></trkpt><trkpt lat="45.54083357033502" lon="9.173433143975073"><ele>149.5</ele><time>2026-04-25T10:30:04.001Z</time></trkpt><trkpt lat="45.54069166819826" lon="9.173056803745888"><ele>149.0</ele><time>2026-04-25T10:30:05.001Z</time></trkpt><trkpt lat="45.54056395466232" lon="9.1726511471634"><ele>149.0</ele><time>2026-04-25T10:30:06.001Z</time></trkpt><trkpt lat="45.540428542660024" lon="9.172246539892681"><ele>149.0</ele><time>2026-04-25T10:30:07.001Z</time></trkpt><trkpt lat="45.54028446613265" lon="9.171833628543673"><ele>149.0</ele><time>2026-04-25T10:30:08.001Z</time></trkpt><trkpt lat="45.540134330160875" lon="9.171419061106283"><ele>149.0</ele><time>2026-04-25T10:30:09.001Z</time></trkpt><trkpt lat="45.5399781171005" lon="9.170999629960606"><ele>149.5</ele><time>2026-04-25T10:30:10.001Z</time></trkpt><trkpt lat="45.53980834161365" lon="9.170569629670458"><ele>150.0</ele><time>2026-04-25T10:30:11.001Z</time></trkpt><trkpt lat="45.53963902301733" lon="9.17013927199436"><ele>149.0</ele><time>2026-04-25T10:30:12.001Z</time></trkpt><trkpt lat="45.539471625050695" lon="9.169707941376034"><ele>148.0</ele><time>2026-04-25T10:30:13.001Z</time></trkpt><trkpt lat="45.53930325747775" lon="9.169287715975923"><ele>149.0</ele><time>2026-04-25T10:30:14.001Z</time></trkpt><trkpt lat="45.53913364979442" lon="9.168873895590659"><ele>150.0</ele><time>2026-04-25T10:30:15.001Z</time></trkpt><trkpt lat="45.53896284941539" lon="9.168471955293958"><ele>150.5</ele><time>2026-04-25T10:30:16.001Z</time></trkpt><trkpt lat="45.5387905239347" lon="9.168082495425315"><ele>151.0</ele><time>2026-04-25T10:30:17.001Z</time></trkpt><trkpt lat="45.53861742979594" lon="9.167691854023504"><ele>150.5</ele><time>2026-04-25T10:30:18.001Z</time></trkpt><trkpt lat="45.53844846640793" lon="9.167304809707181"><ele>150.0</ele><time>2026-04-25T10:30:19.001Z</time></trkpt><trkpt lat="45.53827624368453" lon="9.16692547454208"><ele>150.0</ele><time>2026-04-25T10:30:20.001Z</time></trkpt><trkpt lat="45.5381037794933" lon="9.166542422987455"><ele>150.0</ele><time>2026-04-25T10:30:21.001Z</time></trkpt><trkpt lat="45.5379225295079" lon="9.166161216828582"><ele>148.5</ele><time>2026-04-25T10:30:22.001Z</time></trkpt><trkpt lat="45.53773978601648" lon="9.165782768578703"><ele>147.0</ele><time>2026-04-25T10:30:23.001Z</time></trkpt><trkpt lat="45.53753943445432" lon="9.165410203965282"><ele>147.0</ele><time>2026-04-25T10:30:24.001Z</time></trkpt><trkpt lat="45.53734249031219" lon="9.1650141633622"><ele>147.0</ele><time>2026-04-25T10:30:25.001Z</time></trkpt><trkpt lat="45.5371457039644" lon="9.164604797751451"><ele>147.0</ele><time>2026-04-25T10:30:26.001Z</time></trkpt><trkpt lat="45.5369688075483" lon="9.164222882138713"><ele>147.0</ele><time>2026-04-25T10:30:27.001Z</time></trkpt><trkpt lat="45.53679195290363" lon="9.163845187550688"><ele>147.0</ele><time>2026-04-25T10:30:28.001Z</time></trkpt><trkpt lat="45.536619007550435" lon="9.163485024781702"><ele>147.0</ele><time>2026-04-25T10:30:29.001Z</time></trkpt><trkpt lat="45.536451985227146" lon="9.163129082854914"><ele>146.5</ele><time>2026-04-25T10:30:30.001Z</time></trkpt><trkpt lat="45.53629704675933" lon="9.162763862764308"><ele>146.0</ele><time>2026-04-25T10:30:31.001Z</time></trkpt><trkpt lat="45.53613605804429" lon="9.162404297475593"><ele>146.0</ele><time>2026-04-25T10:30:32.001Z</time></trkpt><trkpt lat="45.535968596975316" lon="9.162053858888369"><ele>146.0</ele><time>2026-04-25T10:30:33.001Z</time></trkpt><trkpt lat="45.53579870207429" lon="9.161706944344308"><ele>146.0</ele><time>2026-04-25T10:30:34.001Z</time></trkpt><trkpt lat="45.53562171222185" lon="9.161358501414428"><ele>146.0</ele><time>2026-04-25T10:30:35.001Z</time></trkpt><trkpt lat="45.535454530068165" lon="9.161006481879497"><ele>147.0</ele><time>2026-04-25T10:30:36.001Z</time></trkpt><trkpt lat="45.53527861297093" lon="9.160648580586242"><ele>148.0</ele><time>2026-04-25T10:30:37.001Z</time></trkpt><trkpt lat="45.53510655158054" lon="9.160292066716565"><ele>148.0</ele><time>2026-04-25T10:30:38.001Z</time></trkpt><trkpt lat="45.53493192702991" lon="9.159921503620655"><ele>148.0</ele><time>2026-04-25T10:30:39.001Z</time></trkpt><trkpt lat="45.534748968311696" lon="9.15955339340746"><ele>148.0</ele><time>2026-04-25T10:30:40.001Z</time></trkpt><trkpt lat="45.53457957033907" lon="9.159206607469867"><ele>148.0</ele><time>2026-04-25T10:30:41.002Z</time></trkpt><trkpt lat="45.534422089269974" lon="9.158881436968631"><ele>147.0</ele><time>2026-04-25T10:30:42.002Z</time></trkpt><trkpt lat="45.53428046746907" lon="9.158572639547238"><ele>146.0</ele><time>2026-04-25T10:30:43.002Z</time></trkpt><trkpt lat="45.534141699706254" lon="9.158279597540487"><ele>147.0</ele><time>2026-04-25T10:30:44.002Z</time></trkpt><trkpt lat="45.53400731340907" lon="9.157993200578503"><ele>148.0</ele><time>2026-04-25T10:30:45.002Z</time></trkpt><trkpt lat="45.53386539976359" lon="9.157716175326632"><ele>147.5</ele><time>2026-04-25T10:30:46.002Z</time></trkpt><trkpt lat="45.53372008842187" lon="9.157426221541321"><ele>147.0</ele><time>2026-04-25T10:30:47.002Z</time></trkpt><trkpt lat="45.53357643196736" lon="9.157132486470188"><ele>146.0</ele><time>2026-04-25T10:30:48.002Z</time></trkpt><trkpt lat="45.53343739938944" lon="9.156837478625082"><ele>145.0</ele><time>2026-04-25T10:30:49.002Z</time></trkpt><trkpt lat="45.53329609719898" lon="9.156538331179629"><ele>146.0</ele><time>2026-04-25T10:30:50.002Z</time></trkpt><trkpt lat="45.533154198036684" lon="9.156238631514675"><ele>147.0</ele><time>2026-04-25T10:30:51.002Z</time></trkpt><trkpt lat="45.53301311978347" lon="9.155942882231724"><ele>147.5</ele><time>2026-04-25T10:30:51.998Z</time></trkpt><trkpt lat="45.53287409305359" lon="9.155634495924232"><ele>148.0</ele><time>2026-04-25T10:30:52.998Z</time></trkpt><trkpt lat="45.532732364218106" lon="9.155308113860395"><ele>148.0</ele><time>2026-04-25T10:30:53.998Z</time></trkpt><trkpt lat="45.532581717576065" lon="9.154973654255903"><ele>148.0</ele><time>2026-04-25T10:30:54.998Z</time></trkpt><trkpt lat="45.532418382708556" lon="9.154625938436814"><ele>147.5</ele><time>2026-04-25T10:30:55.998Z</time></trkpt><trkpt lat="45.53224053852112" lon="9.154268210483025"><ele>147.0</ele><time>2026-04-25T10:30:56.998Z</time></trkpt><trkpt lat="45.532061450351556" lon="9.15388554052613"><ele>146.0</ele><time>2026-04-25T10:30:57.998Z</time></trkpt><trkpt lat="45.531880415867306" lon="9.15350514058528"><ele>145.0</ele><time>2026-04-25T10:30:58.998Z</time></trkpt><trkpt lat="45.531705536811664" lon="9.153128595675176"><ele>145.0</ele><time>2026-04-25T10:30:59.998Z</time></trkpt><trkpt lat="45.53152949790358" lon="9.152752709308324"><ele>145.0</ele><time>2026-04-25T10:31:00.998Z</time></trkpt><trkpt lat="45.53135517063598" lon="9.152383745252244"><ele>145.0</ele><time>2026-04-25T10:31:01.998Z</time></trkpt><trkpt lat="45.53117841873631" lon="9.152014138694263"><ele>145.0</ele><time>2026-04-25T10:31:02.998Z</time></trkpt><trkpt lat="45.53101378651483" lon="9.15169447220345"><ele>145.0</ele><time>2026-04-25T10:31:03.998Z</time></trkpt><trkpt lat="45.53085457823308" lon="9.151391484950137"><ele>145.0</ele><time>2026-04-25T10:31:04.998Z</time></trkpt><trkpt lat="45.53069652916162" lon="9.151091053177701"><ele>145.0</ele><time>2026-04-25T10:31:05.998Z</time></trkpt><trkpt lat="45.53054250816861" lon="9.15079412970621"><ele>145.0</ele><time>2026-04-25T10:31:06.998Z</time></trkpt><trkpt lat="45.530391310989785" lon="9.150492043347636"><ele>144.0</ele><time>2026-04-25T10:31:07.998Z</time></trkpt><trkpt lat="45.53024459134749" lon="9.150191859254939"><ele>143.0</ele><time>2026-04-25T10:31:08.999Z</time></trkpt><trkpt lat="45.53009803605191" lon="9.149890426488101"><ele>143.5</ele><time>2026-04-25T10:31:09.999Z</time></trkpt><trkpt lat="45.52995155424562" lon="9.149591435965627"><ele>144.0</ele><time>2026-04-25T10:31:10.999Z</time></trkpt><trkpt lat="45.52979510091538" lon="9.149284625418925"><ele>144.0</ele><time>2026-04-25T10:31:11.999Z</time></trkpt><trkpt lat="45.52963662444769" lon="9.14897438075151"><ele>144.0</ele><time>2026-04-25T10:31:12.999Z</time></trkpt><trkpt lat="45.52947475534633" lon="9.148649181641261"><ele>143.5</ele><time>2026-04-25T10:31:13.999Z</time></trkpt><trkpt lat="45.52930733049017" lon="9.148314114305709"><ele>143.0</ele><time>2026-04-25T10:31:14.999Z</time></trkpt><trkpt lat="45.52913112937513" lon="9.147957272246853"><ele>143.0</ele><time>2026-04-25T10:31:15.999Z</time></trkpt><trkpt lat="45.52895068116066" lon="9.147585847868893"><ele>143.0</ele><time>2026-04-25T10:31:16.999Z</time></trkpt><trkpt lat="45.52876717370299" lon="9.14720228407726"><ele>143.0</ele><time>2026-04-25T10:31:17.999Z</time></trkpt><trkpt lat="45.52857801902305" lon="9.146802305136433"><ele>143.0</ele><time>2026-04-25T10:31:18.999Z</time></trkpt><trkpt lat="45.52838545212089" lon="9.146401883915047"><ele>143.0</ele><time>2026-04-25T10:31:19.999Z</time></trkpt><trkpt lat="45.528192799953295" lon="9.145997865146137"><ele>143.0</ele><time>2026-04-25T10:31:20.999Z</time></trkpt><trkpt lat="45.528013164074224" lon="9.145624691123427"><ele>142.0</ele><time>2026-04-25T10:31:21.999Z</time></trkpt><trkpt lat="45.52784811353012" lon="9.14527924659668"><ele>141.0</ele><time>2026-04-25T10:31:22.999Z</time></trkpt><trkpt lat="45.52769111965" lon="9.14495039031428"><ele>142.0</ele><time>2026-04-25T10:31:23.999Z</time></trkpt><trkpt lat="45.5275416043992" lon="9.144637714295284"><ele>143.0</ele><time>2026-04-25T10:31:24.999Z</time></trkpt><trkpt lat="45.527393749928926" lon="9.144328390568347"><ele>143.0</ele><time>2026-04-25T10:31:25.999Z</time></trkpt><trkpt lat="45.52724512161301" lon="9.144017575554182"><ele>143.0</ele><time>2026-04-25T10:31:26.999Z</time></trkpt><trkpt lat="45.52709755356612" lon="9.143713223662896"><ele>142.5</ele><time>2026-04-25T10:31:27.999Z</time></trkpt><trkpt lat="45.526948577455165" lon="9.143408175330505"><ele>142.0</ele><time>2026-04-25T10:31:28.999Z</time></trkpt><trkpt lat="45.52680231502981" lon="9.143101497001146"><ele>143.0</ele><time>2026-04-25T10:31:29.999Z</time></trkpt><trkpt lat="45.52665797292262" lon="9.14279972950689"><ele>144.0</ele><time>2026-04-25T10:31:30.999Z</time></trkpt><trkpt lat="45.52651460376271" lon="9.142497884642163"><ele>144.0</ele><time>2026-04-25T10:31:32Z</time></trkpt><trkpt lat="45.5263733543944" lon="9.142200748502155"><ele>144.0</ele><time>2026-04-25T10:31:33Z</time></trkpt><trkpt lat="45.52622828372318" lon="9.141900106329489"><ele>143.5</ele><time>2026-04-25T10:31:34Z</time></trkpt><trkpt lat="45.52608410803126" lon="9.14160544430268"><ele>143.0</ele><time>2026-04-25T10:31:35Z</time></trkpt><trkpt lat="45.52594227602941" lon="9.14131290748401"><ele>145.0</ele><time>2026-04-25T10:31:36Z</time></trkpt><trkpt lat="45.525803025974135" lon="9.141027791195645"><ele>147.0</ele><time>2026-04-25T10:31:37Z</time></trkpt><trkpt lat="45.525667450678085" lon="9.140746158814778"><ele>146.0</ele><time>2026-04-25T10:31:38Z</time></trkpt><trkpt lat="45.525532113543996" lon="9.140466425769283"><ele>145.0</ele><time>2026-04-25T10:31:39Z</time></trkpt><trkpt lat="45.52539661269377" lon="9.140185076460755"><ele>144.5</ele><time>2026-04-25T10:31:40Z</time></trkpt><trkpt lat="45.52525896393462" lon="9.13990061118104"><ele>144.0</ele><time>2026-04-25T10:31:41Z</time></trkpt><trkpt lat="45.52511959928817" lon="9.139611866373608"><ele>143.5</ele><time>2026-04-25T10:31:42Z</time></trkpt><trkpt lat="45.52498138163689" lon="9.13932871841852"><ele>143.0</ele><time>2026-04-25T10:31:43Z</time></trkpt><trkpt lat="45.52483856334334" lon="9.13903219992474"><ele>143.0</ele><time>2026-04-25T10:31:44Z</time></trkpt><trkpt lat="45.524698358262796" lon="9.13873385629727"><ele>143.0</ele><time>2026-04-25T10:31:45Z</time></trkpt><trkpt lat="45.52455795000188" lon="9.138425774419314"><ele>142.5</ele><time>2026-04-25T10:31:46Z</time></trkpt><trkpt lat="45.52441781465184" lon="9.138108443072733"><ele>142.0</ele><time>2026-04-25T10:31:47Z</time></trkpt><trkpt lat="45.52427334642729" lon="9.137787739081674"><ele>142.0</ele><time>2026-04-25T10:31:48Z</time></trkpt><trkpt lat="45.524124753529144" lon="9.137468942383302"><ele>142.0</ele><time>2026-04-25T10:31:49Z</time></trkpt><trkpt lat="45.52397135257924" lon="9.137150713757153"><ele>142.0</ele><time>2026-04-25T10:31:50Z</time></trkpt><trkpt lat="45.52381753943407" lon="9.136835721600098"><ele>142.0</ele><time>2026-04-25T10:31:51Z</time></trkpt><trkpt lat="45.52366361483111" lon="9.136519895052798"><ele>142.0</ele><time>2026-04-25T10:31:52Z</time></trkpt><trkpt lat="45.52350949462815" lon="9.1361982391044"><ele>142.0</ele><time>2026-04-25T10:31:53Z</time></trkpt><trkpt lat="45.523364734247345" lon="9.135881278553896"><ele>142.5</ele><time>2026-04-25T10:31:54Z</time></trkpt><trkpt lat="45.52322399154406" lon="9.135575730503048"><ele>143.0</ele><time>2026-04-25T10:31:55Z</time></trkpt><trkpt lat="45.52308169085804" lon="9.13527369288583"><ele>143.0</ele><time>2026-04-25T10:31:56Z</time></trkpt><trkpt lat="45.52293538002204" lon="9.134970938847971"><ele>143.0</ele><time>2026-04-25T10:31:57Z</time></trkpt><trkpt lat="45.52278350377887" lon="9.134656334332632"><ele>143.0</ele><time>2026-04-25T10:31:58Z</time></trkpt><trkpt lat="45.522627286115736" lon="9.134332134763564"><ele>143.0</ele><time>2026-04-25T10:31:59Z</time></trkpt><trkpt lat="45.52246021367173" lon="9.133996021690823"><ele>141.5</ele><time>2026-04-25T10:32:00Z</time></trkpt><trkpt lat="45.52229003975047" lon="9.133656213765434"><ele>140.0</ele><time>2026-04-25T10:32:01Z</time></trkpt><trkpt lat="45.52212990102823" lon="9.133337878214428"><ele>140.0</ele><time>2026-04-25T10:32:02Z</time></trkpt><trkpt lat="45.521971966248884" lon="9.133018637492897"><ele>140.0</ele><time>2026-04-25T10:32:03Z</time></trkpt><trkpt lat="45.52181625098258" lon="9.132706765646509"><ele>140.0</ele><time>2026-04-25T10:32:04.001Z</time></trkpt><trkpt lat="45.52166728771578" lon="9.132401243382944"><ele>140.0</ele><time>2026-04-25T10:32:05.001Z</time></trkpt><trkpt lat="45.52152053600271" lon="9.132091480624645"><ele>140.0</ele><time>2026-04-25T10:32:06.001Z</time></trkpt><trkpt lat="45.52137746582455" lon="9.131794038860216"><ele>140.0</ele><time>2026-04-25T10:32:07.001Z</time></trkpt><trkpt lat="45.521242604508444" lon="9.131520626911701"><ele>140.66666666666666</ele><time>2026-04-25T10:32:08.001Z</time></trkpt><trkpt lat="45.52111493270547" lon="9.131260150414866"><ele>141.33333333333334</ele><time>2026-04-25T10:32:09.001Z</time></trkpt><trkpt lat="45.520991099437275" lon="9.131000672058779"><ele>142.0</ele><time>2026-04-25T10:32:10.001Z</time></trkpt><trkpt lat="45.52085893339071" lon="9.130728605066663"><ele>141.5</ele><time>2026-04-25T10:32:11.001Z</time></trkpt><trkpt lat="45.52072688065315" lon="9.130450594548712"><ele>141.0</ele><time>2026-04-25T10:32:12.001Z</time></trkpt><trkpt lat="45.52059052484279" lon="9.13016986625061"><ele>140.5</ele><time>2026-04-25T10:32:13.001Z</time></trkpt><trkpt lat="45.52045362149952" lon="9.129878362857118"><ele>140.0</ele><time>2026-04-25T10:32:14.001Z</time></trkpt><trkpt lat="45.52031808295025" lon="9.129584762005631"><ele>140.0</ele><time>2026-04-25T10:32:15.001Z</time></trkpt><trkpt lat="45.5201859959674" lon="9.129290718949727"><ele>140.0</ele><time>2026-04-25T10:32:16.001Z</time></trkpt><trkpt lat="45.52004787803988" lon="9.128991993607814"><ele>139.5</ele><time>2026-04-25T10:32:17.001Z</time></trkpt><trkpt lat="45.519903284233514" lon="9.128681161321625"><ele>139.0</ele><time>2026-04-25T10:32:18.001Z</time></trkpt><trkpt lat="45.519758632561654" lon="9.128368254519573"><ele>139.0</ele><time>2026-04-25T10:32:19.001Z</time></trkpt><trkpt lat="45.51960544814308" lon="9.12808124358751"><ele>139.0</ele><time>2026-04-25T10:32:20.001Z</time></trkpt><trkpt lat="45.51946729332673" lon="9.12778856625735"><ele>140.0</ele><time>2026-04-25T10:32:21.001Z</time></trkpt><trkpt lat="45.51935148316303" lon="9.127476535784329"><ele>141.0</ele><time>2026-04-25T10:32:22.001Z</time></trkpt><trkpt lat="45.519219815008235" lon="9.127194793941932"><ele>141.5</ele><time>2026-04-25T10:32:23.001Z</time></trkpt><trkpt lat="45.519088149225915" lon="9.126921690574303"><ele>142.0</ele><time>2026-04-25T10:32:24.001Z</time></trkpt><trkpt lat="45.51895860704128" lon="9.12665110572772"><ele>141.66666666666669</ele><time>2026-04-25T10:32:25.001Z</time></trkpt><trkpt lat="45.51883335222274" lon="9.126392297243877"><ele>141.33333333333334</ele><time>2026-04-25T10:32:26.001Z</time></trkpt><trkpt lat="45.518714276188284" lon="9.12615140492605"><ele>141.0</ele><time>2026-04-25T10:32:27.001Z</time></trkpt><trkpt lat="45.5186006632214" lon="9.125925248420723"><ele>141.33333333333334</ele><time>2026-04-25T10:32:28.001Z</time></trkpt><trkpt lat="45.51848505725288" lon="9.125697754754158"><ele>141.66666666666669</ele><time>2026-04-25T10:32:29.001Z</time></trkpt><trkpt lat="45.51837211108273" lon="9.125476874776853"><ele>142.0</ele><time>2026-04-25T10:32:30.001Z</time></trkpt><trkpt lat="45.51826104748869" lon="9.125264092507413"><ele>142.0</ele><time>2026-04-25T10:32:31.001Z</time></trkpt><trkpt lat="45.518159536942015" lon="9.125059001533254"><ele>142.0</ele><time>2026-04-25T10:32:32.001Z</time></trkpt><trkpt lat="45.51806614590457" lon="9.124857404846765"><ele>142.0</ele><time>2026-04-25T10:32:33.001Z</time></trkpt><trkpt lat="45.51797241344716" lon="9.124657359741907"><ele>141.0</ele><time>2026-04-25T10:32:34.001Z</time></trkpt><trkpt lat="45.5178742812116" lon="9.124466520792888"><ele>140.0</ele><time>2026-04-25T10:32:35.001Z</time></trkpt><trkpt lat="45.51776528496743" lon="9.12429038788131"><ele>139.0</ele><time>2026-04-25T10:32:36.001Z</time></trkpt><trkpt lat="45.51763705109044" lon="9.124123641840447"><ele>139.66666666666669</ele><time>2026-04-25T10:32:37.001Z</time></trkpt><trkpt lat="45.51749247661923" lon="9.123965988814906"><ele>140.33333333333334</ele><time>2026-04-25T10:32:38.001Z</time></trkpt><trkpt lat="45.51733267274966" lon="9.123813732900665"><ele>141.0</ele><time>2026-04-25T10:32:39.002Z</time></trkpt><trkpt lat="45.5171520469092" lon="9.12368799288766"><ele>140.0</ele><time>2026-04-25T10:32:40.002Z</time></trkpt><trkpt lat="45.51696822992068" lon="9.12359016339962"><ele>139.0</ele><time>2026-04-25T10:32:41.002Z</time></trkpt><trkpt lat="45.51676164467791" lon="9.12351973994724"><ele>138.0</ele><time>2026-04-25T10:32:42.002Z</time></trkpt><trkpt lat="45.51654676443147" lon="9.123463503675634"><ele>138.0</ele><time>2026-04-25T10:32:43.002Z</time></trkpt><trkpt lat="45.516326414419275" lon="9.123409580663022"><ele>138.0</ele><time>2026-04-25T10:32:44.002Z</time></trkpt><trkpt lat="45.516092351155734" lon="9.123338510409898"><ele>138.5</ele><time>2026-04-25T10:32:45.002Z</time></trkpt><trkpt lat="45.51586810516708" lon="9.123268420860404"><ele>139.0</ele><time>2026-04-25T10:32:46.002Z</time></trkpt><trkpt lat="45.5156523086483" lon="9.123200218012844"><ele>139.33333333333334</ele><time>2026-04-25T10:32:47.002Z</time></trkpt><trkpt lat="45.515444371034576" lon="9.123134229125602"><ele>139.66666666666666</ele><time>2026-04-25T10:32:48.002Z</time></trkpt><trkpt lat="45.51525360550345" lon="9.12306794204807"><ele>140.0</ele><time>2026-04-25T10:32:49.002Z</time></trkpt><trkpt lat="45.51506297726506" lon="9.123004282312687"><ele>139.66666666666666</ele><time>2026-04-25T10:32:50.002Z</time></trkpt><trkpt lat="45.51487769649071" lon="9.122957901556894"><ele>139.33333333333334</ele><time>2026-04-25T10:32:51.002Z</time></trkpt><trkpt lat="45.51469668068814" lon="9.12292531317527"><ele>139.0</ele><time>2026-04-25T10:32:52.002Z</time></trkpt><trkpt lat="45.51451512360206" lon="9.12293504568037"><ele>139.0</ele><time>2026-04-25T10:32:53.002Z</time></trkpt><trkpt lat="45.5143262141723" lon="9.122985197237956"><ele>139.0</ele><time>2026-04-25T10:32:54.002Z</time></trkpt><trkpt lat="45.5141572921134" lon="9.12309802565507"><ele>139.0</ele><time>2026-04-25T10:32:55.002Z</time></trkpt><trkpt lat="45.514003234330424" lon="9.123251778545995"><ele>139.33333333333334</ele><time>2026-04-25T10:32:56.002Z</time></trkpt><trkpt lat="45.51386610216558" lon="9.123441849174476"><ele>139.66666666666666</ele><time>2026-04-25T10:32:57.002Z</time></trkpt><trkpt lat="45.513741364391485" lon="9.123658205605125"><ele>140.0</ele><time>2026-04-25T10:32:57.999Z</time></trkpt><trkpt lat="45.51362532126753" lon="9.123884198387032"><ele>139.66666666666666</ele><time>2026-04-25T10:32:58.999Z</time></trkpt><trkpt lat="45.513508458422926" lon="9.124094836698708"><ele>139.33333333333334</ele><time>2026-04-25T10:32:59.999Z</time></trkpt><trkpt lat="45.51338424588238" lon="9.124294027729448"><ele>139.0</ele><time>2026-04-25T10:33:00.999Z</time></trkpt><trkpt lat="45.51325537511588" lon="9.124489357987947"><ele>139.0</ele><time>2026-04-25T10:33:01.999Z</time></trkpt><trkpt lat="45.51312192165313" lon="9.124690310096357"><ele>139.0</ele><time>2026-04-25T10:33:02.999Z</time></trkpt><trkpt lat="45.512985615384395" lon="9.124904884024478"><ele>139.0</ele><time>2026-04-25T10:33:03.999Z</time></trkpt><trkpt lat="45.51284495148621" lon="9.125138331381391"><ele>137.5</ele><time>2026-04-25T10:33:04.999Z</time></trkpt><trkpt lat="45.51269467285739" lon="9.125384291006394"><ele>136.0</ele><time>2026-04-25T10:33:05.999Z</time></trkpt><trkpt lat="45.51254411088822" lon="9.125634644122778"><ele>137.0</ele><time>2026-04-25T10:33:06.999Z</time></trkpt><trkpt lat="45.51238579187194" lon="9.125898751639202"><ele>138.0</ele><time>2026-04-25T10:33:07.999Z</time></trkpt><trkpt lat="45.5122131239897" lon="9.126186509912301"><ele>137.5</ele><time>2026-04-25T10:33:08.999Z</time></trkpt><trkpt lat="45.51203058439324" lon="9.126474354782959"><ele>137.0</ele><time>2026-04-25T10:33:09.999Z</time></trkpt><trkpt lat="45.511840158685764" lon="9.126752484716029"><ele>137.0</ele><time>2026-04-25T10:33:10.999Z</time></trkpt><trkpt lat="45.51164798950987" lon="9.127023460718332"><ele>137.0</ele><time>2026-04-25T10:33:11.999Z</time></trkpt><trkpt lat="45.51146660081" lon="9.127298165919923"><ele>137.5</ele><time>2026-04-25T10:33:12.999Z</time></trkpt><trkpt lat="45.51128602809083" lon="9.127580620885642"><ele>138.0</ele><time>2026-04-25T10:33:13.999Z</time></trkpt><trkpt lat="45.51109986677006" lon="9.127867211742478"><ele>137.0</ele><time>2026-04-25T10:33:14.999Z</time></trkpt><trkpt lat="45.51091231197272" lon="9.128147049013789"><ele>136.0</ele><time>2026-04-25T10:33:15.999Z</time></trkpt><trkpt lat="45.5107283087556" lon="9.128415055948084"><ele>135.5</ele><time>2026-04-25T10:33:16.999Z</time></trkpt><trkpt lat="45.510541924377385" lon="9.128667569723657"><ele>135.0</ele><time>2026-04-25T10:33:17.999Z</time></trkpt><trkpt lat="45.51035005358791" lon="9.128900987035983"><ele>136.5</ele><time>2026-04-25T10:33:18.999Z</time></trkpt><trkpt lat="45.510147462766646" lon="9.1291030070453"><ele>138.0</ele><time>2026-04-25T10:33:19.999Z</time></trkpt><trkpt lat="45.509934554029684" lon="9.129269806860092"><ele>138.0</ele><time>2026-04-25T10:33:20.999Z</time></trkpt><trkpt lat="45.50971354955788" lon="9.12940830755576"><ele>138.0</ele><time>2026-04-25T10:33:21.999Z</time></trkpt><trkpt lat="45.50948818262767" lon="9.129523658972001"><ele>137.0</ele><time>2026-04-25T10:33:22.999Z</time></trkpt><trkpt lat="45.50925869096493" lon="9.129617667659435"><ele>136.0</ele><time>2026-04-25T10:33:23.999Z</time></trkpt><trkpt lat="45.5090256310563" lon="9.12969515704267"><ele>136.0</ele><time>2026-04-25T10:33:25Z</time></trkpt><trkpt lat="45.50880212181633" lon="9.129751956054703"><ele>136.0</ele><time>2026-04-25T10:33:26Z</time></trkpt><trkpt lat="45.50858708129711" lon="9.129793432894736"><ele>136.0</ele><time>2026-04-25T10:33:27Z</time></trkpt><trkpt lat="45.50838030024463" lon="9.129830123852006"><ele>137.0</ele><time>2026-04-25T10:33:28Z</time></trkpt><trkpt lat="45.50818689153502" lon="9.129863473895908"><ele>138.0</ele><time>2026-04-25T10:33:29Z</time></trkpt><trkpt lat="45.50800683871324" lon="9.129898259640434"><ele>139.0</ele><time>2026-04-25T10:33:30Z</time></trkpt><trkpt lat="45.50784461051407" lon="9.12993534080623"><ele>139.0</ele><time>2026-04-25T10:33:31Z</time></trkpt><trkpt lat="45.50768550376357" lon="9.12997451839802"><ele>139.0</ele><time>2026-04-25T10:33:32Z</time></trkpt><trkpt lat="45.507531221403276" lon="9.13001445589582"><ele>139.0</ele><time>2026-04-25T10:33:33Z</time></trkpt><trkpt lat="45.507385959610325" lon="9.130049114648035"><ele>139.0</ele><time>2026-04-25T10:33:34Z</time></trkpt><trkpt lat="45.507245533744594" lon="9.130081657943737"><ele>139.0</ele><time>2026-04-25T10:33:35Z</time></trkpt><trkpt lat="45.507102078041676" lon="9.130115966783865"><ele>139.0</ele><time>2026-04-25T10:33:36Z</time></trkpt><trkpt lat="45.50695747697812" lon="9.130156222195364"><ele>139.0</ele><time>2026-04-25T10:33:37Z</time></trkpt><trkpt lat="45.506811109721816" lon="9.130196556535909"><ele>138.33333333333334</ele><time>2026-04-25T10:33:38Z</time></trkpt><trkpt lat="45.5066584562803" lon="9.13023355044385"><ele>137.66666666666666</ele><time>2026-04-25T10:33:39Z</time></trkpt><trkpt lat="45.506502844751274" lon="9.130272269126486"><ele>137.0</ele><time>2026-04-25T10:33:40Z</time></trkpt><trkpt lat="45.50634159269351" lon="9.130314229105975"><ele>137.33333333333331</ele><time>2026-04-25T10:33:41Z</time></trkpt><trkpt lat="45.50617848343347" lon="9.130354757532583"><ele>137.66666666666666</ele><time>2026-04-25T10:33:42Z</time></trkpt><trkpt lat="45.50600457256699" lon="9.130382916204756"><ele>138.0</ele><time>2026-04-25T10:33:43Z</time></trkpt><trkpt lat="45.50583809219137" lon="9.130407054124227"><ele>138.0</ele><time>2026-04-25T10:33:44Z</time></trkpt><trkpt lat="45.5056807533797" lon="9.130430000214657"><ele>138.0</ele><time>2026-04-25T10:33:45Z</time></trkpt><trkpt lat="45.50551665868375" lon="9.130456504459808"><ele>138.0</ele><time>2026-04-25T10:33:46Z</time></trkpt><trkpt lat="45.50535447432527" lon="9.130476941800364"><ele>137.66666666666666</ele><time>2026-04-25T10:33:47Z</time></trkpt><trkpt lat="45.50517185425219" lon="9.130499198042166"><ele>137.33333333333331</ele><time>2026-04-25T10:33:48Z</time></trkpt><trkpt lat="45.504984337665825" lon="9.130512706029819"><ele>137.0</ele><time>2026-04-25T10:33:49Z</time></trkpt><trkpt lat="45.504796925639695" lon="9.130517071675703"><ele>137.0</ele><time>2026-04-25T10:33:50Z</time></trkpt><trkpt lat="45.50461243681038" lon="9.130517171960287"><ele>137.0</ele><time>2026-04-25T10:33:51Z</time></trkpt><trkpt lat="45.50443375363012" lon="9.13051866728662"><ele>137.0</ele><time>2026-04-25T10:33:52Z</time></trkpt><trkpt lat="45.504260336440325" lon="9.130511370199352"><ele>136.0</ele><time>2026-04-25T10:33:53Z</time></trkpt><trkpt lat="45.50409703282438" lon="9.130498959688873"><ele>135.0</ele><time>2026-04-25T10:33:54.001Z</time></trkpt><trkpt lat="45.50393860099787" lon="9.130481759498783"><ele>134.0</ele><time>2026-04-25T10:33:55.001Z</time></trkpt><trkpt lat="45.50377731730579" lon="9.13046383309226"><ele>133.66666666666666</ele><time>2026-04-25T10:33:56.001Z</time></trkpt><trkpt lat="45.50362281456358" lon="9.13044263848125"><ele>133.33333333333334</ele><time>2026-04-25T10:33:57.001Z</time></trkpt><trkpt lat="45.50345806121492" lon="9.130418427668669"><ele>133.0</ele><time>2026-04-25T10:33:58.001Z</time></trkpt><trkpt lat="45.50328307450653" lon="9.130412709996934"><ele>133.0</ele><time>2026-04-25T10:33:59.001Z</time></trkpt><trkpt lat="45.503101811741644" lon="9.13035663028506"><ele>133.0</ele><time>2026-04-25T10:34:00.001Z</time></trkpt><trkpt lat="45.50290002405284" lon="9.130321883184019"><ele>133.0</ele><time>2026-04-25T10:34:01.001Z</time></trkpt><trkpt lat="45.50267569682819" lon="9.130278837760287"><ele>134.0</ele><time>2026-04-25T10:34:02.001Z</time></trkpt><trkpt lat="45.502441708819696" lon="9.130235838090794"><ele>135.0</ele><time>2026-04-25T10:34:03.001Z</time></trkpt><trkpt lat="45.50219026692362" lon="9.130189862636223"><ele>134.5</ele><time>2026-04-25T10:34:04.001Z</time></trkpt><trkpt lat="45.50194453053701" lon="9.130162465505363"><ele>134.0</ele><time>2026-04-25T10:34:05.001Z</time></trkpt><trkpt lat="45.50168648456975" lon="9.130143715528881"><ele>134.0</ele><time>2026-04-25T10:34:06.001Z</time></trkpt><trkpt lat="45.50140902892931" lon="9.130140949871906"><ele>134.0</ele><time>2026-04-25T10:34:07.001Z</time></trkpt><trkpt lat="45.50114847554293" lon="9.130152586285101"><ele>136.0</ele><time>2026-04-25T10:34:08.001Z</time></trkpt><trkpt lat="45.50090746910713" lon="9.130167662477383"><ele>138.0</ele><time>2026-04-25T10:34:09.001Z</time></trkpt><trkpt lat="45.50067859142312" lon="9.130179785427137"><ele>138.0</ele><time>2026-04-25T10:34:10.001Z</time></trkpt><trkpt lat="45.50046906812527" lon="9.13018663790683"><ele>138.0</ele><time>2026-04-25T10:34:11.001Z</time></trkpt><trkpt lat="45.50029469557915" lon="9.130188846090508"><ele>138.0</ele><time>2026-04-25T10:34:12.001Z</time></trkpt><trkpt lat="45.50016691044932" lon="9.130188697199326"><ele>138.0</ele><time>2026-04-25T10:34:13.001Z</time></trkpt><trkpt lat="45.500077305011786" lon="9.130186476004669"><ele>138.0</ele><time>2026-04-25T10:34:14.001Z</time></trkpt><trkpt lat="45.500013784971834" lon="9.130184312243824"><ele>138.0</ele><time>2026-04-25T10:34:15.001Z</time></trkpt><trkpt lat="45.49990037316322" lon="9.130168706529483"><ele>138.0</ele><time>2026-04-25T10:35:12Z</time></trkpt><trkpt lat="45.499804317640226" lon="9.13017509105614"><ele>138.0</ele><time>2026-04-25T10:35:13Z</time></trkpt><trkpt lat="45.49968812178327" lon="9.13018766496017"><ele>138.0</ele><time>2026-04-25T10:35:14Z</time></trkpt><trkpt lat="45.49961731101206" lon="9.130206696305725"><ele>138.0</ele><time>2026-04-25T10:35:15Z</time></trkpt><trkpt lat="45.4995197109929" lon="9.130213367814331"><ele>138.0</ele><time>2026-04-25T10:35:16Z</time></trkpt><trkpt lat="45.49943888355349" lon="9.13020347928601"><ele>138.0</ele><time>2026-04-25T10:35:17Z</time></trkpt><trkpt lat="45.49935477037435" lon="9.130277307751005"><ele>138.0</ele><time>2026-04-25T10:35:18Z</time></trkpt><trkpt lat="45.49928898557081" lon="9.130067798673604"><ele>137.4</ele><time>2026-04-25T10:35:19Z</time></trkpt><trkpt lat="45.49921130105256" lon="9.13006777225394"><ele>136.8</ele><time>2026-04-25T10:35:20Z</time></trkpt><trkpt lat="45.4991327936021" lon="9.129992078341408"><ele>136.2</ele><time>2026-04-25T10:35:22Z</time></trkpt><trkpt lat="45.49900438629983" lon="9.129971667085387"><ele>135.6</ele><time>2026-04-25T10:35:24.001Z</time></trkpt><trkpt lat="45.49890542015043" lon="9.12997785638246"><ele>135.0</ele><time>2026-04-25T10:35:25.001Z</time></trkpt><trkpt lat="45.49878276249553" lon="9.129959721744724"><ele>135.25</ele><time>2026-04-25T10:35:26.001Z</time></trkpt><trkpt lat="45.49864359532943" lon="9.129942153801121"><ele>135.5</ele><time>2026-04-25T10:35:27.001Z</time></trkpt><trkpt lat="45.49851061798242" lon="9.129931650559158"><ele>135.75</ele><time>2026-04-25T10:35:28.001Z</time></trkpt><trkpt lat="45.498397592465146" lon="9.129923817506059"><ele>136.0</ele><time>2026-04-25T10:35:29.001Z</time></trkpt><trkpt lat="45.49829179172073" lon="9.12991466657802"><ele>136.0</ele><time>2026-04-25T10:35:30.001Z</time></trkpt><trkpt lat="45.498197948900206" lon="9.129900270831905"><ele>136.0</ele><time>2026-04-25T10:35:31.001Z</time></trkpt><trkpt lat="45.49811429955156" lon="9.129887412348172"><ele>136.0</ele><time>2026-04-25T10:35:32.001Z</time></trkpt><trkpt lat="45.49804757002849" lon="9.129875942458485"><ele>136.0</ele><time>2026-04-25T10:35:33.001Z</time></trkpt><trkpt lat="45.497973156023036" lon="9.129880464264604"><ele>136.0</ele><time>2026-04-25T10:35:35.001Z</time></trkpt><trkpt lat="45.497868044232554" lon="9.129902323419556"><ele>136.0</ele><time>2026-04-25T10:36:08.002Z</time></trkpt><trkpt lat="45.49779608411169" lon="9.129886688864225"><ele>135.25</ele><time>2026-04-25T10:36:09.002Z</time></trkpt><trkpt lat="45.497726628084756" lon="9.129881800910603"><ele>134.5</ele><time>2026-04-25T10:36:10.002Z</time></trkpt><trkpt lat="45.49764650012251" lon="9.130141950356498"><ele>133.75</ele><time>2026-04-25T10:36:12.002Z</time></trkpt><trkpt lat="45.49761567964824" lon="9.130264136353214"><ele>133.0</ele><time>2026-04-25T10:36:13.002Z</time></trkpt><trkpt lat="45.497581252093944" lon="9.130404110694606"><ele>133.0</ele><time>2026-04-25T10:36:14.002Z</time></trkpt><trkpt lat="45.497533485098195" lon="9.130517819035076"><ele>133.0</ele><time>2026-04-25T10:36:15.002Z</time></trkpt><trkpt lat="45.49748080251162" lon="9.130640450931912"><ele>133.0</ele><time>2026-04-25T10:36:16.002Z</time></trkpt><trkpt lat="45.49745046701841" lon="9.130723040175429"><ele>133.0</ele><time>2026-04-25T10:36:17.002Z</time></trkpt><trkpt lat="45.49740854014016" lon="9.13081993146418"><ele>133.0</ele><time>2026-04-25T10:36:18.002Z</time></trkpt><trkpt lat="45.497345495439596" lon="9.13101965259825"><ele>133.25</ele><time>2026-04-25T10:36:30.002Z</time></trkpt><trkpt lat="45.497295234783635" lon="9.131141976210401"><ele>133.5</ele><time>2026-04-25T10:36:31.002Z</time></trkpt><trkpt lat="45.49723453906571" lon="9.131284712844314"><ele>133.75</ele><time>2026-04-25T10:36:32.002Z</time></trkpt><trkpt lat="45.4971794955633" lon="9.131412604486576"><ele>134.0</ele><time>2026-04-25T10:36:33.002Z</time></trkpt><trkpt lat="45.4971081979549" lon="9.131578261968134"><ele>135.33333333333331</ele><time>2026-04-25T10:36:34.002Z</time></trkpt><trkpt lat="45.497030503046126" lon="9.13177271829362"><ele>136.66666666666666</ele><time>2026-04-25T10:36:35.002Z</time></trkpt><trkpt lat="45.4969400848396" lon="9.13201476036742"><ele>138.0</ele><time>2026-04-25T10:36:36.002Z</time></trkpt><trkpt lat="45.496824386045695" lon="9.132321101168113"><ele>136.5</ele><time>2026-04-25T10:36:37.002Z</time></trkpt><trkpt lat="45.49670303715042" lon="9.132640745689336"><ele>135.0</ele><time>2026-04-25T10:36:38.003Z</time></trkpt><trkpt lat="45.49659441002486" lon="9.132926879828485"><ele>135.0</ele><time>2026-04-25T10:36:39.003Z</time></trkpt><trkpt lat="45.49649573052086" lon="9.133186810978012"><ele>135.0</ele><time>2026-04-25T10:36:40.003Z</time></trkpt><trkpt lat="45.496408104191936" lon="9.133417627058112"><ele>135.0</ele><time>2026-04-25T10:36:41.003Z</time></trkpt><trkpt lat="45.496324801954714" lon="9.133638597125046"><ele>134.66666666666666</ele><time>2026-04-25T10:36:42.003Z</time></trkpt><trkpt lat="45.49624972826331" lon="9.133848865509282"><ele>134.33333333333331</ele><time>2026-04-25T10:36:43.003Z</time></trkpt><trkpt lat="45.49619041937935" lon="9.134043725584156"><ele>134.0</ele><time>2026-04-25T10:36:44.003Z</time></trkpt><trkpt lat="45.49612684538622" lon="9.134221945745672"><ele>134.25</ele><time>2026-04-25T10:36:45.003Z</time></trkpt><trkpt lat="45.49607237545374" lon="9.134394908960644"><ele>134.5</ele><time>2026-04-25T10:36:46.003Z</time></trkpt><trkpt lat="45.49602128803245" lon="9.134580972548525"><ele>134.75</ele><time>2026-04-25T10:36:47.003Z</time></trkpt><trkpt lat="45.495967280877124" lon="9.134745274054625"><ele>135.0</ele><time>2026-04-25T10:36:48.003Z</time></trkpt><trkpt lat="45.49591866169756" lon="9.134891528207103"><ele>135.0</ele><time>2026-04-25T10:36:49.003Z</time></trkpt><trkpt lat="45.49587292652959" lon="9.1350350788398"><ele>135.0</ele><time>2026-04-25T10:36:50.003Z</time></trkpt><trkpt lat="45.49582342246525" lon="9.135187072470968"><ele>135.0</ele><time>2026-04-25T10:36:51.003Z</time></trkpt><trkpt lat="45.495776196726005" lon="9.135332366971074"><ele>135.0</ele><time>2026-04-25T10:36:52.003Z</time></trkpt><trkpt lat="45.49573368327121" lon="9.135472754881118"><ele>135.0</ele><time>2026-04-25T10:36:53.003Z</time></trkpt><trkpt lat="45.495693609092264" lon="9.135604303655091"><ele>135.0</ele><time>2026-04-25T10:36:54.003Z</time></trkpt><trkpt lat="45.495657708860705" lon="9.135731479352684"><ele>135.0</ele><time>2026-04-25T10:36:55.003Z</time></trkpt><trkpt lat="45.4956197808781" lon="9.135848155525148"><ele>135.0</ele><time>2026-04-25T10:36:56.003Z</time></trkpt><trkpt lat="45.4955806301564" lon="9.135957750280578"><ele>135.0</ele><time>2026-04-25T10:36:57.003Z</time></trkpt><trkpt lat="45.495541787815114" lon="9.136065292970336"><ele>135.0</ele><time>2026-04-25T10:36:58.003Z</time></trkpt><trkpt lat="45.49550327680236" lon="9.136179238747602"><ele>135.0</ele><time>2026-04-25T10:36:59.003Z</time></trkpt><trkpt lat="45.49546977254437" lon="9.136288258137997"><ele>135.0</ele><time>2026-04-25T10:37:00.003Z</time></trkpt><trkpt lat="45.49543738052349" lon="9.136390063794257"><ele>135.0</ele><time>2026-04-25T10:37:01.003Z</time></trkpt><trkpt lat="45.495408767590924" lon="9.136480725649063"><ele>135.0</ele><time>2026-04-25T10:37:02.003Z</time></trkpt><trkpt lat="45.49537584818355" lon="9.136564827645856"><ele>135.0</ele><time>2026-04-25T10:37:04.003Z</time></trkpt><trkpt lat="45.49520236424309" lon="9.136525604915311"><ele>135.0</ele><time>2026-04-25T10:38:08.002Z</time></trkpt><trkpt lat="45.495132759902596" lon="9.13652633627622"><ele>135.0</ele><time>2026-04-25T10:38:10.002Z</time></trkpt><trkpt lat="45.49505419509564" lon="9.13649612988322"><ele>135.0</ele><time>2026-04-25T10:38:13.002Z</time></trkpt><trkpt lat="45.49497486656103" lon="9.136428027994745"><ele>135.0</ele><time>2026-04-25T10:38:15.002Z</time></trkpt><trkpt lat="45.49491230014419" lon="9.136347755453226"><ele>135.0</ele><time>2026-04-25T10:38:17.002Z</time></trkpt><trkpt lat="45.49482402349408" lon="9.136361711316368"><ele>135.0</ele><time>2026-04-25T10:38:20.002Z</time></trkpt><trkpt lat="45.494822252131385" lon="9.136495296557497"><ele>135.0</ele><time>2026-04-25T10:38:23.002Z</time></trkpt><trkpt lat="45.4947792360867" lon="9.136562818373525"><ele>135.0</ele><time>2026-04-25T10:38:25.002Z</time></trkpt><trkpt lat="45.49480637889478" lon="9.136479593094881"><ele>135.0</ele><time>2026-04-25T10:38:31.002Z</time></trkpt><trkpt lat="45.494741643167046" lon="9.136379453607164"><ele>135.0</ele><time>2026-04-25T10:38:35.002Z</time></trkpt><trkpt lat="45.49469507752431" lon="9.136283074485405"><ele>135.0</ele><time>2026-04-25T10:38:37.002Z</time></trkpt><trkpt lat="45.49474233979133" lon="9.136366702488907"><ele>135.0</ele><time>2026-04-25T10:38:43.003Z</time></trkpt><trkpt lat="45.49466829600018" lon="9.136340564654073"><ele>135.0</ele><time>2026-04-25T10:38:57.003Z</time></trkpt><trkpt lat="45.49459234025481" lon="9.136284234267249"><ele>135.0</ele><time>2026-04-25T10:39:01.003Z</time></trkpt><trkpt lat="45.49450397818059" lon="9.1361993402356"><ele>135.0</ele><time>2026-04-25T10:39:04.003Z</time></trkpt><trkpt lat="45.49439859538082" lon="9.136086068082925"><ele>135.0</ele><time>2026-04-25T10:39:05.003Z</time></trkpt><trkpt lat="45.49446529820727" lon="9.136151146485508"><ele>135.0</ele><time>2026-04-25T10:39:09.003Z</time></trkpt><trkpt lat="45.49452703578815" lon="9.13621765816263"><ele>135.0</ele><time>2026-04-25T10:39:13.003Z</time></trkpt><trkpt lat="45.494582281344094" lon="9.136277874732075"><ele>135.0</ele><time>2026-04-25T10:39:32.001Z</time></trkpt><trkpt lat="45.49464358505709" lon="9.136340772097473"><ele>135.0</ele><time>2026-04-25T10:39:36.001Z</time></trkpt><trkpt lat="45.4944965258031" lon="9.136189287168339"><ele>135.0</ele><time>2026-04-25T10:39:37.001Z</time></trkpt><trkpt lat="45.49437232821215" lon="9.136062159864235"><ele>135.0</ele><time>2026-04-25T10:39:38.001Z</time></trkpt><trkpt lat="45.494462133058065" lon="9.136159614263063"><ele>135.0</ele><time>2026-04-25T10:39:41.001Z</time></trkpt></trkseg></trk></gpx>